<?xml version="1.0" encoding="UTF-8" standalone="no" ?><gpx xmlns="http://www.topografix.com/GPX/1/1" xmlns:gpxx="http://www.garmin.com/xmlschemas/GpxExtensions/v3" xmlns:wptx1="http://www.garmin.com/xmlschemas/WaypointExtension/v1" xmlns:gpxtpx="http://www.garmin.com/xmlschemas/TrackPointExtension/v1" creator="GuideVTT.com" version="1.1" xmlns:xsi="http://www.w3.org/2001/XMLSchema-instance" xsi:schemaLocation="http://www.topografix.com/GPX/1/1 http://www.topografix.com/GPX/1/1/gpx.xsd http://www.garmin.com/xmlschemas/GpxExtensions/v3 http://www8.garmin.com/xmlschemas/GpxExtensionsv3.xsd http://www.garmin.com/xmlschemas/WaypointExtension/v1 http://www8.garmin.com/xmlschemas/WaypointExtensionv1.xsd http://www.garmin.com/xmlschemas/TrackPointExtension/v1 http://www.garmin.com/xmlschemas/TrackPointExtensionv1.xsd">
<metadata><link href="http://www.garmin.com"><text>Garmin International</text></link><time>2013-06-22T15:13:50Z</time></metadata>
<trk><name>granges_vermala.gpx</name><extensions><gpxx:TrackExtension><gpxx:DisplayColor>Cyan</gpxx:DisplayColor></gpxx:TrackExtension></extensions><trkseg>
<trkpt lat="46.2669219970703" lon="7.46100044250488"><ele></ele><time>2013-8-7T7:41:46Z</time></trkpt>
<trkpt lat="46.2669219970703" lon="7.46108865737915"><ele></ele><time>2013-8-7T7:41:49Z</time></trkpt>
<trkpt lat="46.2669296264648" lon="7.46113109588623"><ele></ele><time>2013-8-7T7:41:52Z</time></trkpt>
<trkpt lat="46.2669372558594" lon="7.4611701965332"><ele></ele><time>2013-8-7T7:41:55Z</time></trkpt>
<trkpt lat="46.2669525146484" lon="7.46122407913208"><ele></ele><time>2013-8-7T7:41:58Z</time></trkpt>
<trkpt lat="46.2669906616211" lon="7.46138048171997"><ele></ele><time>2013-8-7T7:42:1Z</time></trkpt>
<trkpt lat="46.2670593261719" lon="7.46146726608276"><ele></ele><time>2013-8-7T7:42:4Z</time></trkpt>
<trkpt lat="46.26708984375" lon="7.46147012710571"><ele></ele><time>2013-8-7T7:42:7Z</time></trkpt>
<trkpt lat="46.2671890258789" lon="7.46138525009155"><ele></ele><time>2013-8-7T7:42:10Z</time></trkpt>
<trkpt lat="46.2672080993652" lon="7.46132802963257"><ele></ele><time>2013-8-7T7:42:13Z</time></trkpt>
<trkpt lat="46.2672080993652" lon="7.46126556396484"><ele></ele><time>2013-8-7T7:42:16Z</time></trkpt>
<trkpt lat="46.2671966552734" lon="7.46120452880859"><ele></ele><time>2013-8-7T7:42:19Z</time></trkpt>
<trkpt lat="46.2671813964844" lon="7.46114301681518"><ele></ele><time>2013-8-7T7:42:22Z</time></trkpt>
<trkpt lat="46.2671661376953" lon="7.46108150482178"><ele></ele><time>2013-8-7T7:42:25Z</time></trkpt>
<trkpt lat="46.2671508789062" lon="7.46101713180542"><ele></ele><time>2013-8-7T7:42:28Z</time></trkpt>
<trkpt lat="46.2671356201172" lon="7.4609522819519"><ele></ele><time>2013-8-7T7:42:31Z</time></trkpt>
<trkpt lat="46.2671203613281" lon="7.46088600158691"><ele></ele><time>2013-8-7T7:42:34Z</time></trkpt>
<trkpt lat="46.2671051025391" lon="7.46081781387329"><ele></ele><time>2013-8-7T7:42:37Z</time></trkpt>
<trkpt lat="46.2670936584473" lon="7.46075296401978"><ele></ele><time>2013-8-7T7:42:40Z</time></trkpt>
<trkpt lat="46.2670860290527" lon="7.4606876373291"><ele></ele><time>2013-8-7T7:42:43Z</time></trkpt>
<trkpt lat="46.2670745849609" lon="7.46047592163086"><ele></ele><time>2013-8-7T7:42:46Z</time></trkpt>
<trkpt lat="46.2670822143555" lon="7.46023321151733"><ele></ele><time>2013-8-7T7:42:49Z</time></trkpt>
<trkpt lat="46.2670669555664" lon="7.46005344390869"><ele></ele><time>2013-8-7T7:42:52Z</time></trkpt>
<trkpt lat="46.2670288085938" lon="7.45982503890991"><ele></ele><time>2013-8-7T7:42:55Z</time></trkpt>
<trkpt lat="46.2670059204102" lon="7.45976209640503"><ele></ele><time>2013-8-7T7:42:58Z</time></trkpt>
<trkpt lat="46.2669486999512" lon="7.45954942703247"><ele></ele><time>2013-8-7T7:43:1Z</time></trkpt>
<trkpt lat="46.2668647766113" lon="7.45933198928833"><ele></ele><time>2013-8-7T7:43:4Z</time></trkpt>
<trkpt lat="46.2667579650879" lon="7.45915174484253"><ele></ele><time>2013-8-7T7:43:7Z</time></trkpt>
<trkpt lat="46.2666625976562" lon="7.45901393890381"><ele></ele><time>2013-8-7T7:43:10Z</time></trkpt>
<trkpt lat="46.2665367126465" lon="7.45884561538696"><ele></ele><time>2013-8-7T7:43:13Z</time></trkpt>
<trkpt lat="46.2663726806641" lon="7.45863437652588"><ele></ele><time>2013-8-7T7:43:16Z</time></trkpt>
<trkpt lat="46.2662353515625" lon="7.45844507217407"><ele></ele><time>2013-8-7T7:43:19Z</time></trkpt>
<trkpt lat="46.2661323547363" lon="7.45827865600586"><ele></ele><time>2013-8-7T7:43:22Z</time></trkpt>
<trkpt lat="46.2660598754883" lon="7.45809412002564"><ele></ele><time>2013-8-7T7:43:25Z</time></trkpt>
<trkpt lat="46.2660140991211" lon="7.45790386199951"><ele></ele><time>2013-8-7T7:43:28Z</time></trkpt>
<trkpt lat="46.2659568786621" lon="7.45771932601929"><ele></ele><time>2013-8-7T7:43:31Z</time></trkpt>
<trkpt lat="46.2658958435059" lon="7.45752096176148"><ele></ele><time>2013-8-7T7:43:34Z</time></trkpt>
<trkpt lat="46.2658882141113" lon="7.45745420455933"><ele></ele><time>2013-8-7T7:43:37Z</time></trkpt>
<trkpt lat="46.2659225463867" lon="7.45743274688721"><ele></ele><time>2013-8-7T7:43:40Z</time></trkpt>
<trkpt lat="46.265941619873" lon="7.45745182037354"><ele></ele><time>2013-8-7T7:43:43Z</time></trkpt>
<trkpt lat="46.2659568786621" lon="7.45748329162598"><ele></ele><time>2013-8-7T7:43:46Z</time></trkpt>
<trkpt lat="46.2659759521484" lon="7.45751237869263"><ele></ele><time>2013-8-7T7:43:49Z</time></trkpt>
<trkpt lat="46.2659873962402" lon="7.45754528045654"><ele></ele><time>2013-8-7T7:43:52Z</time></trkpt>
<trkpt lat="46.2660522460938" lon="7.45779371261597"><ele></ele><time>2013-8-7T7:43:55Z</time></trkpt>
<trkpt lat="46.2661323547363" lon="7.45793914794922"><ele></ele><time>2013-8-7T7:43:58Z</time></trkpt>
<trkpt lat="46.2662467956543" lon="7.45810890197754"><ele></ele><time>2013-8-7T7:44:1Z</time></trkpt>
<trkpt lat="46.2663726806641" lon="7.45831775665283"><ele></ele><time>2013-8-7T7:44:4Z</time></trkpt>
<trkpt lat="46.2663879394531" lon="7.45834064483643"><ele></ele><time>2013-8-7T7:44:7Z</time></trkpt>
<trkpt lat="46.2663993835449" lon="7.45836734771728"><ele></ele><time>2013-8-7T7:44:10Z</time></trkpt>
<trkpt lat="46.2664108276367" lon="7.45839166641235"><ele></ele><time>2013-8-7T7:44:13Z</time></trkpt>
<trkpt lat="46.2664260864258" lon="7.458411693573"><ele></ele><time>2013-8-7T7:44:16Z</time></trkpt>
<trkpt lat="46.2664451599121" lon="7.45842790603638"><ele></ele><time>2013-8-7T7:44:19Z</time></trkpt>
<trkpt lat="46.2664642333984" lon="7.4584379196167"><ele></ele><time>2013-8-7T7:44:22Z</time></trkpt>
<trkpt lat="46.2664909362793" lon="7.45844030380249"><ele></ele><time>2013-8-7T7:44:25Z</time></trkpt>
<trkpt lat="46.2665138244629" lon="7.45843458175659"><ele></ele><time>2013-8-7T7:44:28Z</time></trkpt>
<trkpt lat="46.2665328979492" lon="7.458420753479"><ele></ele><time>2013-8-7T7:44:31Z</time></trkpt>
<trkpt lat="46.2665519714356" lon="7.4584002494812"><ele></ele><time>2013-8-7T7:44:34Z</time></trkpt>
<trkpt lat="46.2665672302246" lon="7.45836973190308"><ele></ele><time>2013-8-7T7:44:37Z</time></trkpt>
<trkpt lat="46.2665748596191" lon="7.4583330154419"><ele></ele><time>2013-8-7T7:44:40Z</time></trkpt>
<trkpt lat="46.2665824890137" lon="7.45829105377197"><ele></ele><time>2013-8-7T7:44:43Z</time></trkpt>
<trkpt lat="46.2665481567383" lon="7.45819759368896"><ele></ele><time>2013-8-7T7:44:46Z</time></trkpt>
<trkpt lat="46.2664947509766" lon="7.45813226699829"><ele></ele><time>2013-8-7T7:44:49Z</time></trkpt>
<trkpt lat="46.2663993835449" lon="7.45801639556885"><ele></ele><time>2013-8-7T7:44:52Z</time></trkpt>
<trkpt lat="46.2663116455078" lon="7.45788526535034"><ele></ele><time>2013-8-7T7:44:55Z</time></trkpt>
<trkpt lat="46.266300201416" lon="7.45786285400391"><ele></ele><time>2013-8-7T7:44:58Z</time></trkpt>
<trkpt lat="46.2662887573242" lon="7.45784091949463"><ele></ele><time>2013-8-7T7:45:1Z</time></trkpt>
<trkpt lat="46.2662811279297" lon="7.45782136917114"><ele></ele><time>2013-8-7T7:45:4Z</time></trkpt>
<trkpt lat="46.2662696838379" lon="7.45779752731323"><ele></ele><time>2013-8-7T7:45:7Z</time></trkpt>
<trkpt lat="46.2662391662598" lon="7.45769929885864"><ele></ele><time>2013-8-7T7:45:10Z</time></trkpt>
<trkpt lat="46.2662162780762" lon="7.45765686035156"><ele></ele><time>2013-8-7T7:45:13Z</time></trkpt>
<trkpt lat="46.2661781311035" lon="7.45758533477783"><ele></ele><time>2013-8-7T7:45:16Z</time></trkpt>
<trkpt lat="46.2661552429199" lon="7.45750141143799"><ele></ele><time>2013-8-7T7:45:19Z</time></trkpt>
<trkpt lat="46.2661437988281" lon="7.45744943618774"><ele></ele><time>2013-8-7T7:45:22Z</time></trkpt>
<trkpt lat="46.2661323547363" lon="7.45743179321289"><ele></ele><time>2013-8-7T7:45:25Z</time></trkpt>
<trkpt lat="46.26611328125" lon="7.45738315582275"><ele></ele><time>2013-8-7T7:45:28Z</time></trkpt>
<trkpt lat="46.2660903930664" lon="7.45731163024902"><ele></ele><time>2013-8-7T7:45:31Z</time></trkpt>
<trkpt lat="46.2660675048828" lon="7.45726203918457"><ele></ele><time>2013-8-7T7:45:34Z</time></trkpt>
<trkpt lat="46.2660636901856" lon="7.45723390579224"><ele></ele><time>2013-8-7T7:45:37Z</time></trkpt>
<trkpt lat="46.266056060791" lon="7.45720291137695"><ele></ele><time>2013-8-7T7:45:40Z</time></trkpt>
<trkpt lat="46.2660522460938" lon="7.45717859268188"><ele></ele><time>2013-8-7T7:45:43Z</time></trkpt>
<trkpt lat="46.2660484313965" lon="7.45715284347534"><ele></ele><time>2013-8-7T7:45:46Z</time></trkpt>
<trkpt lat="46.2660331726074" lon="7.45703649520874"><ele></ele><time>2013-8-7T7:45:49Z</time></trkpt>
<trkpt lat="46.2660064697266" lon="7.45686197280884"><ele></ele><time>2013-8-7T7:45:52Z</time></trkpt>
<trkpt lat="46.2659606933594" lon="7.4566707611084"><ele></ele><time>2013-8-7T7:45:55Z</time></trkpt>
<trkpt lat="46.2659530639648" lon="7.45665073394775"><ele></ele><time>2013-8-7T7:45:58Z</time></trkpt>
<trkpt lat="46.2659454345703" lon="7.45663166046143"><ele></ele><time>2013-8-7T7:46:1Z</time></trkpt>
<trkpt lat="46.265941619873" lon="7.45660829544067"><ele></ele><time>2013-8-7T7:46:4Z</time></trkpt>
<trkpt lat="46.2659301757812" lon="7.45658874511719"><ele></ele><time>2013-8-7T7:46:7Z</time></trkpt>
<trkpt lat="46.2659149169922" lon="7.45656967163086"><ele></ele><time>2013-8-7T7:46:10Z</time></trkpt>
<trkpt lat="46.2659034729004" lon="7.45654773712158"><ele></ele><time>2013-8-7T7:46:13Z</time></trkpt>
<trkpt lat="46.2658348083496" lon="7.45642805099487"><ele></ele><time>2013-8-7T7:46:16Z</time></trkpt>
<trkpt lat="46.265739440918" lon="7.45631885528564"><ele></ele><time>2013-8-7T7:46:19Z</time></trkpt>
<trkpt lat="46.2656173706055" lon="7.45617532730102"><ele></ele><time>2013-8-7T7:46:22Z</time></trkpt>
<trkpt lat="46.2655258178711" lon="7.45606899261475"><ele></ele><time>2013-8-7T7:46:25Z</time></trkpt>
<trkpt lat="46.2654342651367" lon="7.45590877532959"><ele></ele><time>2013-8-7T7:46:28Z</time></trkpt>
<trkpt lat="46.2654342651367" lon="7.45578479766846"><ele></ele><time>2013-8-7T7:46:31Z</time></trkpt>
<trkpt lat="46.2654495239258" lon="7.45577001571655"><ele></ele><time>2013-8-7T7:46:34Z</time></trkpt>
<trkpt lat="46.2655334472656" lon="7.4557933807373"><ele></ele><time>2013-8-7T7:46:37Z</time></trkpt>
<trkpt lat="46.2655601501465" lon="7.4558424949646"><ele></ele><time>2013-8-7T7:46:40Z</time></trkpt>
<trkpt lat="46.2656021118164" lon="7.4559473991394"><ele></ele><time>2013-8-7T7:46:43Z</time></trkpt>
<trkpt lat="46.2656097412109" lon="7.45597505569458"><ele></ele><time>2013-8-7T7:46:46Z</time></trkpt>
<trkpt lat="46.2656211853027" lon="7.45599842071533"><ele></ele><time>2013-8-7T7:46:49Z</time></trkpt>
<trkpt lat="46.2656364440918" lon="7.45602035522461"><ele></ele><time>2013-8-7T7:46:52Z</time></trkpt>
<trkpt lat="46.2656517028809" lon="7.45603847503662"><ele></ele><time>2013-8-7T7:46:55Z</time></trkpt>
<trkpt lat="46.2657241821289" lon="7.45608472824097"><ele></ele><time>2013-8-7T7:46:58Z</time></trkpt>
<trkpt lat="46.2658538818359" lon="7.4561619758606"><ele></ele><time>2013-8-7T7:47:1Z</time></trkpt>
<trkpt lat="46.265869140625" lon="7.45617437362671"><ele></ele><time>2013-8-7T7:47:4Z</time></trkpt>
<trkpt lat="46.2658882141113" lon="7.45618677139282"><ele></ele><time>2013-8-7T7:47:7Z</time></trkpt>
<trkpt lat="46.2659034729004" lon="7.45619773864746"><ele></ele><time>2013-8-7T7:47:10Z</time></trkpt>
<trkpt lat="46.2659187316894" lon="7.45621252059936"><ele></ele><time>2013-8-7T7:47:13Z</time></trkpt>
<trkpt lat="46.2659339904785" lon="7.4562292098999"><ele></ele><time>2013-8-7T7:47:16Z</time></trkpt>
<trkpt lat="46.2660179138184" lon="7.45634460449219"><ele></ele><time>2013-8-7T7:47:19Z</time></trkpt>
<trkpt lat="46.2661056518555" lon="7.4565167427063"><ele></ele><time>2013-8-7T7:47:22Z</time></trkpt>
<trkpt lat="46.2661972045898" lon="7.45667409896851"><ele></ele><time>2013-8-7T7:47:25Z</time></trkpt>
<trkpt lat="46.2663154602051" lon="7.45683717727661"><ele></ele><time>2013-8-7T7:47:28Z</time></trkpt>
<trkpt lat="46.2664184570312" lon="7.4569787979126"><ele></ele><time>2013-8-7T7:47:31Z</time></trkpt>
<trkpt lat="46.2665100097656" lon="7.45709896087646"><ele></ele><time>2013-8-7T7:47:34Z</time></trkpt>
<trkpt lat="46.2666053771973" lon="7.45722389221191"><ele></ele><time>2013-8-7T7:47:37Z</time></trkpt>
<trkpt lat="46.2666244506836" lon="7.45724058151245"><ele></ele><time>2013-8-7T7:47:40Z</time></trkpt>
<trkpt lat="46.2666358947754" lon="7.45725870132446"><ele></ele><time>2013-8-7T7:47:43Z</time></trkpt>
<trkpt lat="46.2666511535644" lon="7.45727634429932"><ele></ele><time>2013-8-7T7:47:46Z</time></trkpt>
<trkpt lat="46.2666664123535" lon="7.45729351043701"><ele></ele><time>2013-8-7T7:47:49Z</time></trkpt>
<trkpt lat="46.2667274475098" lon="7.45735931396484"><ele></ele><time>2013-8-7T7:47:52Z</time></trkpt>
<trkpt lat="46.2668495178223" lon="7.45750617980957"><ele></ele><time>2013-8-7T7:47:55Z</time></trkpt>
<trkpt lat="46.2669677734375" lon="7.45763301849365"><ele></ele><time>2013-8-7T7:47:58Z</time></trkpt>
<trkpt lat="46.2671203613281" lon="7.45777225494385"><ele></ele><time>2013-8-7T7:48:1Z</time></trkpt>
<trkpt lat="46.2672233581543" lon="7.457839012146"><ele></ele><time>2013-8-7T7:48:4Z</time></trkpt>
<trkpt lat="46.2673492431641" lon="7.45786142349243"><ele></ele><time>2013-8-7T7:48:7Z</time></trkpt>
<trkpt lat="46.2674522399902" lon="7.457763671875"><ele></ele><time>2013-8-7T7:48:10Z</time></trkpt>
<trkpt lat="46.267505645752" lon="7.45757055282593"><ele></ele><time>2013-8-7T7:48:13Z</time></trkpt>
<trkpt lat="46.2675132751465" lon="7.4574875831604"><ele></ele><time>2013-8-7T7:48:16Z</time></trkpt>
<trkpt lat="46.2675132751465" lon="7.45744848251343"><ele></ele><time>2013-8-7T7:48:19Z</time></trkpt>
<trkpt lat="46.2675132751465" lon="7.45741033554077"><ele></ele><time>2013-8-7T7:48:22Z</time></trkpt>
<trkpt lat="46.267505645752" lon="7.45737075805664"><ele></ele><time>2013-8-7T7:48:25Z</time></trkpt>
<trkpt lat="46.2674980163574" lon="7.45733308792114"><ele></ele><time>2013-8-7T7:48:28Z</time></trkpt>
<trkpt lat="46.2674942016602" lon="7.45729303359985"><ele></ele><time>2013-8-7T7:48:31Z</time></trkpt>
<trkpt lat="46.2674674987793" lon="7.45707511901856"><ele></ele><time>2013-8-7T7:48:34Z</time></trkpt>
<trkpt lat="46.2674674987793" lon="7.45703172683716"><ele></ele><time>2013-8-7T7:48:37Z</time></trkpt>
<trkpt lat="46.2674713134766" lon="7.45690631866455"><ele></ele><time>2013-8-7T7:48:40Z</time></trkpt>
<trkpt lat="46.267505645752" lon="7.45679521560669"><ele></ele><time>2013-8-7T7:48:43Z</time></trkpt>
<trkpt lat="46.267520904541" lon="7.45676374435425"><ele></ele><time>2013-8-7T7:48:46Z</time></trkpt>
<trkpt lat="46.2675399780273" lon="7.4567403793335"><ele></ele><time>2013-8-7T7:48:49Z</time></trkpt>
<trkpt lat="46.2675628662109" lon="7.45672225952148"><ele></ele><time>2013-8-7T7:48:52Z</time></trkpt>
<trkpt lat="46.2676086425781" lon="7.45669460296631"><ele></ele><time>2013-8-7T7:48:55Z</time></trkpt>
<trkpt lat="46.2677307128906" lon="7.45666885375976"><ele></ele><time>2013-8-7T7:48:58Z</time></trkpt>
<trkpt lat="46.2678985595703" lon="7.45668888092041"><ele></ele><time>2013-8-7T7:49:1Z</time></trkpt>
<trkpt lat="46.2680778503418" lon="7.4567346572876"><ele></ele><time>2013-8-7T7:49:4Z</time></trkpt>
<trkpt lat="46.2681732177734" lon="7.45676565170288"><ele></ele><time>2013-8-7T7:49:7Z</time></trkpt>
<trkpt lat="46.2681922912598" lon="7.4567756652832"><ele></ele><time>2013-8-7T7:49:10Z</time></trkpt>
<trkpt lat="46.2683143615723" lon="7.4568362236023"><ele></ele><time>2013-8-7T7:49:13Z</time></trkpt>
<trkpt lat="46.268440246582" lon="7.45688247680664"><ele></ele><time>2013-8-7T7:49:16Z</time></trkpt>
<trkpt lat="46.2685623168945" lon="7.45688152313232"><ele></ele><time>2013-8-7T7:49:19Z</time></trkpt>
<trkpt lat="46.2687454223633" lon="7.45685720443726"><ele></ele><time>2013-8-7T7:49:22Z</time></trkpt>
<trkpt lat="46.2688941955566" lon="7.45687007904053"><ele></ele><time>2013-8-7T7:49:25Z</time></trkpt>
<trkpt lat="46.2690010070801" lon="7.45694351196289"><ele></ele><time>2013-8-7T7:49:28Z</time></trkpt>
<trkpt lat="46.269100189209" lon="7.45706748962402"><ele></ele><time>2013-8-7T7:49:31Z</time></trkpt>
<trkpt lat="46.2691802978516" lon="7.45707368850708"><ele></ele><time>2013-8-7T7:49:34Z</time></trkpt>
<trkpt lat="46.2692031860352" lon="7.45696640014648"><ele></ele><time>2013-8-7T7:49:37Z</time></trkpt>
<trkpt lat="46.2691535949707" lon="7.45682191848755"><ele></ele><time>2013-8-7T7:49:40Z</time></trkpt>
<trkpt lat="46.269115447998" lon="7.45676708221436"><ele></ele><time>2013-8-7T7:49:43Z</time></trkpt>
<trkpt lat="46.269100189209" lon="7.45672702789307"><ele></ele><time>2013-8-7T7:49:46Z</time></trkpt>
<trkpt lat="46.2690315246582" lon="7.45658731460571"><ele></ele><time>2013-8-7T7:49:49Z</time></trkpt>
<trkpt lat="46.2689819335938" lon="7.45646524429321"><ele></ele><time>2013-8-7T7:49:52Z</time></trkpt>
<trkpt lat="46.268970489502" lon="7.45643901824951"><ele></ele><time>2013-8-7T7:49:55Z</time></trkpt>
<trkpt lat="46.2689666748047" lon="7.45641326904297"><ele></ele><time>2013-8-7T7:49:58Z</time></trkpt>
<trkpt lat="46.2689552307129" lon="7.456383228302"><ele></ele><time>2013-8-7T7:50:1Z</time></trkpt>
<trkpt lat="46.2689476013184" lon="7.45635604858398"><ele></ele><time>2013-8-7T7:50:4Z</time></trkpt>
<trkpt lat="46.2688903808594" lon="7.45623254776001"><ele></ele><time>2013-8-7T7:50:7Z</time></trkpt>
<trkpt lat="46.2687950134277" lon="7.4560956954956"><ele></ele><time>2013-8-7T7:50:10Z</time></trkpt>
<trkpt lat="46.2687225341797" lon="7.45595693588257"><ele></ele><time>2013-8-7T7:50:13Z</time></trkpt>
<trkpt lat="46.268611907959" lon="7.45578050613403"><ele></ele><time>2013-8-7T7:50:16Z</time></trkpt>
<trkpt lat="46.2685203552246" lon="7.45560312271118"><ele></ele><time>2013-8-7T7:50:19Z</time></trkpt>
<trkpt lat="46.2684097290039" lon="7.45541429519653"><ele></ele><time>2013-8-7T7:50:22Z</time></trkpt>
<trkpt lat="46.2683258056641" lon="7.45524406433106"><ele></ele><time>2013-8-7T7:50:25Z</time></trkpt>
<trkpt lat="46.2682075500488" lon="7.45508146286011"><ele></ele><time>2013-8-7T7:50:28Z</time></trkpt>
<trkpt lat="46.2681884765625" lon="7.45505094528198"><ele></ele><time>2013-8-7T7:50:31Z</time></trkpt>
<trkpt lat="46.2681694030762" lon="7.45502185821533"><ele></ele><time>2013-8-7T7:50:34Z</time></trkpt>
<trkpt lat="46.2681503295898" lon="7.45499324798584"><ele></ele><time>2013-8-7T7:50:37Z</time></trkpt>
<trkpt lat="46.2681350708008" lon="7.45496940612793"><ele></ele><time>2013-8-7T7:50:40Z</time></trkpt>
<trkpt lat="46.2680625915527" lon="7.45488500595093"><ele></ele><time>2013-8-7T7:50:43Z</time></trkpt>
<trkpt lat="46.2679252624512" lon="7.45464038848877"><ele></ele><time>2013-8-7T7:50:46Z</time></trkpt>
<trkpt lat="46.2678565979004" lon="7.45447874069214"><ele></ele><time>2013-8-7T7:50:49Z</time></trkpt>
<trkpt lat="46.2678642272949" lon="7.45444869995117"><ele></ele><time>2013-8-7T7:50:52Z</time></trkpt>
<trkpt lat="46.2679252624512" lon="7.4544186592102"><ele></ele><time>2013-8-7T7:50:55Z</time></trkpt>
<trkpt lat="46.2679634094238" lon="7.45444393157959"><ele></ele><time>2013-8-7T7:50:58Z</time></trkpt>
<trkpt lat="46.2680549621582" lon="7.4545431137085"><ele></ele><time>2013-8-7T7:51:1Z</time></trkpt>
<trkpt lat="46.2681846618652" lon="7.45468378067017"><ele></ele><time>2013-8-7T7:51:4Z</time></trkpt>
<trkpt lat="46.2681999206543" lon="7.45470094680786"><ele></ele><time>2013-8-7T7:51:7Z</time></trkpt>
<trkpt lat="46.2682189941406" lon="7.45471954345703"><ele></ele><time>2013-8-7T7:51:10Z</time></trkpt>
<trkpt lat="46.268238067627" lon="7.4547381401062"><ele></ele><time>2013-8-7T7:51:13Z</time></trkpt>
<trkpt lat="46.268253326416" lon="7.45475769042969"><ele></ele><time>2013-8-7T7:51:16Z</time></trkpt>
<trkpt lat="46.2682952880859" lon="7.4548192024231"><ele></ele><time>2013-8-7T7:51:19Z</time></trkpt>
<trkpt lat="46.2683792114258" lon="7.45491933822632"><ele></ele><time>2013-8-7T7:51:22Z</time></trkpt>
<trkpt lat="46.2684555053711" lon="7.45498561859131"><ele></ele><time>2013-8-7T7:51:25Z</time></trkpt>
<trkpt lat="46.2686309814453" lon="7.45509099960327"><ele></ele><time>2013-8-7T7:51:28Z</time></trkpt>
<trkpt lat="46.2688064575195" lon="7.4551887512207"><ele></ele><time>2013-8-7T7:51:31Z</time></trkpt>
<trkpt lat="46.2689476013184" lon="7.45532894134522"><ele></ele><time>2013-8-7T7:51:34Z</time></trkpt>
<trkpt lat="46.2690391540527" lon="7.4554648399353"><ele></ele><time>2013-8-7T7:51:37Z</time></trkpt>
<trkpt lat="46.2691421508789" lon="7.45562171936035"><ele></ele><time>2013-8-7T7:51:40Z</time></trkpt>
<trkpt lat="46.2691955566406" lon="7.45569276809692"><ele></ele><time>2013-8-7T7:51:43Z</time></trkpt>
<trkpt lat="46.269214630127" lon="7.45571374893188"><ele></ele><time>2013-8-7T7:51:46Z</time></trkpt>
<trkpt lat="46.2692337036133" lon="7.45573425292969"><ele></ele><time>2013-8-7T7:51:49Z</time></trkpt>
<trkpt lat="46.2692489624023" lon="7.45575523376465"><ele></ele><time>2013-8-7T7:51:52Z</time></trkpt>
<trkpt lat="46.2692680358887" lon="7.45577812194824"><ele></ele><time>2013-8-7T7:51:55Z</time></trkpt>
<trkpt lat="46.2692832946777" lon="7.4557991027832"><ele></ele><time>2013-8-7T7:51:58Z</time></trkpt>
<trkpt lat="46.2694091796875" lon="7.45594120025635"><ele></ele><time>2013-8-7T7:52:1Z</time></trkpt>
<trkpt lat="46.2695655822754" lon="7.45613765716553"><ele></ele><time>2013-8-7T7:52:4Z</time></trkpt>
<trkpt lat="46.2697143554688" lon="7.45634603500366"><ele></ele><time>2013-8-7T7:52:7Z</time></trkpt>
<trkpt lat="46.2698516845703" lon="7.45653581619263"><ele></ele><time>2013-8-7T7:52:10Z</time></trkpt>
<trkpt lat="46.2699813842773" lon="7.45672941207886"><ele></ele><time>2013-8-7T7:52:13Z</time></trkpt>
<trkpt lat="46.2701072692871" lon="7.45692300796509"><ele></ele><time>2013-8-7T7:52:16Z</time></trkpt>
<trkpt lat="46.2702255249023" lon="7.45708847045898"><ele></ele><time>2013-8-7T7:52:19Z</time></trkpt>
<trkpt lat="46.2703514099121" lon="7.45732307434082"><ele></ele><time>2013-8-7T7:52:22Z</time></trkpt>
<trkpt lat="46.2704086303711" lon="7.45757532119751"><ele></ele><time>2013-8-7T7:52:25Z</time></trkpt>
<trkpt lat="46.270435333252" lon="7.45778942108154"><ele></ele><time>2013-8-7T7:52:28Z</time></trkpt>
<trkpt lat="46.2705001831055" lon="7.45803880691528"><ele></ele><time>2013-8-7T7:52:31Z</time></trkpt>
<trkpt lat="46.2705917358398" lon="7.45821475982666"><ele></ele><time>2013-8-7T7:52:34Z</time></trkpt>
<trkpt lat="46.2707023620606" lon="7.45836400985718"><ele></ele><time>2013-8-7T7:52:37Z</time></trkpt>
<trkpt lat="46.2708549499512" lon="7.45850276947022"><ele></ele><time>2013-8-7T7:52:40Z</time></trkpt>
<trkpt lat="46.2710456848144" lon="7.45862102508545"><ele></ele><time>2013-8-7T7:52:43Z</time></trkpt>
<trkpt lat="46.2712478637695" lon="7.45870113372803"><ele></ele><time>2013-8-7T7:52:46Z</time></trkpt>
<trkpt lat="46.2713813781738" lon="7.458824634552"><ele></ele><time>2013-8-7T7:52:49Z</time></trkpt>
<trkpt lat="46.2714691162109" lon="7.45906639099121"><ele></ele><time>2013-8-7T7:52:52Z</time></trkpt>
<trkpt lat="46.2715454101562" lon="7.45927143096924"><ele></ele><time>2013-8-7T7:52:55Z</time></trkpt>
<trkpt lat="46.2716178894043" lon="7.45948171615601"><ele></ele><time>2013-8-7T7:52:58Z</time></trkpt>
<trkpt lat="46.2716255187988" lon="7.45951271057129"><ele></ele><time>2013-8-7T7:53:1Z</time></trkpt>
<trkpt lat="46.2717056274414" lon="7.45972347259522"><ele></ele><time>2013-8-7T7:53:4Z</time></trkpt>
<trkpt lat="46.2718124389648" lon="7.45991325378418"><ele></ele><time>2013-8-7T7:53:7Z</time></trkpt>
<trkpt lat="46.2719879150391" lon="7.46003484725952"><ele></ele><time>2013-8-7T7:53:10Z</time></trkpt>
<trkpt lat="46.2721900939941" lon="7.46016120910644"><ele></ele><time>2013-8-7T7:53:13Z</time></trkpt>
<trkpt lat="46.2722969055176" lon="7.46030330657959"><ele></ele><time>2013-8-7T7:53:16Z</time></trkpt>
<trkpt lat="46.2723731994629" lon="7.4604434967041"><ele></ele><time>2013-8-7T7:53:19Z</time></trkpt>
<trkpt lat="46.272388458252" lon="7.46047306060791"><ele></ele><time>2013-8-7T7:53:22Z</time></trkpt>
<trkpt lat="46.272403717041" lon="7.46050071716309"><ele></ele><time>2013-8-7T7:53:25Z</time></trkpt>
<trkpt lat="46.2724227905273" lon="7.46052312850952"><ele></ele><time>2013-8-7T7:53:28Z</time></trkpt>
<trkpt lat="46.2724914550781" lon="7.46054697036743"><ele></ele><time>2013-8-7T7:53:31Z</time></trkpt>
<trkpt lat="46.272518157959" lon="7.46053218841553"><ele></ele><time>2013-8-7T7:53:34Z</time></trkpt>
<trkpt lat="46.2725486755371" lon="7.46046829223633"><ele></ele><time>2013-8-7T7:53:37Z</time></trkpt>
<trkpt lat="46.2725486755371" lon="7.4604287147522"><ele></ele><time>2013-8-7T7:53:40Z</time></trkpt>
<trkpt lat="46.2725448608398" lon="7.46039199829102"><ele></ele><time>2013-8-7T7:53:43Z</time></trkpt>
<trkpt lat="46.2725296020508" lon="7.46035623550415"><ele></ele><time>2013-8-7T7:53:46Z</time></trkpt>
<trkpt lat="46.2725105285644" lon="7.46032619476318"><ele></ele><time>2013-8-7T7:53:49Z</time></trkpt>
<trkpt lat="46.2724914550781" lon="7.46029806137085"><ele></ele><time>2013-8-7T7:53:52Z</time></trkpt>
<trkpt lat="46.2724723815918" lon="7.46027088165283"><ele></ele><time>2013-8-7T7:53:55Z</time></trkpt>
<trkpt lat="46.2723197937012" lon="7.46008157730102"><ele></ele><time>2013-8-7T7:53:58Z</time></trkpt>
<trkpt lat="46.2722053527832" lon="7.45993900299072"><ele></ele><time>2013-8-7T7:54:1Z</time></trkpt>
<trkpt lat="46.2720642089844" lon="7.45974016189575"><ele></ele><time>2013-8-7T7:54:4Z</time></trkpt>
<trkpt lat="46.2719612121582" lon="7.45950937271118"><ele></ele><time>2013-8-7T7:54:7Z</time></trkpt>
<trkpt lat="46.2719459533691" lon="7.45922708511352"><ele></ele><time>2013-8-7T7:54:10Z</time></trkpt>
<trkpt lat="46.2719917297363" lon="7.45899868011475"><ele></ele><time>2013-8-7T7:54:13Z</time></trkpt>
<trkpt lat="46.272045135498" lon="7.45883226394653"><ele></ele><time>2013-8-7T7:54:16Z</time></trkpt>
<trkpt lat="46.2720642089844" lon="7.45876598358154"><ele></ele><time>2013-8-7T7:54:19Z</time></trkpt>
<trkpt lat="46.2721405029297" lon="7.45854234695435"><ele></ele><time>2013-8-7T7:54:22Z</time></trkpt>
<trkpt lat="46.2721481323242" lon="7.4585075378418"><ele></ele><time>2013-8-7T7:54:25Z</time></trkpt>
<trkpt lat="46.2721748352051" lon="7.45822381973267"><ele></ele><time>2013-8-7T7:54:28Z</time></trkpt>
<trkpt lat="46.2721557617188" lon="7.45798254013062"><ele></ele><time>2013-8-7T7:54:31Z</time></trkpt>
<trkpt lat="46.2721138000488" lon="7.45775699615478"><ele></ele><time>2013-8-7T7:54:34Z</time></trkpt>
<trkpt lat="46.2720909118652" lon="7.45766687393188"><ele></ele><time>2013-8-7T7:54:37Z</time></trkpt>
<trkpt lat="46.2720832824707" lon="7.45763635635376"><ele></ele><time>2013-8-7T7:54:40Z</time></trkpt>
<trkpt lat="46.2720794677734" lon="7.45760822296143"><ele></ele><time>2013-8-7T7:54:43Z</time></trkpt>
<trkpt lat="46.2720718383789" lon="7.45758152008057"><ele></ele><time>2013-8-7T7:54:46Z</time></trkpt>
<trkpt lat="46.2720642089844" lon="7.45752477645874"><ele></ele><time>2013-8-7T7:54:49Z</time></trkpt>
<trkpt lat="46.2720260620117" lon="7.45730876922607"><ele></ele><time>2013-8-7T7:54:52Z</time></trkpt>
<trkpt lat="46.2719955444336" lon="7.45712041854858"><ele></ele><time>2013-8-7T7:54:55Z</time></trkpt>
<trkpt lat="46.2719879150391" lon="7.45697355270386"><ele></ele><time>2013-8-7T7:54:58Z</time></trkpt>
<trkpt lat="46.2719841003418" lon="7.45694160461426"><ele></ele><time>2013-8-7T7:55:1Z</time></trkpt>
<trkpt lat="46.2719573974609" lon="7.45678806304932"><ele></ele><time>2013-8-7T7:55:4Z</time></trkpt>
<trkpt lat="46.2719345092773" lon="7.45660305023193"><ele></ele><time>2013-8-7T7:55:7Z</time></trkpt>
<trkpt lat="46.2719306945801" lon="7.45657157897949"><ele></ele><time>2013-8-7T7:55:10Z</time></trkpt>
<trkpt lat="46.2719306945801" lon="7.45653963088989"><ele></ele><time>2013-8-7T7:55:13Z</time></trkpt>
<trkpt lat="46.2719268798828" lon="7.45650482177734"><ele></ele><time>2013-8-7T7:55:16Z</time></trkpt>
<trkpt lat="46.2719268798828" lon="7.4564733505249"><ele></ele><time>2013-8-7T7:55:19Z</time></trkpt>
<trkpt lat="46.2719230651856" lon="7.45644187927246"><ele></ele><time>2013-8-7T7:55:22Z</time></trkpt>
<trkpt lat="46.271915435791" lon="7.45634508132935"><ele></ele><time>2013-8-7T7:55:25Z</time></trkpt>
<trkpt lat="46.2718696594238" lon="7.45609903335571"><ele></ele><time>2013-8-7T7:55:28Z</time></trkpt>
<trkpt lat="46.2717933654785" lon="7.45584154129028"><ele></ele><time>2013-8-7T7:55:31Z</time></trkpt>
<trkpt lat="46.2717475891113" lon="7.45561981201172"><ele></ele><time>2013-8-7T7:55:34Z</time></trkpt>
<trkpt lat="46.2716789245606" lon="7.45541381835938"><ele></ele><time>2013-8-7T7:55:37Z</time></trkpt>
<trkpt lat="46.271614074707" lon="7.45521306991577"><ele></ele><time>2013-8-7T7:55:40Z</time></trkpt>
<trkpt lat="46.271541595459" lon="7.45497465133667"><ele></ele><time>2013-8-7T7:55:43Z</time></trkpt>
<trkpt lat="46.2715263366699" lon="7.45494174957275"><ele></ele><time>2013-8-7T7:55:46Z</time></trkpt>
<trkpt lat="46.2715187072754" lon="7.45491123199463"><ele></ele><time>2013-8-7T7:55:49Z</time></trkpt>
<trkpt lat="46.2715110778809" lon="7.4548807144165"><ele></ele><time>2013-8-7T7:55:52Z</time></trkpt>
<trkpt lat="46.2714996337891" lon="7.45484972000122"><ele></ele><time>2013-8-7T7:55:55Z</time></trkpt>
<trkpt lat="46.2714729309082" lon="7.4547529220581"><ele></ele><time>2013-8-7T7:55:58Z</time></trkpt>
<trkpt lat="46.2713928222656" lon="7.45453405380249"><ele></ele><time>2013-8-7T7:56:1Z</time></trkpt>
<trkpt lat="46.2712745666504" lon="7.45431470870972"><ele></ele><time>2013-8-7T7:56:4Z</time></trkpt>
<trkpt lat="46.2711563110352" lon="7.45414209365845"><ele></ele><time>2013-8-7T7:56:7Z</time></trkpt>
<trkpt lat="46.2710571289062" lon="7.45398855209351"><ele></ele><time>2013-8-7T7:56:10Z</time></trkpt>
<trkpt lat="46.270923614502" lon="7.45379304885864"><ele></ele><time>2013-8-7T7:56:13Z</time></trkpt>
<trkpt lat="46.2709045410156" lon="7.45377159118652"><ele></ele><time>2013-8-7T7:56:16Z</time></trkpt>
<trkpt lat="46.2708358764648" lon="7.45370769500732"><ele></ele><time>2013-8-7T7:56:19Z</time></trkpt>
<trkpt lat="46.2708168029785" lon="7.45368528366089"><ele></ele><time>2013-8-7T7:56:22Z</time></trkpt>
<trkpt lat="46.2707977294922" lon="7.45366811752319"><ele></ele><time>2013-8-7T7:56:25Z</time></trkpt>
<trkpt lat="46.2707786560059" lon="7.45365047454834"><ele></ele><time>2013-8-7T7:56:28Z</time></trkpt>
<trkpt lat="46.2707557678223" lon="7.45363759994507"><ele></ele><time>2013-8-7T7:56:31Z</time></trkpt>
<trkpt lat="46.2707328796387" lon="7.45362138748169"><ele></ele><time>2013-8-7T7:56:34Z</time></trkpt>
<trkpt lat="46.270580291748" lon="7.45351648330688"><ele></ele><time>2013-8-7T7:56:37Z</time></trkpt>
<trkpt lat="46.2704277038574" lon="7.45341873168945"><ele></ele><time>2013-8-7T7:56:40Z</time></trkpt>
<trkpt lat="46.2702903747559" lon="7.45329523086548"><ele></ele><time>2013-8-7T7:56:43Z</time></trkpt>
<trkpt lat="46.2701454162598" lon="7.45320701599121"><ele></ele><time>2013-8-7T7:56:46Z</time></trkpt>
<trkpt lat="46.2700653076172" lon="7.45305299758911"><ele></ele><time>2013-8-7T7:56:49Z</time></trkpt>
<trkpt lat="46.2699737548828" lon="7.45281457901001"><ele></ele><time>2013-8-7T7:56:52Z</time></trkpt>
<trkpt lat="46.2698707580566" lon="7.45258665084839"><ele></ele><time>2013-8-7T7:56:55Z</time></trkpt>
<trkpt lat="46.2697868347168" lon="7.45241498947144"><ele></ele><time>2013-8-7T7:56:58Z</time></trkpt>
<trkpt lat="46.2696990966797" lon="7.45222902297974"><ele></ele><time>2013-8-7T7:57:1Z</time></trkpt>
<trkpt lat="46.2696838378906" lon="7.45219945907593"><ele></ele><time>2013-8-7T7:57:4Z</time></trkpt>
<trkpt lat="46.2696685791016" lon="7.45216751098633"><ele></ele><time>2013-8-7T7:57:7Z</time></trkpt>
<trkpt lat="46.2696533203125" lon="7.45213842391968"><ele></ele><time>2013-8-7T7:57:10Z</time></trkpt>
<trkpt lat="46.2696342468262" lon="7.45211172103882"><ele></ele><time>2013-8-7T7:57:13Z</time></trkpt>
<trkpt lat="46.2696189880371" lon="7.45208120346069"><ele></ele><time>2013-8-7T7:57:16Z</time></trkpt>
<trkpt lat="46.2696075439453" lon="7.45205497741699"><ele></ele><time>2013-8-7T7:57:19Z</time></trkpt>
<trkpt lat="46.2694702148438" lon="7.45177602767944"><ele></ele><time>2013-8-7T7:57:22Z</time></trkpt>
<trkpt lat="46.2693710327148" lon="7.45154523849487"><ele></ele><time>2013-8-7T7:57:25Z</time></trkpt>
<trkpt lat="46.2692680358887" lon="7.45131826400757"><ele></ele><time>2013-8-7T7:57:28Z</time></trkpt>
<trkpt lat="46.269157409668" lon="7.45102262496948"><ele></ele><time>2013-8-7T7:57:31Z</time></trkpt>
<trkpt lat="46.2691307067871" lon="7.45088768005371"><ele></ele><time>2013-8-7T7:57:34Z</time></trkpt>
<trkpt lat="46.2691268920898" lon="7.45085573196411"><ele></ele><time>2013-8-7T7:57:37Z</time></trkpt>
<trkpt lat="46.2691268920898" lon="7.45082235336304"><ele></ele><time>2013-8-7T7:57:40Z</time></trkpt>
<trkpt lat="46.2691230773926" lon="7.45078992843628"><ele></ele><time>2013-8-7T7:57:43Z</time></trkpt>
<trkpt lat="46.2691192626953" lon="7.45075750350952"><ele></ele><time>2013-8-7T7:57:46Z</time></trkpt>
<trkpt lat="46.2691078186035" lon="7.4505467414856"><ele></ele><time>2013-8-7T7:57:49Z</time></trkpt>
<trkpt lat="46.2690963745117" lon="7.45027685165405"><ele></ele><time>2013-8-7T7:57:52Z</time></trkpt>
<trkpt lat="46.2690925598144" lon="7.45003604888916"><ele></ele><time>2013-8-7T7:57:55Z</time></trkpt>
<trkpt lat="46.2690887451172" lon="7.44996500015259"><ele></ele><time>2013-8-7T7:57:58Z</time></trkpt>
<trkpt lat="46.2690811157227" lon="7.44979810714722"><ele></ele><time>2013-8-7T7:58:1Z</time></trkpt>
<trkpt lat="46.2690773010254" lon="7.44976568222046"><ele></ele><time>2013-8-7T7:58:4Z</time></trkpt>
<trkpt lat="46.2690773010254" lon="7.44973230361938"><ele></ele><time>2013-8-7T7:58:7Z</time></trkpt>
<trkpt lat="46.2690734863281" lon="7.44969940185547"><ele></ele><time>2013-8-7T7:58:10Z</time></trkpt>
<trkpt lat="46.2690734863281" lon="7.44966411590576"><ele></ele><time>2013-8-7T7:58:13Z</time></trkpt>
<trkpt lat="46.2690658569336" lon="7.44942474365234"><ele></ele><time>2013-8-7T7:58:16Z</time></trkpt>
<trkpt lat="46.2690505981445" lon="7.44917821884155"><ele></ele><time>2013-8-7T7:58:19Z</time></trkpt>
<trkpt lat="46.2690353393555" lon="7.4488353729248"><ele></ele><time>2013-8-7T7:58:22Z</time></trkpt>
<trkpt lat="46.2690162658691" lon="7.44864511489868"><ele></ele><time>2013-8-7T7:58:25Z</time></trkpt>
<trkpt lat="46.268985748291" lon="7.44841384887695"><ele></ele><time>2013-8-7T7:58:28Z</time></trkpt>
<trkpt lat="46.2689552307129" lon="7.44821166992188"><ele></ele><time>2013-8-7T7:58:31Z</time></trkpt>
<trkpt lat="46.268913269043" lon="7.44801712036133"><ele></ele><time>2013-8-7T7:58:34Z</time></trkpt>
<trkpt lat="46.2688522338867" lon="7.44779872894287"><ele></ele><time>2013-8-7T7:58:37Z</time></trkpt>
<trkpt lat="46.2688407897949" lon="7.44776725769043"><ele></ele><time>2013-8-7T7:58:40Z</time></trkpt>
<trkpt lat="46.2688331604004" lon="7.44773435592651"><ele></ele><time>2013-8-7T7:58:43Z</time></trkpt>
<trkpt lat="46.2688293457031" lon="7.44770050048828"><ele></ele><time>2013-8-7T7:58:46Z</time></trkpt>
<trkpt lat="46.2688217163086" lon="7.44766807556152"><ele></ele><time>2013-8-7T7:58:49Z</time></trkpt>
<trkpt lat="46.2687911987305" lon="7.44756984710693"><ele></ele><time>2013-8-7T7:58:52Z</time></trkpt>
<trkpt lat="46.2687301635742" lon="7.447340965271"><ele></ele><time>2013-8-7T7:58:55Z</time></trkpt>
<trkpt lat="46.2686805725098" lon="7.44715213775635"><ele></ele><time>2013-8-7T7:58:58Z</time></trkpt>
<trkpt lat="46.2686462402344" lon="7.44706344604492"><ele></ele><time>2013-8-7T7:59:1Z</time></trkpt>
<trkpt lat="46.2686347961426" lon="7.44703340530396"><ele></ele><time>2013-8-7T7:59:4Z</time></trkpt>
<trkpt lat="46.2686195373535" lon="7.44700336456299"><ele></ele><time>2013-8-7T7:59:7Z</time></trkpt>
<trkpt lat="46.2686080932617" lon="7.44697570800781"><ele></ele><time>2013-8-7T7:59:10Z</time></trkpt>
<trkpt lat="46.2685966491699" lon="7.44694757461548"><ele></ele><time>2013-8-7T7:59:13Z</time></trkpt>
<trkpt lat="46.2685089111328" lon="7.44676208496094"><ele></ele><time>2013-8-7T7:59:16Z</time></trkpt>
<trkpt lat="46.2684211730957" lon="7.44661331176758"><ele></ele><time>2013-8-7T7:59:19Z</time></trkpt>
<trkpt lat="46.2684020996094" lon="7.44655990600586"><ele></ele><time>2013-8-7T7:59:22Z</time></trkpt>
<trkpt lat="46.2683181762695" lon="7.44640445709228"><ele></ele><time>2013-8-7T7:59:25Z</time></trkpt>
<trkpt lat="46.2682838439941" lon="7.44635152816772"><ele></ele><time>2013-8-7T7:59:28Z</time></trkpt>
<trkpt lat="46.2681694030762" lon="7.4461522102356"><ele></ele><time>2013-8-7T7:59:31Z</time></trkpt>
<trkpt lat="46.2681617736816" lon="7.44611883163452"><ele></ele><time>2013-8-7T7:59:34Z</time></trkpt>
<trkpt lat="46.2681884765625" lon="7.44603395462036"><ele></ele><time>2013-8-7T7:59:37Z</time></trkpt>
<trkpt lat="46.2682037353516" lon="7.44602966308594"><ele></ele><time>2013-8-7T7:59:40Z</time></trkpt>
<trkpt lat="46.2682266235352" lon="7.44603872299194"><ele></ele><time>2013-8-7T7:59:43Z</time></trkpt>
<trkpt lat="46.2682456970215" lon="7.44604730606079"><ele></ele><time>2013-8-7T7:59:46Z</time></trkpt>
<trkpt lat="46.2682571411133" lon="7.44606828689575"><ele></ele><time>2013-8-7T7:59:49Z</time></trkpt>
<trkpt lat="46.2682838439941" lon="7.44611024856567"><ele></ele><time>2013-8-7T7:59:52Z</time></trkpt>
<trkpt lat="46.2683525085449" lon="7.44617748260498"><ele></ele><time>2013-8-7T7:59:55Z</time></trkpt>
<trkpt lat="46.2683639526367" lon="7.44619750976562"><ele></ele><time>2013-8-7T7:59:58Z</time></trkpt>
<trkpt lat="46.2683753967285" lon="7.44621658325195"><ele></ele><time>2013-8-7T8:0:1Z</time></trkpt>
<trkpt lat="46.2683868408203" lon="7.44623374938965"><ele></ele><time>2013-8-7T8:0:4Z</time></trkpt>
<trkpt lat="46.2684020996094" lon="7.44625282287598"><ele></ele><time>2013-8-7T8:0:7Z</time></trkpt>
<trkpt lat="46.2684593200684" lon="7.44630575180054"><ele></ele><time>2013-8-7T8:0:10Z</time></trkpt>
<trkpt lat="46.2685585021973" lon="7.44638538360596"><ele></ele><time>2013-8-7T8:0:13Z</time></trkpt>
<trkpt lat="46.2686729431152" lon="7.4465184211731"><ele></ele><time>2013-8-7T8:0:16Z</time></trkpt>
<trkpt lat="46.2688026428223" lon="7.44664001464844"><ele></ele><time>2013-8-7T8:0:19Z</time></trkpt>
<trkpt lat="46.2689323425293" lon="7.44676160812378"><ele></ele><time>2013-8-7T8:0:22Z</time></trkpt>
<trkpt lat="46.2689476013184" lon="7.44678115844726"><ele></ele><time>2013-8-7T8:0:25Z</time></trkpt>
<trkpt lat="46.2689666748047" lon="7.4468035697937"><ele></ele><time>2013-8-7T8:0:28Z</time></trkpt>
<trkpt lat="46.2689819335938" lon="7.44682502746582"><ele></ele><time>2013-8-7T8:0:31Z</time></trkpt>
<trkpt lat="46.2689971923828" lon="7.44684314727783"><ele></ele><time>2013-8-7T8:0:34Z</time></trkpt>
<trkpt lat="46.269100189209" lon="7.44694757461548"><ele></ele><time>2013-8-7T8:0:37Z</time></trkpt>
<trkpt lat="46.2692604064941" lon="7.44711589813232"><ele></ele><time>2013-8-7T8:0:40Z</time></trkpt>
<trkpt lat="46.2693672180176" lon="7.44722652435303"><ele></ele><time>2013-8-7T8:0:43Z</time></trkpt>
<trkpt lat="46.2693862915039" lon="7.44724273681641"><ele></ele><time>2013-8-7T8:0:46Z</time></trkpt>
<trkpt lat="46.2693977355957" lon="7.44726228713989"><ele></ele><time>2013-8-7T8:0:49Z</time></trkpt>
<trkpt lat="46.269416809082" lon="7.44727563858032"><ele></ele><time>2013-8-7T8:0:52Z</time></trkpt>
<trkpt lat="46.2694320678711" lon="7.44729709625244"><ele></ele><time>2013-8-7T8:0:55Z</time></trkpt>
<trkpt lat="46.2694702148438" lon="7.44735622406006"><ele></ele><time>2013-8-7T8:0:58Z</time></trkpt>
<trkpt lat="46.2695770263672" lon="7.44749307632446"><ele></ele><time>2013-8-7T8:1:1Z</time></trkpt>
<trkpt lat="46.2696685791016" lon="7.44765901565552"><ele></ele><time>2013-8-7T8:1:4Z</time></trkpt>
<trkpt lat="46.2697677612305" lon="7.44784927368164"><ele></ele><time>2013-8-7T8:1:7Z</time></trkpt>
<trkpt lat="46.2697792053223" lon="7.44787263870239"><ele></ele><time>2013-8-7T8:1:10Z</time></trkpt>
<trkpt lat="46.2697944641113" lon="7.4478931427002"><ele></ele><time>2013-8-7T8:1:13Z</time></trkpt>
<trkpt lat="46.2698097229004" lon="7.44791269302368"><ele></ele><time>2013-8-7T8:1:16Z</time></trkpt>
<trkpt lat="46.2698211669922" lon="7.44793462753296"><ele></ele><time>2013-8-7T8:1:19Z</time></trkpt>
<trkpt lat="46.2698364257812" lon="7.44795370101929"><ele></ele><time>2013-8-7T8:1:22Z</time></trkpt>
<trkpt lat="46.2699127197266" lon="7.44802856445312"><ele></ele><time>2013-8-7T8:1:25Z</time></trkpt>
<trkpt lat="46.2699966430664" lon="7.44815874099732"><ele></ele><time>2013-8-7T8:1:28Z</time></trkpt>
<trkpt lat="46.2701301574707" lon="7.4483003616333"><ele></ele><time>2013-8-7T8:1:31Z</time></trkpt>
<trkpt lat="46.2701416015625" lon="7.44832372665405"><ele></ele><time>2013-8-7T8:1:34Z</time></trkpt>
<trkpt lat="46.2701568603516" lon="7.44834327697754"><ele></ele><time>2013-8-7T8:1:37Z</time></trkpt>
<trkpt lat="46.2701683044434" lon="7.44836378097534"><ele></ele><time>2013-8-7T8:1:40Z</time></trkpt>
<trkpt lat="46.2701797485352" lon="7.44838666915894"><ele></ele><time>2013-8-7T8:1:43Z</time></trkpt>
<trkpt lat="46.270191192627" lon="7.44840860366821"><ele></ele><time>2013-8-7T8:1:46Z</time></trkpt>
<trkpt lat="46.2702598571777" lon="7.44852828979492"><ele></ele><time>2013-8-7T8:1:49Z</time></trkpt>
<trkpt lat="46.2702865600586" lon="7.44857263565064"><ele></ele><time>2013-8-7T8:1:52Z</time></trkpt>
<trkpt lat="46.2703018188477" lon="7.4485936164856"><ele></ele><time>2013-8-7T8:1:55Z</time></trkpt>
<trkpt lat="46.2703132629394" lon="7.44861745834351"><ele></ele><time>2013-8-7T8:1:58Z</time></trkpt>
<trkpt lat="46.2703285217285" lon="7.44863986968994"><ele></ele><time>2013-8-7T8:2:1Z</time></trkpt>
<trkpt lat="46.2703437805176" lon="7.44866180419922"><ele></ele><time>2013-8-7T8:2:4Z</time></trkpt>
<trkpt lat="46.2703590393066" lon="7.4486780166626"><ele></ele><time>2013-8-7T8:2:7Z</time></trkpt>
<trkpt lat="46.2703742980957" lon="7.4486927986145"><ele></ele><time>2013-8-7T8:2:10Z</time></trkpt>
<trkpt lat="46.2703971862793" lon="7.44870328903198"><ele></ele><time>2013-8-7T8:2:13Z</time></trkpt>
<trkpt lat="46.2704544067383" lon="7.44869470596314"><ele></ele><time>2013-8-7T8:2:16Z</time></trkpt>
<trkpt lat="46.2704772949219" lon="7.44865226745606"><ele></ele><time>2013-8-7T8:2:19Z</time></trkpt>
<trkpt lat="46.2704772949219" lon="7.4485330581665"><ele></ele><time>2013-8-7T8:2:22Z</time></trkpt>
<trkpt lat="46.2704696655273" lon="7.44850444793701"><ele></ele><time>2013-8-7T8:2:25Z</time></trkpt>
<trkpt lat="46.2703819274902" lon="7.44833564758301"><ele></ele><time>2013-8-7T8:2:28Z</time></trkpt>
<trkpt lat="46.2703056335449" lon="7.44816732406616"><ele></ele><time>2013-8-7T8:2:31Z</time></trkpt>
<trkpt lat="46.2702865600586" lon="7.44811820983887"><ele></ele><time>2013-8-7T8:2:34Z</time></trkpt>
<trkpt lat="46.2702178955078" lon="7.44797945022583"><ele></ele><time>2013-8-7T8:2:37Z</time></trkpt>
<trkpt lat="46.2701568603516" lon="7.44778633117676"><ele></ele><time>2013-8-7T8:2:40Z</time></trkpt>
<trkpt lat="46.2701263427734" lon="7.44761180877686"><ele></ele><time>2013-8-7T8:2:43Z</time></trkpt>
<trkpt lat="46.2701187133789" lon="7.44758558273315"><ele></ele><time>2013-8-7T8:2:46Z</time></trkpt>
<trkpt lat="46.2701148986816" lon="7.4475588798523"><ele></ele><time>2013-8-7T8:2:49Z</time></trkpt>
<trkpt lat="46.2701110839844" lon="7.44754123687744"><ele></ele><time>2013-8-7T8:2:52Z</time></trkpt>
<trkpt lat="46.2701072692871" lon="7.44750833511352"><ele></ele><time>2013-8-7T8:2:55Z</time></trkpt>
<trkpt lat="46.2700881958008" lon="7.44741296768188"><ele></ele><time>2013-8-7T8:2:58Z</time></trkpt>
<trkpt lat="46.2700462341309" lon="7.44718503952026"><ele></ele><time>2013-8-7T8:3:1Z</time></trkpt>
<trkpt lat="46.2700119018555" lon="7.44707345962524"><ele></ele><time>2013-8-7T8:3:4Z</time></trkpt>
<trkpt lat="46.2700042724609" lon="7.44704389572144"><ele></ele><time>2013-8-7T8:3:7Z</time></trkpt>
<trkpt lat="46.2699928283691" lon="7.44701433181763"><ele></ele><time>2013-8-7T8:3:10Z</time></trkpt>
<trkpt lat="46.2699851989746" lon="7.44698190689087"><ele></ele><time>2013-8-7T8:3:13Z</time></trkpt>
<trkpt lat="46.2699813842773" lon="7.44695234298706"><ele></ele><time>2013-8-7T8:3:16Z</time></trkpt>
<trkpt lat="46.2699317932129" lon="7.44685077667236"><ele></ele><time>2013-8-7T8:3:19Z</time></trkpt>
<trkpt lat="46.2698440551758" lon="7.44663715362549"><ele></ele><time>2013-8-7T8:3:22Z</time></trkpt>
<trkpt lat="46.2697830200195" lon="7.44645643234253"><ele></ele><time>2013-8-7T8:3:25Z</time></trkpt>
<trkpt lat="46.269775390625" lon="7.44636583328247"><ele></ele><time>2013-8-7T8:3:28Z</time></trkpt>
<trkpt lat="46.2697792053223" lon="7.44634628295898"><ele></ele><time>2013-8-7T8:3:31Z</time></trkpt>
<trkpt lat="46.2697944641113" lon="7.44632244110107"><ele></ele><time>2013-8-7T8:3:34Z</time></trkpt>
<trkpt lat="46.2698097229004" lon="7.44631576538086"><ele></ele><time>2013-8-7T8:3:37Z</time></trkpt>
<trkpt lat="46.2698249816894" lon="7.44631862640381"><ele></ele><time>2013-8-7T8:3:40Z</time></trkpt>
<trkpt lat="46.2698593139648" lon="7.44635677337646"><ele></ele><time>2013-8-7T8:3:43Z</time></trkpt>
<trkpt lat="46.2699127197266" lon="7.44644594192505"><ele></ele><time>2013-8-7T8:3:46Z</time></trkpt>
<trkpt lat="46.2699584960938" lon="7.44653081893921"><ele></ele><time>2013-8-7T8:3:49Z</time></trkpt>
<trkpt lat="46.2699928283691" lon="7.44657707214356"><ele></ele><time>2013-8-7T8:3:52Z</time></trkpt>
<trkpt lat="46.2700119018555" lon="7.44663524627686"><ele></ele><time>2013-8-7T8:3:55Z</time></trkpt>
<trkpt lat="46.2700233459473" lon="7.44666051864624"><ele></ele><time>2013-8-7T8:3:58Z</time></trkpt>
<trkpt lat="46.2700386047363" lon="7.44668245315552"><ele></ele><time>2013-8-7T8:4:1Z</time></trkpt>
<trkpt lat="46.2700576782227" lon="7.44670248031616"><ele></ele><time>2013-8-7T8:4:4Z</time></trkpt>
<trkpt lat="46.2700729370117" lon="7.44671964645386"><ele></ele><time>2013-8-7T8:4:7Z</time></trkpt>
<trkpt lat="46.270149230957" lon="7.44686555862427"><ele></ele><time>2013-8-7T8:4:10Z</time></trkpt>
<trkpt lat="46.2701988220215" lon="7.44703102111816"><ele></ele><time>2013-8-7T8:4:13Z</time></trkpt>
<trkpt lat="46.2702522277832" lon="7.44718170166016"><ele></ele><time>2013-8-7T8:4:16Z</time></trkpt>
<trkpt lat="46.2702674865723" lon="7.44720935821533"><ele></ele><time>2013-8-7T8:4:19Z</time></trkpt>
<trkpt lat="46.2702827453613" lon="7.44723415374756"><ele></ele><time>2013-8-7T8:4:22Z</time></trkpt>
<trkpt lat="46.2702941894531" lon="7.4472599029541"><ele></ele><time>2013-8-7T8:4:25Z</time></trkpt>
<trkpt lat="46.2703056335449" lon="7.44728469848633"><ele></ele><time>2013-8-7T8:4:28Z</time></trkpt>
<trkpt lat="46.270336151123" lon="7.44732904434204"><ele></ele><time>2013-8-7T8:4:31Z</time></trkpt>
<trkpt lat="46.2704315185547" lon="7.44749593734741"><ele></ele><time>2013-8-7T8:4:34Z</time></trkpt>
<trkpt lat="46.2705345153809" lon="7.44764995574951"><ele></ele><time>2013-8-7T8:4:37Z</time></trkpt>
<trkpt lat="46.2705497741699" lon="7.44766998291016"><ele></ele><time>2013-8-7T8:4:40Z</time></trkpt>
<trkpt lat="46.270565032959" lon="7.4476900100708"><ele></ele><time>2013-8-7T8:4:43Z</time></trkpt>
<trkpt lat="46.270580291748" lon="7.44770669937134"><ele></ele><time>2013-8-7T8:4:46Z</time></trkpt>
<trkpt lat="46.2705993652344" lon="7.44772386550903"><ele></ele><time>2013-8-7T8:4:49Z</time></trkpt>
<trkpt lat="46.2706108093262" lon="7.44774198532104"><ele></ele><time>2013-8-7T8:4:52Z</time></trkpt>
<trkpt lat="46.2706718444824" lon="7.44778060913086"><ele></ele><time>2013-8-7T8:4:55Z</time></trkpt>
<trkpt lat="46.270809173584" lon="7.44788026809692"><ele></ele><time>2013-8-7T8:4:58Z</time></trkpt>
<trkpt lat="46.2708930969238" lon="7.44797897338867"><ele></ele><time>2013-8-7T8:5:1Z</time></trkpt>
<trkpt lat="46.2709083557129" lon="7.44800186157226"><ele></ele><time>2013-8-7T8:5:4Z</time></trkpt>
<trkpt lat="46.2709159851074" lon="7.44802808761597"><ele></ele><time>2013-8-7T8:5:7Z</time></trkpt>
<trkpt lat="46.2709350585938" lon="7.44804620742798"><ele></ele><time>2013-8-7T8:5:10Z</time></trkpt>
<trkpt lat="46.2709426879883" lon="7.44807481765747"><ele></ele><time>2013-8-7T8:5:13Z</time></trkpt>
<trkpt lat="46.2709693908691" lon="7.44811773300171"><ele></ele><time>2013-8-7T8:5:16Z</time></trkpt>
<trkpt lat="46.2710342407227" lon="7.44820928573608"><ele></ele><time>2013-8-7T8:5:19Z</time></trkpt>
<trkpt lat="46.271053314209" lon="7.44823122024536"><ele></ele><time>2013-8-7T8:5:22Z</time></trkpt>
<trkpt lat="46.2710723876953" lon="7.44824886322022"><ele></ele><time>2013-8-7T8:5:25Z</time></trkpt>
<trkpt lat="46.2710914611816" lon="7.44827318191528"><ele></ele><time>2013-8-7T8:5:28Z</time></trkpt>
<trkpt lat="46.2711067199707" lon="7.44829082489014"><ele></ele><time>2013-8-7T8:5:31Z</time></trkpt>
<trkpt lat="46.2711181640625" lon="7.44830751419067"><ele></ele><time>2013-8-7T8:5:34Z</time></trkpt>
<trkpt lat="46.2712249755859" lon="7.44837379455566"><ele></ele><time>2013-8-7T8:5:37Z</time></trkpt>
<trkpt lat="46.2713241577148" lon="7.44840908050537"><ele></ele><time>2013-8-7T8:5:40Z</time></trkpt>
<trkpt lat="46.2713966369629" lon="7.44847297668457"><ele></ele><time>2013-8-7T8:5:43Z</time></trkpt>
<trkpt lat="46.2714042663574" lon="7.44848775863648"><ele></ele><time>2013-8-7T8:5:46Z</time></trkpt>
<trkpt lat="46.2714309692383" lon="7.44850397109985"><ele></ele><time>2013-8-7T8:5:49Z</time></trkpt>
<trkpt lat="46.2714538574219" lon="7.44851970672607"><ele></ele><time>2013-8-7T8:5:52Z</time></trkpt>
<trkpt lat="46.2714958190918" lon="7.44855165481567"><ele></ele><time>2013-8-7T8:5:55Z</time></trkpt>
<trkpt lat="46.2715606689453" lon="7.44861936569214"><ele></ele><time>2013-8-7T8:5:58Z</time></trkpt>
<trkpt lat="46.2715721130371" lon="7.44864559173584"><ele></ele><time>2013-8-7T8:6:1Z</time></trkpt>
<trkpt lat="46.2715950012207" lon="7.44869709014893"><ele></ele><time>2013-8-7T8:6:4Z</time></trkpt>
<trkpt lat="46.2716331481934" lon="7.44876718521118"><ele></ele><time>2013-8-7T8:6:7Z</time></trkpt>
<trkpt lat="46.2716445922852" lon="7.44879055023193"><ele></ele><time>2013-8-7T8:6:10Z</time></trkpt>
<trkpt lat="46.2716598510742" lon="7.44881200790405"><ele></ele><time>2013-8-7T8:6:13Z</time></trkpt>
<trkpt lat="46.271671295166" lon="7.44883489608765"><ele></ele><time>2013-8-7T8:6:16Z</time></trkpt>
<trkpt lat="46.2716865539551" lon="7.4488582611084"><ele></ele><time>2013-8-7T8:6:19Z</time></trkpt>
<trkpt lat="46.2717094421387" lon="7.44890403747559"><ele></ele><time>2013-8-7T8:6:22Z</time></trkpt>
<trkpt lat="46.2717895507812" lon="7.44906663894653"><ele></ele><time>2013-8-7T8:6:25Z</time></trkpt>
<trkpt lat="46.2718315124512" lon="7.44923877716064"><ele></ele><time>2013-8-7T8:6:28Z</time></trkpt>
<trkpt lat="46.271842956543" lon="7.44926500320435"><ele></ele><time>2013-8-7T8:6:31Z</time></trkpt>
<trkpt lat="46.2718467712402" lon="7.44929361343384"><ele></ele><time>2013-8-7T8:6:34Z</time></trkpt>
<trkpt lat="46.2718505859375" lon="7.44932222366333"><ele></ele><time>2013-8-7T8:6:37Z</time></trkpt>
<trkpt lat="46.2718620300293" lon="7.44934844970703"><ele></ele><time>2013-8-7T8:6:40Z</time></trkpt>
<trkpt lat="46.2718849182129" lon="7.44942998886108"><ele></ele><time>2013-8-7T8:6:43Z</time></trkpt>
<trkpt lat="46.271915435791" lon="7.44960641860962"><ele></ele><time>2013-8-7T8:6:46Z</time></trkpt>
<trkpt lat="46.2719230651856" lon="7.449631690979"><ele></ele><time>2013-8-7T8:6:49Z</time></trkpt>
<trkpt lat="46.2719345092773" lon="7.44965267181396"><ele></ele><time>2013-8-7T8:6:52Z</time></trkpt>
<trkpt lat="46.2719497680664" lon="7.44967365264893"><ele></ele><time>2013-8-7T8:6:55Z</time></trkpt>
<trkpt lat="46.2719650268555" lon="7.4496955871582"><ele></ele><time>2013-8-7T8:6:58Z</time></trkpt>
<trkpt lat="46.2719841003418" lon="7.44971752166748"><ele></ele><time>2013-8-7T8:7:1Z</time></trkpt>
<trkpt lat="46.2720108032227" lon="7.44977331161499"><ele></ele><time>2013-8-7T8:7:4Z</time></trkpt>
<trkpt lat="46.272087097168" lon="7.44991779327393"><ele></ele><time>2013-8-7T8:7:7Z</time></trkpt>
<trkpt lat="46.2721748352051" lon="7.4500937461853"><ele></ele><time>2013-8-7T8:7:10Z</time></trkpt>
<trkpt lat="46.2721900939941" lon="7.4501142501831"><ele></ele><time>2013-8-7T8:7:13Z</time></trkpt>
<trkpt lat="46.2721977233887" lon="7.45014524459839"><ele></ele><time>2013-8-7T8:7:16Z</time></trkpt>
<trkpt lat="46.2722129821777" lon="7.45017051696777"><ele></ele><time>2013-8-7T8:7:19Z</time></trkpt>
<trkpt lat="46.2722244262695" lon="7.45019388198852"><ele></ele><time>2013-8-7T8:7:22Z</time></trkpt>
<trkpt lat="46.2722434997559" lon="7.45021343231201"><ele></ele><time>2013-8-7T8:7:25Z</time></trkpt>
<trkpt lat="46.2723236083984" lon="7.45036172866821"><ele></ele><time>2013-8-7T8:7:28Z</time></trkpt>
<trkpt lat="46.2723770141602" lon="7.45045232772827"><ele></ele><time>2013-8-7T8:7:31Z</time></trkpt>
<trkpt lat="46.2723922729492" lon="7.45047903060913"><ele></ele><time>2013-8-7T8:7:34Z</time></trkpt>
<trkpt lat="46.2724075317383" lon="7.45050048828125"><ele></ele><time>2013-8-7T8:7:37Z</time></trkpt>
<trkpt lat="46.2724227905273" lon="7.45052480697632"><ele></ele><time>2013-8-7T8:7:40Z</time></trkpt>
<trkpt lat="46.2724380493164" lon="7.4505443572998"><ele></ele><time>2013-8-7T8:7:43Z</time></trkpt>
<trkpt lat="46.2724990844727" lon="7.45063924789429"><ele></ele><time>2013-8-7T8:7:46Z</time></trkpt>
<trkpt lat="46.2726058959961" lon="7.45079231262207"><ele></ele><time>2013-8-7T8:7:49Z</time></trkpt>
<trkpt lat="46.2726211547852" lon="7.4508171081543"><ele></ele><time>2013-8-7T8:7:52Z</time></trkpt>
<trkpt lat="46.2726821899414" lon="7.45091342926025"><ele></ele><time>2013-8-7T8:7:55Z</time></trkpt>
<trkpt lat="46.2726936340332" lon="7.45093679428101"><ele></ele><time>2013-8-7T8:7:58Z</time></trkpt>
<trkpt lat="46.272705078125" lon="7.45095586776733"><ele></ele><time>2013-8-7T8:8:1Z</time></trkpt>
<trkpt lat="46.2727165222168" lon="7.45098114013672"><ele></ele><time>2013-8-7T8:8:4Z</time></trkpt>
<trkpt lat="46.2727317810059" lon="7.451003074646"><ele></ele><time>2013-8-7T8:8:7Z</time></trkpt>
<trkpt lat="46.2728042602539" lon="7.45111560821533"><ele></ele><time>2013-8-7T8:8:10Z</time></trkpt>
<trkpt lat="46.2728843688965" lon="7.45130968093872"><ele></ele><time>2013-8-7T8:8:13Z</time></trkpt>
<trkpt lat="46.2729263305664" lon="7.45146179199219"><ele></ele><time>2013-8-7T8:8:16Z</time></trkpt>
<trkpt lat="46.2729339599609" lon="7.45149230957031"><ele></ele><time>2013-8-7T8:8:19Z</time></trkpt>
<trkpt lat="46.2729454040527" lon="7.45152044296265"><ele></ele><time>2013-8-7T8:8:22Z</time></trkpt>
<trkpt lat="46.2729530334473" lon="7.45154762268066"><ele></ele><time>2013-8-7T8:8:25Z</time></trkpt>
<trkpt lat="46.2729606628418" lon="7.451575756073"><ele></ele><time>2013-8-7T8:8:28Z</time></trkpt>
<trkpt lat="46.2729873657227" lon="7.45166110992432"><ele></ele><time>2013-8-7T8:8:31Z</time></trkpt>
<trkpt lat="46.2730293273926" lon="7.45186853408814"><ele></ele><time>2013-8-7T8:8:34Z</time></trkpt>
<trkpt lat="46.2730369567871" lon="7.45189714431763"><ele></ele><time>2013-8-7T8:8:37Z</time></trkpt>
<trkpt lat="46.2730484008789" lon="7.45192384719849"><ele></ele><time>2013-8-7T8:8:40Z</time></trkpt>
<trkpt lat="46.2730560302734" lon="7.4519534111023"><ele></ele><time>2013-8-7T8:8:43Z</time></trkpt>
<trkpt lat="46.273063659668" lon="7.45198440551758"><ele></ele><time>2013-8-7T8:8:46Z</time></trkpt>
<trkpt lat="46.2730751037598" lon="7.4520149230957"><ele></ele><time>2013-8-7T8:8:49Z</time></trkpt>
<trkpt lat="46.2730903625488" lon="7.45207357406616"><ele></ele><time>2013-8-7T8:8:52Z</time></trkpt>
<trkpt lat="46.2731590270996" lon="7.45231437683106"><ele></ele><time>2013-8-7T8:8:55Z</time></trkpt>
<trkpt lat="46.2732086181641" lon="7.45241689682007"><ele></ele><time>2013-8-7T8:8:58Z</time></trkpt>
<trkpt lat="46.2732238769531" lon="7.4524393081665"><ele></ele><time>2013-8-7T8:9:1Z</time></trkpt>
<trkpt lat="46.2732353210449" lon="7.45246267318726"><ele></ele><time>2013-8-7T8:9:4Z</time></trkpt>
<trkpt lat="46.273250579834" lon="7.45248508453369"><ele></ele><time>2013-8-7T8:9:7Z</time></trkpt>
<trkpt lat="46.273265838623" lon="7.45250749588013"><ele></ele><time>2013-8-7T8:9:10Z</time></trkpt>
<trkpt lat="46.2732772827148" lon="7.45252895355225"><ele></ele><time>2013-8-7T8:9:13Z</time></trkpt>
<trkpt lat="46.273380279541" lon="7.45266962051392"><ele></ele><time>2013-8-7T8:9:16Z</time></trkpt>
<trkpt lat="46.2734756469727" lon="7.4527997970581"><ele></ele><time>2013-8-7T8:9:19Z</time></trkpt>
<trkpt lat="46.2734870910644" lon="7.45282459259033"><ele></ele><time>2013-8-7T8:9:22Z</time></trkpt>
<trkpt lat="46.2735023498535" lon="7.45284223556518"><ele></ele><time>2013-8-7T8:9:25Z</time></trkpt>
<trkpt lat="46.2735176086426" lon="7.45286130905151"><ele></ele><time>2013-8-7T8:9:28Z</time></trkpt>
<trkpt lat="46.2736167907715" lon="7.4530177116394"><ele></ele><time>2013-8-7T8:9:31Z</time></trkpt>
<trkpt lat="46.273681640625" lon="7.45310258865356"><ele></ele><time>2013-8-7T8:9:34Z</time></trkpt>
<trkpt lat="46.2736930847168" lon="7.45312833786011"><ele></ele><time>2013-8-7T8:9:37Z</time></trkpt>
<trkpt lat="46.2737083435059" lon="7.45314884185791"><ele></ele><time>2013-8-7T8:9:40Z</time></trkpt>
<trkpt lat="46.2737236022949" lon="7.45316982269287"><ele></ele><time>2013-8-7T8:9:43Z</time></trkpt>
<trkpt lat="46.2737426757812" lon="7.45318841934204"><ele></ele><time>2013-8-7T8:9:46Z</time></trkpt>
<trkpt lat="46.2738609313965" lon="7.45336198806763"><ele></ele><time>2013-8-7T8:9:49Z</time></trkpt>
<trkpt lat="46.2738800048828" lon="7.45337820053101"><ele></ele><time>2013-8-7T8:9:52Z</time></trkpt>
<trkpt lat="46.2738990783691" lon="7.45340204238892"><ele></ele><time>2013-8-7T8:9:55Z</time></trkpt>
<trkpt lat="46.2739143371582" lon="7.45342588424683"><ele></ele><time>2013-8-7T8:9:58Z</time></trkpt>
<trkpt lat="46.2739295959473" lon="7.45344400405884"><ele></ele><time>2013-8-7T8:10:1Z</time></trkpt>
<trkpt lat="46.2739677429199" lon="7.45348072052002"><ele></ele><time>2013-8-7T8:10:4Z</time></trkpt>
<trkpt lat="46.2741088867188" lon="7.45358943939209"><ele></ele><time>2013-8-7T8:10:7Z</time></trkpt>
<trkpt lat="46.2742309570312" lon="7.45365285873413"><ele></ele><time>2013-8-7T8:10:10Z</time></trkpt>
<trkpt lat="46.2742538452148" lon="7.45366144180298"><ele></ele><time>2013-8-7T8:10:13Z</time></trkpt>
<trkpt lat="46.2742729187012" lon="7.45366382598877"><ele></ele><time>2013-8-7T8:10:16Z</time></trkpt>
<trkpt lat="46.274299621582" lon="7.45367288589478"><ele></ele><time>2013-8-7T8:10:19Z</time></trkpt>
<trkpt lat="46.2743225097656" lon="7.45368146896362"><ele></ele><time>2013-8-7T8:10:22Z</time></trkpt>
<trkpt lat="46.2744636535644" lon="7.45373439788818"><ele></ele><time>2013-8-7T8:10:25Z</time></trkpt>
<trkpt lat="46.2746505737305" lon="7.45381307601929"><ele></ele><time>2013-8-7T8:10:28Z</time></trkpt>
<trkpt lat="46.2747116088867" lon="7.45384502410889"><ele></ele><time>2013-8-7T8:10:31Z</time></trkpt>
<trkpt lat="46.2747344970703" lon="7.45385599136352"><ele></ele><time>2013-8-7T8:10:34Z</time></trkpt>
<trkpt lat="46.2747573852539" lon="7.45386695861816"><ele></ele><time>2013-8-7T8:10:37Z</time></trkpt>
<trkpt lat="46.2747764587402" lon="7.45388221740723"><ele></ele><time>2013-8-7T8:10:40Z</time></trkpt>
<trkpt lat="46.2747993469238" lon="7.45389604568482"><ele></ele><time>2013-8-7T8:10:43Z</time></trkpt>
<trkpt lat="46.274959564209" lon="7.4539909362793"><ele></ele><time>2013-8-7T8:10:46Z</time></trkpt>
<trkpt lat="46.2750396728516" lon="7.45406436920166"><ele></ele><time>2013-8-7T8:10:49Z</time></trkpt>
<trkpt lat="46.2750587463379" lon="7.45407962799072"><ele></ele><time>2013-8-7T8:10:52Z</time></trkpt>
<trkpt lat="46.2750778198242" lon="7.45409774780274"><ele></ele><time>2013-8-7T8:10:55Z</time></trkpt>
<trkpt lat="46.2750930786133" lon="7.45411682128906"><ele></ele><time>2013-8-7T8:10:58Z</time></trkpt>
<trkpt lat="46.2751121520996" lon="7.45413541793823"><ele></ele><time>2013-8-7T8:11:1Z</time></trkpt>
<trkpt lat="46.2752418518066" lon="7.45428276062012"><ele></ele><time>2013-8-7T8:11:4Z</time></trkpt>
<trkpt lat="46.2753639221191" lon="7.45442247390747"><ele></ele><time>2013-8-7T8:11:7Z</time></trkpt>
<trkpt lat="46.2753791809082" lon="7.45444393157959"><ele></ele><time>2013-8-7T8:11:10Z</time></trkpt>
<trkpt lat="46.2753982543945" lon="7.45446348190308"><ele></ele><time>2013-8-7T8:11:13Z</time></trkpt>
<trkpt lat="46.2754135131836" lon="7.45448446273804"><ele></ele><time>2013-8-7T8:11:16Z</time></trkpt>
<trkpt lat="46.2755126953125" lon="7.45461273193359"><ele></ele><time>2013-8-7T8:11:19Z</time></trkpt>
<trkpt lat="46.2756080627441" lon="7.45474624633789"><ele></ele><time>2013-8-7T8:11:22Z</time></trkpt>
<trkpt lat="46.2757110595703" lon="7.45486974716186"><ele></ele><time>2013-8-7T8:11:25Z</time></trkpt>
<trkpt lat="46.2757263183594" lon="7.45488882064819"><ele></ele><time>2013-8-7T8:11:28Z</time></trkpt>
<trkpt lat="46.275749206543" lon="7.4549069404602"><ele></ele><time>2013-8-7T8:11:31Z</time></trkpt>
<trkpt lat="46.275764465332" lon="7.45492649078369"><ele></ele><time>2013-8-7T8:11:34Z</time></trkpt>
<trkpt lat="46.2757797241211" lon="7.45494985580444"><ele></ele><time>2013-8-7T8:11:37Z</time></trkpt>
<trkpt lat="46.2759132385254" lon="7.455078125"><ele></ele><time>2013-8-7T8:11:40Z</time></trkpt>
<trkpt lat="46.2760276794434" lon="7.45518922805786"><ele></ele><time>2013-8-7T8:11:43Z</time></trkpt>
<trkpt lat="46.2761383056641" lon="7.45534229278564"><ele></ele><time>2013-8-7T8:11:46Z</time></trkpt>
<trkpt lat="46.2761611938477" lon="7.45538282394409"><ele></ele><time>2013-8-7T8:11:49Z</time></trkpt>
<trkpt lat="46.2761726379394" lon="7.45540428161621"><ele></ele><time>2013-8-7T8:11:52Z</time></trkpt>
<trkpt lat="46.2761878967285" lon="7.45542573928833"><ele></ele><time>2013-8-7T8:11:55Z</time></trkpt>
<trkpt lat="46.2761993408203" lon="7.45544672012329"><ele></ele><time>2013-8-7T8:11:58Z</time></trkpt>
<trkpt lat="46.276252746582" lon="7.45552825927734"><ele></ele><time>2013-8-7T8:12:1Z</time></trkpt>
<trkpt lat="46.2763557434082" lon="7.45567846298218"><ele></ele><time>2013-8-7T8:12:4Z</time></trkpt>
<trkpt lat="46.2764587402344" lon="7.455810546875"><ele></ele><time>2013-8-7T8:12:7Z</time></trkpt>
<trkpt lat="46.2764739990234" lon="7.45584058761597"><ele></ele><time>2013-8-7T8:12:10Z</time></trkpt>
<trkpt lat="46.276481628418" lon="7.45587635040283"><ele></ele><time>2013-8-7T8:12:13Z</time></trkpt>
<trkpt lat="46.2764854431152" lon="7.45590829849243"><ele></ele><time>2013-8-7T8:12:16Z</time></trkpt>
<trkpt lat="46.2764930725098" lon="7.4559473991394"><ele></ele><time>2013-8-7T8:12:19Z</time></trkpt>
<trkpt lat="46.2765121459961" lon="7.4560227394104"><ele></ele><time>2013-8-7T8:12:22Z</time></trkpt>
<trkpt lat="46.2765769958496" lon="7.45619201660156"><ele></ele><time>2013-8-7T8:12:25Z</time></trkpt>
<trkpt lat="46.2766036987305" lon="7.45624876022339"><ele></ele><time>2013-8-7T8:12:28Z</time></trkpt>
<trkpt lat="46.2766189575195" lon="7.45627450942993"><ele></ele><time>2013-8-7T8:12:31Z</time></trkpt>
<trkpt lat="46.2766304016113" lon="7.45629739761352"><ele></ele><time>2013-8-7T8:12:34Z</time></trkpt>
<trkpt lat="46.2766418457031" lon="7.45631837844849"><ele></ele><time>2013-8-7T8:12:37Z</time></trkpt>
<trkpt lat="46.2766532897949" lon="7.45634460449219"><ele></ele><time>2013-8-7T8:12:40Z</time></trkpt>
<trkpt lat="46.2766876220703" lon="7.45639181137085"><ele></ele><time>2013-8-7T8:12:43Z</time></trkpt>
<trkpt lat="46.2768211364746" lon="7.45658111572266"><ele></ele><time>2013-8-7T8:12:46Z</time></trkpt>
<trkpt lat="46.2769012451172" lon="7.4566855430603"><ele></ele><time>2013-8-7T8:12:49Z</time></trkpt>
<trkpt lat="46.2769165039062" lon="7.45670890808106"><ele></ele><time>2013-8-7T8:12:52Z</time></trkpt>
<trkpt lat="46.2769317626953" lon="7.4567289352417"><ele></ele><time>2013-8-7T8:12:55Z</time></trkpt>
<trkpt lat="46.2769470214844" lon="7.45675325393677"><ele></ele><time>2013-8-7T8:12:58Z</time></trkpt>
<trkpt lat="46.2769660949707" lon="7.45677661895752"><ele></ele><time>2013-8-7T8:13:1Z</time></trkpt>
<trkpt lat="46.2770538330078" lon="7.45688629150391"><ele></ele><time>2013-8-7T8:13:4Z</time></trkpt>
<trkpt lat="46.2771987915039" lon="7.45708322525024"><ele></ele><time>2013-8-7T8:13:7Z</time></trkpt>
<trkpt lat="46.277214050293" lon="7.45710515975952"><ele></ele><time>2013-8-7T8:13:10Z</time></trkpt>
<trkpt lat="46.277229309082" lon="7.45712947845459"><ele></ele><time>2013-8-7T8:13:13Z</time></trkpt>
<trkpt lat="46.2772483825684" lon="7.45715045928955"><ele></ele><time>2013-8-7T8:13:16Z</time></trkpt>
<trkpt lat="46.2772636413574" lon="7.45717430114746"><ele></ele><time>2013-8-7T8:13:19Z</time></trkpt>
<trkpt lat="46.2772827148438" lon="7.45719480514526"><ele></ele><time>2013-8-7T8:13:22Z</time></trkpt>
<trkpt lat="46.2773132324219" lon="7.45724534988403"><ele></ele><time>2013-8-7T8:13:25Z</time></trkpt>
<trkpt lat="46.2774620056152" lon="7.45743179321289"><ele></ele><time>2013-8-7T8:13:28Z</time></trkpt>
<trkpt lat="46.2774810791016" lon="7.45745754241943"><ele></ele><time>2013-8-7T8:13:31Z</time></trkpt>
<trkpt lat="46.2774963378906" lon="7.45748424530029"><ele></ele><time>2013-8-7T8:13:34Z</time></trkpt>
<trkpt lat="46.277515411377" lon="7.45750379562378"><ele></ele><time>2013-8-7T8:13:37Z</time></trkpt>
<trkpt lat="46.277530670166" lon="7.45752811431885"><ele></ele><time>2013-8-7T8:13:40Z</time></trkpt>
<trkpt lat="46.2775459289551" lon="7.45755386352539"><ele></ele><time>2013-8-7T8:13:43Z</time></trkpt>
<trkpt lat="46.2775726318359" lon="7.45760250091553"><ele></ele><time>2013-8-7T8:13:46Z</time></trkpt>
<trkpt lat="46.2776870727539" lon="7.45786380767822"><ele></ele><time>2013-8-7T8:13:49Z</time></trkpt>
<trkpt lat="46.2777061462402" lon="7.45792484283447"><ele></ele><time>2013-8-7T8:13:52Z</time></trkpt>
<trkpt lat="46.277717590332" lon="7.45795917510986"><ele></ele><time>2013-8-7T8:13:55Z</time></trkpt>
<trkpt lat="46.2777290344238" lon="7.45799160003662"><ele></ele><time>2013-8-7T8:13:58Z</time></trkpt>
<trkpt lat="46.2777366638184" lon="7.45802640914917"><ele></ele><time>2013-8-7T8:14:1Z</time></trkpt>
<trkpt lat="46.2777481079102" lon="7.45806312561035"><ele></ele><time>2013-8-7T8:14:4Z</time></trkpt>
<trkpt lat="46.2777671813965" lon="7.45813417434692"><ele></ele><time>2013-8-7T8:14:7Z</time></trkpt>
<trkpt lat="46.2778015136719" lon="7.45834541320801"><ele></ele><time>2013-8-7T8:14:10Z</time></trkpt>
<trkpt lat="46.2778434753418" lon="7.45845127105713"><ele></ele><time>2013-8-7T8:14:13Z</time></trkpt>
<trkpt lat="46.2778816223144" lon="7.4584789276123"><ele></ele><time>2013-8-7T8:14:16Z</time></trkpt>
<trkpt lat="46.277904510498" lon="7.4584755897522"><ele></ele><time>2013-8-7T8:14:19Z</time></trkpt>
<trkpt lat="46.2779273986816" lon="7.45846652984619"><ele></ele><time>2013-8-7T8:14:22Z</time></trkpt>
<trkpt lat="46.2779502868652" lon="7.45845079421997"><ele></ele><time>2013-8-7T8:14:25Z</time></trkpt>
<trkpt lat="46.2779655456543" lon="7.45842838287354"><ele></ele><time>2013-8-7T8:14:28Z</time></trkpt>
<trkpt lat="46.2779846191406" lon="7.45827150344849"><ele></ele><time>2013-8-7T8:14:31Z</time></trkpt>
<trkpt lat="46.2779846191406" lon="7.45823240280151"><ele></ele><time>2013-8-7T8:14:34Z</time></trkpt>
<trkpt lat="46.2779579162598" lon="7.45798826217651"><ele></ele><time>2013-8-7T8:14:37Z</time></trkpt>
<trkpt lat="46.277904510498" lon="7.45778703689575"><ele></ele><time>2013-8-7T8:14:40Z</time></trkpt>
<trkpt lat="46.27783203125" lon="7.45755481719971"><ele></ele><time>2013-8-7T8:14:43Z</time></trkpt>
<trkpt lat="46.2778167724609" lon="7.4574875831604"><ele></ele><time>2013-8-7T8:14:46Z</time></trkpt>
<trkpt lat="46.2778091430664" lon="7.45745515823364"><ele></ele><time>2013-8-7T8:14:49Z</time></trkpt>
<trkpt lat="46.2777976989746" lon="7.45742559432983"><ele></ele><time>2013-8-7T8:14:52Z</time></trkpt>
<trkpt lat="46.2777824401856" lon="7.45740127563476"><ele></ele><time>2013-8-7T8:14:55Z</time></trkpt>
<trkpt lat="46.277774810791" lon="7.4573655128479"><ele></ele><time>2013-8-7T8:14:58Z</time></trkpt>
<trkpt lat="46.2777671813965" lon="7.45733451843262"><ele></ele><time>2013-8-7T8:15:1Z</time></trkpt>
<trkpt lat="46.2777137756348" lon="7.45706367492676"><ele></ele><time>2013-8-7T8:15:4Z</time></trkpt>
<trkpt lat="46.2776832580566" lon="7.45697450637817"><ele></ele><time>2013-8-7T8:15:7Z</time></trkpt>
<trkpt lat="46.2776756286621" lon="7.45694446563721"><ele></ele><time>2013-8-7T8:15:10Z</time></trkpt>
<trkpt lat="46.2776718139648" lon="7.45690822601318"><ele></ele><time>2013-8-7T8:15:13Z</time></trkpt>
<trkpt lat="46.277660369873" lon="7.45687580108643"><ele></ele><time>2013-8-7T8:15:16Z</time></trkpt>
<trkpt lat="46.2776527404785" lon="7.4568452835083"><ele></ele><time>2013-8-7T8:15:19Z</time></trkpt>
<trkpt lat="46.2775840759277" lon="7.45671367645264"><ele></ele><time>2013-8-7T8:15:22Z</time></trkpt>
<trkpt lat="46.2774925231934" lon="7.4565634727478"><ele></ele><time>2013-8-7T8:15:25Z</time></trkpt>
<trkpt lat="46.2774810791016" lon="7.45653390884399"><ele></ele><time>2013-8-7T8:15:28Z</time></trkpt>
<trkpt lat="46.277416229248" lon="7.45640087127686"><ele></ele><time>2013-8-7T8:15:31Z</time></trkpt>
<trkpt lat="46.2773971557617" lon="7.45637702941894"><ele></ele><time>2013-8-7T8:15:34Z</time></trkpt>
<trkpt lat="46.2773818969727" lon="7.45635080337524"><ele></ele><time>2013-8-7T8:15:37Z</time></trkpt>
<trkpt lat="46.2773666381836" lon="7.45632123947144"><ele></ele><time>2013-8-7T8:15:40Z</time></trkpt>
<trkpt lat="46.2773551940918" lon="7.45629644393921"><ele></ele><time>2013-8-7T8:15:43Z</time></trkpt>
<trkpt lat="46.277286529541" lon="7.45616579055786"><ele></ele><time>2013-8-7T8:15:46Z</time></trkpt>
<trkpt lat="46.2772407531738" lon="7.45605182647705"><ele></ele><time>2013-8-7T8:15:49Z</time></trkpt>
<trkpt lat="46.2772331237793" lon="7.45602416992188"><ele></ele><time>2013-8-7T8:15:52Z</time></trkpt>
<trkpt lat="46.2772178649902" lon="7.45599842071533"><ele></ele><time>2013-8-7T8:15:55Z</time></trkpt>
<trkpt lat="46.2772102355957" lon="7.45597076416016"><ele></ele><time>2013-8-7T8:15:58Z</time></trkpt>
<trkpt lat="46.2771987915039" lon="7.45594453811646"><ele></ele><time>2013-8-7T8:16:1Z</time></trkpt>
<trkpt lat="46.2771301269531" lon="7.45574378967285"><ele></ele><time>2013-8-7T8:16:4Z</time></trkpt>
<trkpt lat="46.2770881652832" lon="7.45556545257568"><ele></ele><time>2013-8-7T8:16:7Z</time></trkpt>
<trkpt lat="46.2770652770996" lon="7.45546340942383"><ele></ele><time>2013-8-7T8:16:10Z</time></trkpt>
<trkpt lat="46.2770652770996" lon="7.45543050765991"><ele></ele><time>2013-8-7T8:16:13Z</time></trkpt>
<trkpt lat="46.2770576477051" lon="7.45539617538452"><ele></ele><time>2013-8-7T8:16:16Z</time></trkpt>
<trkpt lat="46.2770538330078" lon="7.45536422729492"><ele></ele><time>2013-8-7T8:16:19Z</time></trkpt>
<trkpt lat="46.277042388916" lon="7.45529651641846"><ele></ele><time>2013-8-7T8:16:22Z</time></trkpt>
<trkpt lat="46.2770347595215" lon="7.45509624481201"><ele></ele><time>2013-8-7T8:16:25Z</time></trkpt>
<trkpt lat="46.2770195007324" lon="7.45484685897827"><ele></ele><time>2013-8-7T8:16:28Z</time></trkpt>
<trkpt lat="46.2770118713379" lon="7.45481777191162"><ele></ele><time>2013-8-7T8:16:31Z</time></trkpt>
<trkpt lat="46.2770080566406" lon="7.45479154586792"><ele></ele><time>2013-8-7T8:16:34Z</time></trkpt>
<trkpt lat="46.2770080566406" lon="7.45475816726685"><ele></ele><time>2013-8-7T8:16:37Z</time></trkpt>
<trkpt lat="46.2770080566406" lon="7.45472526550293"><ele></ele><time>2013-8-7T8:16:40Z</time></trkpt>
<trkpt lat="46.2770080566406" lon="7.45462989807129"><ele></ele><time>2013-8-7T8:16:43Z</time></trkpt>
<trkpt lat="46.2769927978516" lon="7.454430103302"><ele></ele><time>2013-8-7T8:16:46Z</time></trkpt>
<trkpt lat="46.2769775390625" lon="7.45433282852173"><ele></ele><time>2013-8-7T8:16:49Z</time></trkpt>
<trkpt lat="46.2769660949707" lon="7.45430088043213"><ele></ele><time>2013-8-7T8:16:52Z</time></trkpt>
<trkpt lat="46.2769584655762" lon="7.45427227020264"><ele></ele><time>2013-8-7T8:16:55Z</time></trkpt>
<trkpt lat="46.2769546508789" lon="7.45424175262451"><ele></ele><time>2013-8-7T8:16:58Z</time></trkpt>
<trkpt lat="46.2769470214844" lon="7.45420980453491"><ele></ele><time>2013-8-7T8:17:1Z</time></trkpt>
<trkpt lat="46.2768936157227" lon="7.45395040512085"><ele></ele><time>2013-8-7T8:17:4Z</time></trkpt>
<trkpt lat="46.2768249511719" lon="7.45370578765869"><ele></ele><time>2013-8-7T8:17:7Z</time></trkpt>
<trkpt lat="46.2768173217773" lon="7.45367670059204"><ele></ele><time>2013-8-7T8:17:10Z</time></trkpt>
<trkpt lat="46.2768096923828" lon="7.45364189147949"><ele></ele><time>2013-8-7T8:17:13Z</time></trkpt>
<trkpt lat="46.2768020629883" lon="7.45361137390137"><ele></ele><time>2013-8-7T8:17:16Z</time></trkpt>
<trkpt lat="46.2767944335938" lon="7.45357990264893"><ele></ele><time>2013-8-7T8:17:19Z</time></trkpt>
<trkpt lat="46.2767639160156" lon="7.45346307754517"><ele></ele><time>2013-8-7T8:17:22Z</time></trkpt>
<trkpt lat="46.2767105102539" lon="7.45328617095947"><ele></ele><time>2013-8-7T8:17:25Z</time></trkpt>
<trkpt lat="46.276683807373" lon="7.45319271087646"><ele></ele><time>2013-8-7T8:17:28Z</time></trkpt>
<trkpt lat="46.2766761779785" lon="7.45315837860107"><ele></ele><time>2013-8-7T8:17:31Z</time></trkpt>
<trkpt lat="46.276668548584" lon="7.45312547683716"><ele></ele><time>2013-8-7T8:17:34Z</time></trkpt>
<trkpt lat="46.2766571044922" lon="7.45309019088745"><ele></ele><time>2013-8-7T8:17:37Z</time></trkpt>
<trkpt lat="46.2766380310059" lon="7.45302581787109"><ele></ele><time>2013-8-7T8:17:40Z</time></trkpt>
<trkpt lat="46.2765693664551" lon="7.45276784896851"><ele></ele><time>2013-8-7T8:17:43Z</time></trkpt>
<trkpt lat="46.276538848877" lon="7.4526834487915"><ele></ele><time>2013-8-7T8:17:46Z</time></trkpt>
<trkpt lat="46.2765235900879" lon="7.45265245437622"><ele></ele><time>2013-8-7T8:17:49Z</time></trkpt>
<trkpt lat="46.2765083312988" lon="7.45262336730957"><ele></ele><time>2013-8-7T8:17:52Z</time></trkpt>
<trkpt lat="46.276496887207" lon="7.45259666442871"><ele></ele><time>2013-8-7T8:17:55Z</time></trkpt>
<trkpt lat="46.2764854431152" lon="7.45256900787354"><ele></ele><time>2013-8-7T8:17:58Z</time></trkpt>
<trkpt lat="46.2763977050781" lon="7.45242834091186"><ele></ele><time>2013-8-7T8:18:1Z</time></trkpt>
<trkpt lat="46.2763290405273" lon="7.45229625701904"><ele></ele><time>2013-8-7T8:18:4Z</time></trkpt>
<trkpt lat="46.2763137817383" lon="7.45227146148682"><ele></ele><time>2013-8-7T8:18:7Z</time></trkpt>
<trkpt lat="46.2762985229492" lon="7.45224857330322"><ele></ele><time>2013-8-7T8:18:10Z</time></trkpt>
<trkpt lat="46.2762870788574" lon="7.45222663879394"><ele></ele><time>2013-8-7T8:18:13Z</time></trkpt>
<trkpt lat="46.2762718200684" lon="7.45220470428467"><ele></ele><time>2013-8-7T8:18:16Z</time></trkpt>
<trkpt lat="46.2761688232422" lon="7.45202207565308"><ele></ele><time>2013-8-7T8:18:19Z</time></trkpt>
<trkpt lat="46.2761192321777" lon="7.45193862915039"><ele></ele><time>2013-8-7T8:18:22Z</time></trkpt>
<trkpt lat="46.2760810852051" lon="7.4518895149231"><ele></ele><time>2013-8-7T8:18:25Z</time></trkpt>
<trkpt lat="46.276065826416" lon="7.4518666267395"><ele></ele><time>2013-8-7T8:18:28Z</time></trkpt>
<trkpt lat="46.2760467529297" lon="7.45184516906738"><ele></ele><time>2013-8-7T8:18:31Z</time></trkpt>
<trkpt lat="46.2760276794434" lon="7.45182418823242"><ele></ele><time>2013-8-7T8:18:34Z</time></trkpt>
<trkpt lat="46.2760124206543" lon="7.45180177688599"><ele></ele><time>2013-8-7T8:18:37Z</time></trkpt>
<trkpt lat="46.2759590148926" lon="7.45172548294067"><ele></ele><time>2013-8-7T8:18:40Z</time></trkpt>
<trkpt lat="46.2758483886719" lon="7.45157194137573"><ele></ele><time>2013-8-7T8:18:43Z</time></trkpt>
<trkpt lat="46.2758293151856" lon="7.45155000686646"><ele></ele><time>2013-8-7T8:18:46Z</time></trkpt>
<trkpt lat="46.275749206543" lon="7.45143699645996"><ele></ele><time>2013-8-7T8:18:49Z</time></trkpt>
<trkpt lat="46.2757339477539" lon="7.45141220092774"><ele></ele><time>2013-8-7T8:18:52Z</time></trkpt>
<trkpt lat="46.2757186889648" lon="7.45138835906982"><ele></ele><time>2013-8-7T8:18:55Z</time></trkpt>
<trkpt lat="46.2757034301758" lon="7.4513635635376"><ele></ele><time>2013-8-7T8:18:58Z</time></trkpt>
<trkpt lat="46.2756881713867" lon="7.45133829116821"><ele></ele><time>2013-8-7T8:19:1Z</time></trkpt>
<trkpt lat="46.275562286377" lon="7.45113658905029"><ele></ele><time>2013-8-7T8:19:4Z</time></trkpt>
<trkpt lat="46.2755470275879" lon="7.45111227035522"><ele></ele><time>2013-8-7T8:19:7Z</time></trkpt>
<trkpt lat="46.2755355834961" lon="7.45108652114868"><ele></ele><time>2013-8-7T8:19:10Z</time></trkpt>
<trkpt lat="46.2755241394043" lon="7.45106172561646"><ele></ele><time>2013-8-7T8:19:13Z</time></trkpt>
<trkpt lat="46.2755088806152" lon="7.45103883743286"><ele></ele><time>2013-8-7T8:19:16Z</time></trkpt>
<trkpt lat="46.2754249572754" lon="7.45091676712036"><ele></ele><time>2013-8-7T8:19:19Z</time></trkpt>
<trkpt lat="46.2753295898438" lon="7.45078659057617"><ele></ele><time>2013-8-7T8:19:22Z</time></trkpt>
<trkpt lat="46.2752647399902" lon="7.45070219039917"><ele></ele><time>2013-8-7T8:19:25Z</time></trkpt>
<trkpt lat="46.2752456665039" lon="7.45068407058716"><ele></ele><time>2013-8-7T8:19:28Z</time></trkpt>
<trkpt lat="46.2752304077148" lon="7.45066738128662"><ele></ele><time>2013-8-7T8:19:31Z</time></trkpt>
<trkpt lat="46.2752151489258" lon="7.45064735412598"><ele></ele><time>2013-8-7T8:19:34Z</time></trkpt>
<trkpt lat="46.2751998901367" lon="7.45062780380249"><ele></ele><time>2013-8-7T8:19:37Z</time></trkpt>
<trkpt lat="46.275089263916" lon="7.45048236846924"><ele></ele><time>2013-8-7T8:19:40Z</time></trkpt>
<trkpt lat="46.2750473022461" lon="7.45042037963867"><ele></ele><time>2013-8-7T8:19:43Z</time></trkpt>
<trkpt lat="46.2750358581543" lon="7.4503984451294"><ele></ele><time>2013-8-7T8:19:46Z</time></trkpt>
<trkpt lat="46.2750205993652" lon="7.45037460327148"><ele></ele><time>2013-8-7T8:19:49Z</time></trkpt>
<trkpt lat="46.2750091552734" lon="7.4503493309021"><ele></ele><time>2013-8-7T8:19:52Z</time></trkpt>
<trkpt lat="46.2749977111816" lon="7.45032835006714"><ele></ele><time>2013-8-7T8:19:55Z</time></trkpt>
<trkpt lat="46.2749862670898" lon="7.45030689239502"><ele></ele><time>2013-8-7T8:19:58Z</time></trkpt>
<trkpt lat="46.2748947143555" lon="7.45013809204102"><ele></ele><time>2013-8-7T8:20:1Z</time></trkpt>
<trkpt lat="46.2748603820801" lon="7.45005035400391"><ele></ele><time>2013-8-7T8:20:4Z</time></trkpt>
<trkpt lat="46.274845123291" lon="7.45001888275146"><ele></ele><time>2013-8-7T8:20:7Z</time></trkpt>
<trkpt lat="46.274829864502" lon="7.44999074935913"><ele></ele><time>2013-8-7T8:20:10Z</time></trkpt>
<trkpt lat="46.2748107910156" lon="7.44995927810669"><ele></ele><time>2013-8-7T8:20:13Z</time></trkpt>
<trkpt lat="46.2747955322266" lon="7.44993209838867"><ele></ele><time>2013-8-7T8:20:16Z</time></trkpt>
<trkpt lat="46.2747192382812" lon="7.44975471496582"><ele></ele><time>2013-8-7T8:20:19Z</time></trkpt>
<trkpt lat="46.2746963500977" lon="7.44970655441284"><ele></ele><time>2013-8-7T8:20:22Z</time></trkpt>
<trkpt lat="46.2746810913086" lon="7.44968318939209"><ele></ele><time>2013-8-7T8:20:25Z</time></trkpt>
<trkpt lat="46.2746696472168" lon="7.44966125488281"><ele></ele><time>2013-8-7T8:20:28Z</time></trkpt>
<trkpt lat="46.274658203125" lon="7.44963884353638"><ele></ele><time>2013-8-7T8:20:31Z</time></trkpt>
<trkpt lat="46.2746467590332" lon="7.44961547851562"><ele></ele><time>2013-8-7T8:20:34Z</time></trkpt>
<trkpt lat="46.2746391296387" lon="7.44959020614624"><ele></ele><time>2013-8-7T8:20:37Z</time></trkpt>
<trkpt lat="46.2746276855469" lon="7.44950437545776"><ele></ele><time>2013-8-7T8:20:40Z</time></trkpt>
<trkpt lat="46.2746505737305" lon="7.44946336746216"><ele></ele><time>2013-8-7T8:20:43Z</time></trkpt>
<trkpt lat="46.2746696472168" lon="7.44945287704468"><ele></ele><time>2013-8-7T8:20:46Z</time></trkpt>
<trkpt lat="46.2746849060059" lon="7.44945383071899"><ele></ele><time>2013-8-7T8:20:49Z</time></trkpt>
<trkpt lat="46.2747039794922" lon="7.44945907592774"><ele></ele><time>2013-8-7T8:20:52Z</time></trkpt>
<trkpt lat="46.2747192382812" lon="7.44946479797363"><ele></ele><time>2013-8-7T8:20:55Z</time></trkpt>
<trkpt lat="46.2747840881348" lon="7.44951629638672"><ele></ele><time>2013-8-7T8:20:58Z</time></trkpt>
<trkpt lat="46.2747955322266" lon="7.44953298568726"><ele></ele><time>2013-8-7T8:21:1Z</time></trkpt>
<trkpt lat="46.2748069763184" lon="7.44955205917358"><ele></ele><time>2013-8-7T8:21:4Z</time></trkpt>
<trkpt lat="46.2748222351074" lon="7.44957542419434"><ele></ele><time>2013-8-7T8:21:7Z</time></trkpt>
<trkpt lat="46.2748336791992" lon="7.44959592819214"><ele></ele><time>2013-8-7T8:21:10Z</time></trkpt>
<trkpt lat="46.2749290466309" lon="7.44969129562378"><ele></ele><time>2013-8-7T8:21:13Z</time></trkpt>
<trkpt lat="46.2750205993652" lon="7.44980001449585"><ele></ele><time>2013-8-7T8:21:16Z</time></trkpt>
<trkpt lat="46.2750396728516" lon="7.44981622695923"><ele></ele><time>2013-8-7T8:21:19Z</time></trkpt>
<trkpt lat="46.2750587463379" lon="7.44983291625976"><ele></ele><time>2013-8-7T8:21:22Z</time></trkpt>
<trkpt lat="46.2750778198242" lon="7.44985008239746"><ele></ele><time>2013-8-7T8:21:25Z</time></trkpt>
<trkpt lat="46.2751770019531" lon="7.44993352890015"><ele></ele><time>2013-8-7T8:21:28Z</time></trkpt>
<trkpt lat="46.275276184082" lon="7.44998168945312"><ele></ele><time>2013-8-7T8:21:31Z</time></trkpt>
<trkpt lat="46.2752990722656" lon="7.44999074935913"><ele></ele><time>2013-8-7T8:21:34Z</time></trkpt>
<trkpt lat="46.275318145752" lon="7.44999170303345"><ele></ele><time>2013-8-7T8:21:37Z</time></trkpt>
<trkpt lat="46.2753410339356" lon="7.44999980926514"><ele></ele><time>2013-8-7T8:21:40Z</time></trkpt>
<trkpt lat="46.2753639221191" lon="7.44999837875366"><ele></ele><time>2013-8-7T8:21:43Z</time></trkpt>
<trkpt lat="46.2754287719727" lon="7.45002317428589"><ele></ele><time>2013-8-7T8:21:46Z</time></trkpt>
<trkpt lat="46.2755508422852" lon="7.45007991790772"><ele></ele><time>2013-8-7T8:21:49Z</time></trkpt>
<trkpt lat="46.2756385803223" lon="7.45011568069458"><ele></ele><time>2013-8-7T8:21:52Z</time></trkpt>
<trkpt lat="46.2756614685059" lon="7.45012474060059"><ele></ele><time>2013-8-7T8:21:55Z</time></trkpt>
<trkpt lat="46.2756805419922" lon="7.45013523101807"><ele></ele><time>2013-8-7T8:21:58Z</time></trkpt>
<trkpt lat="46.2757034301758" lon="7.4501428604126"><ele></ele><time>2013-8-7T8:22:1Z</time></trkpt>
<trkpt lat="46.2757263183594" lon="7.45014762878418"><ele></ele><time>2013-8-7T8:22:4Z</time></trkpt>
<trkpt lat="46.2758483886719" lon="7.4501748085022"><ele></ele><time>2013-8-7T8:22:7Z</time></trkpt>
<trkpt lat="46.2760124206543" lon="7.45023441314697"><ele></ele><time>2013-8-7T8:22:10Z</time></trkpt>
<trkpt lat="46.2760314941406" lon="7.45024347305298"><ele></ele><time>2013-8-7T8:22:13Z</time></trkpt>
<trkpt lat="46.2760543823242" lon="7.45025062561035"><ele></ele><time>2013-8-7T8:22:16Z</time></trkpt>
<trkpt lat="46.2760772705078" lon="7.45026063919067"><ele></ele><time>2013-8-7T8:22:19Z</time></trkpt>
<trkpt lat="46.2761001586914" lon="7.45026969909668"><ele></ele><time>2013-8-7T8:22:22Z</time></trkpt>
<trkpt lat="46.2762260437012" lon="7.45032501220703"><ele></ele><time>2013-8-7T8:22:25Z</time></trkpt>
<trkpt lat="46.2763366699219" lon="7.45039319992065"><ele></ele><time>2013-8-7T8:22:28Z</time></trkpt>
<trkpt lat="46.2763557434082" lon="7.45041084289551"><ele></ele><time>2013-8-7T8:22:31Z</time></trkpt>
<trkpt lat="46.2763748168945" lon="7.45043039321899"><ele></ele><time>2013-8-7T8:22:34Z</time></trkpt>
<trkpt lat="46.2763938903809" lon="7.4504508972168"><ele></ele><time>2013-8-7T8:22:37Z</time></trkpt>
<trkpt lat="46.2764091491699" lon="7.45046901702881"><ele></ele><time>2013-8-7T8:22:40Z</time></trkpt>
<trkpt lat="46.2765274047852" lon="7.4506664276123"><ele></ele><time>2013-8-7T8:22:43Z</time></trkpt>
<trkpt lat="46.2765502929688" lon="7.45071840286255"><ele></ele><time>2013-8-7T8:22:46Z</time></trkpt>
<trkpt lat="46.2765617370606" lon="7.45074653625488"><ele></ele><time>2013-8-7T8:22:49Z</time></trkpt>
<trkpt lat="46.2765769958496" lon="7.45077037811279"><ele></ele><time>2013-8-7T8:22:52Z</time></trkpt>
<trkpt lat="46.2765922546387" lon="7.45079612731934"><ele></ele><time>2013-8-7T8:22:55Z</time></trkpt>
<trkpt lat="46.2766380310059" lon="7.45087099075317"><ele></ele><time>2013-8-7T8:22:58Z</time></trkpt>
<trkpt lat="46.276725769043" lon="7.45101881027222"><ele></ele><time>2013-8-7T8:23:1Z</time></trkpt>
<trkpt lat="46.2767448425293" lon="7.45104169845581"><ele></ele><time>2013-8-7T8:23:4Z</time></trkpt>
<trkpt lat="46.2767601013184" lon="7.45106315612793"><ele></ele><time>2013-8-7T8:23:7Z</time></trkpt>
<trkpt lat="46.2767791748047" lon="7.45108652114868"><ele></ele><time>2013-8-7T8:23:10Z</time></trkpt>
<trkpt lat="46.2767944335938" lon="7.45110988616943"><ele></ele><time>2013-8-7T8:23:13Z</time></trkpt>
<trkpt lat="46.2769088745117" lon="7.45123100280762"><ele></ele><time>2013-8-7T8:23:16Z</time></trkpt>
<trkpt lat="46.2770195007324" lon="7.45137357711792"><ele></ele><time>2013-8-7T8:23:19Z</time></trkpt>
<trkpt lat="46.2770385742188" lon="7.45139694213867"><ele></ele><time>2013-8-7T8:23:22Z</time></trkpt>
<trkpt lat="46.2770576477051" lon="7.45141839981079"><ele></ele><time>2013-8-7T8:23:25Z</time></trkpt>
<trkpt lat="46.2770767211914" lon="7.45143985748291"><ele></ele><time>2013-8-7T8:23:28Z</time></trkpt>
<trkpt lat="46.2770919799805" lon="7.4514627456665"><ele></ele><time>2013-8-7T8:23:31Z</time></trkpt>
<trkpt lat="46.2771110534668" lon="7.4514856338501"><ele></ele><time>2013-8-7T8:23:34Z</time></trkpt>
<trkpt lat="46.277156829834" lon="7.45155382156372"><ele></ele><time>2013-8-7T8:23:37Z</time></trkpt>
<trkpt lat="46.2772407531738" lon="7.45165824890137"><ele></ele><time>2013-8-7T8:23:40Z</time></trkpt>
<trkpt lat="46.2772560119629" lon="7.45167827606201"><ele></ele><time>2013-8-7T8:23:43Z</time></trkpt>
<trkpt lat="46.2772750854492" lon="7.45169925689697"><ele></ele><time>2013-8-7T8:23:46Z</time></trkpt>
<trkpt lat="46.2772903442383" lon="7.45172262191772"><ele></ele><time>2013-8-7T8:23:49Z</time></trkpt>
<trkpt lat="46.2773056030273" lon="7.45174503326416"><ele></ele><time>2013-8-7T8:23:52Z</time></trkpt>
<trkpt lat="46.2774429321289" lon="7.45191431045532"><ele></ele><time>2013-8-7T8:23:55Z</time></trkpt>
<trkpt lat="46.2775421142578" lon="7.45201778411865"><ele></ele><time>2013-8-7T8:23:58Z</time></trkpt>
<trkpt lat="46.2775611877441" lon="7.45203447341919"><ele></ele><time>2013-8-7T8:24:1Z</time></trkpt>
<trkpt lat="46.2775802612305" lon="7.45204877853394"><ele></ele><time>2013-8-7T8:24:4Z</time></trkpt>
<trkpt lat="46.2775993347168" lon="7.4520673751831"><ele></ele><time>2013-8-7T8:24:7Z</time></trkpt>
<trkpt lat="46.2776184082031" lon="7.45208501815796"><ele></ele><time>2013-8-7T8:24:10Z</time></trkpt>
<trkpt lat="46.2778053283691" lon="7.45228433609009"><ele></ele><time>2013-8-7T8:24:13Z</time></trkpt>
<trkpt lat="46.2778434753418" lon="7.45233201980591"><ele></ele><time>2013-8-7T8:24:16Z</time></trkpt>
<trkpt lat="46.2778587341309" lon="7.45235729217529"><ele></ele><time>2013-8-7T8:24:19Z</time></trkpt>
<trkpt lat="46.2778778076172" lon="7.45238304138184"><ele></ele><time>2013-8-7T8:24:22Z</time></trkpt>
<trkpt lat="46.2778930664062" lon="7.45240545272827"><ele></ele><time>2013-8-7T8:24:25Z</time></trkpt>
<trkpt lat="46.2779083251953" lon="7.45243120193482"><ele></ele><time>2013-8-7T8:24:28Z</time></trkpt>
<trkpt lat="46.2780151367188" lon="7.45262241363525"><ele></ele><time>2013-8-7T8:24:31Z</time></trkpt>
<trkpt lat="46.2780342102051" lon="7.45264577865601"><ele></ele><time>2013-8-7T8:24:34Z</time></trkpt>
<trkpt lat="46.2780494689941" lon="7.45266962051392"><ele></ele><time>2013-8-7T8:24:37Z</time></trkpt>
<trkpt lat="46.2780685424805" lon="7.45269680023193"><ele></ele><time>2013-8-7T8:24:40Z</time></trkpt>
<trkpt lat="46.2780838012695" lon="7.45272302627564"><ele></ele><time>2013-8-7T8:24:43Z</time></trkpt>
<trkpt lat="46.2780990600586" lon="7.45274782180786"><ele></ele><time>2013-8-7T8:24:46Z</time></trkpt>
<trkpt lat="46.2781677246094" lon="7.45284652709961"><ele></ele><time>2013-8-7T8:24:49Z</time></trkpt>
<trkpt lat="46.278263092041" lon="7.45295238494873"><ele></ele><time>2013-8-7T8:24:52Z</time></trkpt>
<trkpt lat="46.2782821655273" lon="7.45297384262085"><ele></ele><time>2013-8-7T8:24:55Z</time></trkpt>
<trkpt lat="46.2783012390137" lon="7.45299530029297"><ele></ele><time>2013-8-7T8:24:58Z</time></trkpt>
<trkpt lat="46.2783203125" lon="7.45301485061646"><ele></ele><time>2013-8-7T8:25:1Z</time></trkpt>
<trkpt lat="46.2784118652344" lon="7.45312309265137"><ele></ele><time>2013-8-7T8:25:4Z</time></trkpt>
<trkpt lat="46.2784729003906" lon="7.45318078994751"><ele></ele><time>2013-8-7T8:25:7Z</time></trkpt>
<trkpt lat="46.2785453796387" lon="7.45326709747314"><ele></ele><time>2013-8-7T8:25:10Z</time></trkpt>
<trkpt lat="46.278564453125" lon="7.45328950881958"><ele></ele><time>2013-8-7T8:25:13Z</time></trkpt>
<trkpt lat="46.2785835266113" lon="7.45330858230591"><ele></ele><time>2013-8-7T8:25:16Z</time></trkpt>
<trkpt lat="46.2786026000977" lon="7.45332908630371"><ele></ele><time>2013-8-7T8:25:19Z</time></trkpt>
<trkpt lat="46.2786178588867" lon="7.45335054397583"><ele></ele><time>2013-8-7T8:25:22Z</time></trkpt>
<trkpt lat="46.2787551879883" lon="7.45353317260742"><ele></ele><time>2013-8-7T8:25:25Z</time></trkpt>
<trkpt lat="46.2787704467773" lon="7.45355415344238"><ele></ele><time>2013-8-7T8:25:28Z</time></trkpt>
<trkpt lat="46.2787857055664" lon="7.45357608795166"><ele></ele><time>2013-8-7T8:25:31Z</time></trkpt>
<trkpt lat="46.2788009643555" lon="7.45359706878662"><ele></ele><time>2013-8-7T8:25:34Z</time></trkpt>
<trkpt lat="46.2788200378418" lon="7.45361995697022"><ele></ele><time>2013-8-7T8:25:37Z</time></trkpt>
<trkpt lat="46.2788352966309" lon="7.45363903045654"><ele></ele><time>2013-8-7T8:25:40Z</time></trkpt>
<trkpt lat="46.2789268493652" lon="7.45374488830566"><ele></ele><time>2013-8-7T8:25:43Z</time></trkpt>
<trkpt lat="46.2789916992188" lon="7.45384740829468"><ele></ele><time>2013-8-7T8:25:46Z</time></trkpt>
<trkpt lat="46.2790107727051" lon="7.45387315750122"><ele></ele><time>2013-8-7T8:25:49Z</time></trkpt>
<trkpt lat="46.2790298461914" lon="7.45389747619629"><ele></ele><time>2013-8-7T8:25:52Z</time></trkpt>
<trkpt lat="46.2790451049805" lon="7.45392274856567"><ele></ele><time>2013-8-7T8:25:55Z</time></trkpt>
<trkpt lat="46.2790603637695" lon="7.45394515991211"><ele></ele><time>2013-8-7T8:25:58Z</time></trkpt>
<trkpt lat="46.2791290283203" lon="7.45403814315796"><ele></ele><time>2013-8-7T8:26:1Z</time></trkpt>
<trkpt lat="46.2791557312012" lon="7.45408773422241"><ele></ele><time>2013-8-7T8:26:4Z</time></trkpt>
<trkpt lat="46.279167175293" lon="7.45411729812622"><ele></ele><time>2013-8-7T8:26:7Z</time></trkpt>
<trkpt lat="46.2791786193848" lon="7.45414161682129"><ele></ele><time>2013-8-7T8:26:10Z</time></trkpt>
<trkpt lat="46.2791862487793" lon="7.45416975021362"><ele></ele><time>2013-8-7T8:26:13Z</time></trkpt>
<trkpt lat="46.2791976928711" lon="7.45419692993164"><ele></ele><time>2013-8-7T8:26:16Z</time></trkpt>
<trkpt lat="46.2792091369629" lon="7.45422315597534"><ele></ele><time>2013-8-7T8:26:19Z</time></trkpt>
<trkpt lat="46.2792778015137" lon="7.45437479019165"><ele></ele><time>2013-8-7T8:26:22Z</time></trkpt>
<trkpt lat="46.2792892456055" lon="7.45440292358398"><ele></ele><time>2013-8-7T8:26:25Z</time></trkpt>
<trkpt lat="46.2793045043945" lon="7.45442724227905"><ele></ele><time>2013-8-7T8:26:28Z</time></trkpt>
<trkpt lat="46.2793159484863" lon="7.45445394515991"><ele></ele><time>2013-8-7T8:26:31Z</time></trkpt>
<trkpt lat="46.2793312072754" lon="7.45448064804077"><ele></ele><time>2013-8-7T8:26:34Z</time></trkpt>
<trkpt lat="46.2793846130371" lon="7.45458173751831"><ele></ele><time>2013-8-7T8:26:37Z</time></trkpt>
<trkpt lat="46.2794342041016" lon="7.45468473434448"><ele></ele><time>2013-8-7T8:26:40Z</time></trkpt>
<trkpt lat="46.2794456481934" lon="7.45471143722534"><ele></ele><time>2013-8-7T8:26:43Z</time></trkpt>
<trkpt lat="46.2794570922852" lon="7.4547381401062"><ele></ele><time>2013-8-7T8:26:46Z</time></trkpt>
<trkpt lat="46.2794723510742" lon="7.45476531982422"><ele></ele><time>2013-8-7T8:26:49Z</time></trkpt>
<trkpt lat="46.279483795166" lon="7.45479154586792"><ele></ele><time>2013-8-7T8:26:52Z</time></trkpt>
<trkpt lat="46.2794952392578" lon="7.4548192024231"><ele></ele><time>2013-8-7T8:26:55Z</time></trkpt>
<trkpt lat="46.2795829772949" lon="7.45500898361206"><ele></ele><time>2013-8-7T8:26:58Z</time></trkpt>
<trkpt lat="46.2796020507812" lon="7.45506381988525"><ele></ele><time>2013-8-7T8:27:1Z</time></trkpt>
<trkpt lat="46.279613494873" lon="7.45509243011475"><ele></ele><time>2013-8-7T8:27:4Z</time></trkpt>
<trkpt lat="46.2796249389648" lon="7.45512056350708"><ele></ele><time>2013-8-7T8:27:7Z</time></trkpt>
<trkpt lat="46.2796325683594" lon="7.45514822006226"><ele></ele><time>2013-8-7T8:27:10Z</time></trkpt>
<trkpt lat="46.2796401977539" lon="7.45517492294312"><ele></ele><time>2013-8-7T8:27:13Z</time></trkpt>
<trkpt lat="46.2796630859375" lon="7.45523071289062"><ele></ele><time>2013-8-7T8:27:16Z</time></trkpt>
<trkpt lat="46.2797317504883" lon="7.45539379119873"><ele></ele><time>2013-8-7T8:27:19Z</time></trkpt>
<trkpt lat="46.2797508239746" lon="7.45541191101074"><ele></ele><time>2013-8-7T8:27:22Z</time></trkpt>
<trkpt lat="46.2797737121582" lon="7.4554271697998"><ele></ele><time>2013-8-7T8:27:25Z</time></trkpt>
<trkpt lat="46.2797927856445" lon="7.45543766021728"><ele></ele><time>2013-8-7T8:27:28Z</time></trkpt>
<trkpt lat="46.2798156738281" lon="7.45544099807739"><ele></ele><time>2013-8-7T8:27:31Z</time></trkpt>
<trkpt lat="46.2798347473144" lon="7.45543575286865"><ele></ele><time>2013-8-7T8:27:34Z</time></trkpt>
<trkpt lat="46.2799034118652" lon="7.45532131195068"><ele></ele><time>2013-8-7T8:27:37Z</time></trkpt>
<trkpt lat="46.2799072265625" lon="7.45528602600098"><ele></ele><time>2013-8-7T8:27:40Z</time></trkpt>
<trkpt lat="46.2798957824707" lon="7.45505619049072"><ele></ele><time>2013-8-7T8:27:43Z</time></trkpt>
<trkpt lat="46.2798881530762" lon="7.45499086380005"><ele></ele><time>2013-8-7T8:27:46Z</time></trkpt>
<trkpt lat="46.2798843383789" lon="7.45496082305908"><ele></ele><time>2013-8-7T8:27:49Z</time></trkpt>
<trkpt lat="46.2798805236816" lon="7.45492887496948"><ele></ele><time>2013-8-7T8:27:52Z</time></trkpt>
<trkpt lat="46.2798805236816" lon="7.45489358901978"><ele></ele><time>2013-8-7T8:27:55Z</time></trkpt>
<trkpt lat="46.2798805236816" lon="7.45486068725586"><ele></ele><time>2013-8-7T8:27:58Z</time></trkpt>
<trkpt lat="46.2798767089844" lon="7.45479536056518"><ele></ele><time>2013-8-7T8:28:1Z</time></trkpt>
<trkpt lat="46.2798385620117" lon="7.45451498031616"><ele></ele><time>2013-8-7T8:28:4Z</time></trkpt>
<trkpt lat="46.2798309326172" lon="7.45445585250854"><ele></ele><time>2013-8-7T8:28:7Z</time></trkpt>
<trkpt lat="46.2798309326172" lon="7.4544267654419"><ele></ele><time>2013-8-7T8:28:10Z</time></trkpt>
<trkpt lat="46.2798233032227" lon="7.45439910888672"><ele></ele><time>2013-8-7T8:28:13Z</time></trkpt>
<trkpt lat="46.2798156738281" lon="7.45436906814575"><ele></ele><time>2013-8-7T8:28:16Z</time></trkpt>
<trkpt lat="46.2798156738281" lon="7.45433664321899"><ele></ele><time>2013-8-7T8:28:19Z</time></trkpt>
<trkpt lat="46.2798118591309" lon="7.45427417755127"><ele></ele><time>2013-8-7T8:28:22Z</time></trkpt>
<trkpt lat="46.2798080444336" lon="7.45411205291748"><ele></ele><time>2013-8-7T8:28:25Z</time></trkpt>
<trkpt lat="46.2798004150391" lon="7.45405054092407"><ele></ele><time>2013-8-7T8:28:28Z</time></trkpt>
<trkpt lat="46.2797966003418" lon="7.454017162323"><ele></ele><time>2013-8-7T8:28:31Z</time></trkpt>
<trkpt lat="46.2797927856445" lon="7.4539852142334"><ele></ele><time>2013-8-7T8:28:34Z</time></trkpt>
<trkpt lat="46.2797889709473" lon="7.45395278930664"><ele></ele><time>2013-8-7T8:28:37Z</time></trkpt>
<trkpt lat="46.27978515625" lon="7.45392036437988"><ele></ele><time>2013-8-7T8:28:40Z</time></trkpt>
<trkpt lat="46.27978515625" lon="7.45388841629028"><ele></ele><time>2013-8-7T8:28:43Z</time></trkpt>
<trkpt lat="46.2797622680664" lon="7.45367288589478"><ele></ele><time>2013-8-7T8:28:46Z</time></trkpt>
<trkpt lat="46.2797546386719" lon="7.45364189147949"><ele></ele><time>2013-8-7T8:28:49Z</time></trkpt>
<trkpt lat="46.2797508239746" lon="7.45361137390137"><ele></ele><time>2013-8-7T8:28:52Z</time></trkpt>
<trkpt lat="46.2797431945801" lon="7.45357990264893"><ele></ele><time>2013-8-7T8:28:55Z</time></trkpt>
<trkpt lat="46.2797393798828" lon="7.45354890823364"><ele></ele><time>2013-8-7T8:28:58Z</time></trkpt>
<trkpt lat="46.2797012329102" lon="7.45333099365234"><ele></ele><time>2013-8-7T8:29:1Z</time></trkpt>
<trkpt lat="46.2796897888184" lon="7.45329904556274"><ele></ele><time>2013-8-7T8:29:4Z</time></trkpt>
<trkpt lat="46.2796821594238" lon="7.45326662063599"><ele></ele><time>2013-8-7T8:29:7Z</time></trkpt>
<trkpt lat="46.2796745300293" lon="7.45323657989502"><ele></ele><time>2013-8-7T8:29:10Z</time></trkpt>
<trkpt lat="46.2796516418457" lon="7.45311880111694"><ele></ele><time>2013-8-7T8:29:13Z</time></trkpt>
<trkpt lat="46.2795867919922" lon="7.45294713973999"><ele></ele><time>2013-8-7T8:29:16Z</time></trkpt>
<trkpt lat="46.2795715332031" lon="7.45289182662964"><ele></ele><time>2013-8-7T8:29:19Z</time></trkpt>
<trkpt lat="46.2795600891113" lon="7.45286321640015"><ele></ele><time>2013-8-7T8:29:22Z</time></trkpt>
<trkpt lat="46.2795524597168" lon="7.45283508300781"><ele></ele><time>2013-8-7T8:29:25Z</time></trkpt>
<trkpt lat="46.2795372009277" lon="7.45280694961548"><ele></ele><time>2013-8-7T8:29:28Z</time></trkpt>
<trkpt lat="46.2795257568359" lon="7.4527792930603"><ele></ele><time>2013-8-7T8:29:31Z</time></trkpt>
<trkpt lat="46.2794570922852" lon="7.4526104927063"><ele></ele><time>2013-8-7T8:29:34Z</time></trkpt>
<trkpt lat="46.2794227600098" lon="7.45252752304077"><ele></ele><time>2013-8-7T8:29:37Z</time></trkpt>
<trkpt lat="46.279411315918" lon="7.4524974822998"><ele></ele><time>2013-8-7T8:29:40Z</time></trkpt>
<trkpt lat="46.2794036865234" lon="7.45246887207031"><ele></ele><time>2013-8-7T8:29:43Z</time></trkpt>
<trkpt lat="46.2793922424316" lon="7.45243787765503"><ele></ele><time>2013-8-7T8:29:46Z</time></trkpt>
<trkpt lat="46.2793807983398" lon="7.4524097442627"><ele></ele><time>2013-8-7T8:29:49Z</time></trkpt>
<trkpt lat="46.2793235778809" lon="7.45227909088135"><ele></ele><time>2013-8-7T8:29:52Z</time></trkpt>
<trkpt lat="46.2792816162109" lon="7.45216751098633"><ele></ele><time>2013-8-7T8:29:55Z</time></trkpt>
<trkpt lat="46.2792701721191" lon="7.45213794708252"><ele></ele><time>2013-8-7T8:29:58Z</time></trkpt>
<trkpt lat="46.2792625427246" lon="7.45211267471314"><ele></ele><time>2013-8-7T8:30:1Z</time></trkpt>
<trkpt lat="46.2792510986328" lon="7.45208692550659"><ele></ele><time>2013-8-7T8:30:4Z</time></trkpt>
<trkpt lat="46.279239654541" lon="7.45206117630005"><ele></ele><time>2013-8-7T8:30:7Z</time></trkpt>
<trkpt lat="46.2791862487793" lon="7.45192337036133"><ele></ele><time>2013-8-7T8:30:10Z</time></trkpt>
<trkpt lat="46.2791213989258" lon="7.45175075531006"><ele></ele><time>2013-8-7T8:30:13Z</time></trkpt>
<trkpt lat="46.279109954834" lon="7.45172071456909"><ele></ele><time>2013-8-7T8:30:16Z</time></trkpt>
<trkpt lat="46.2790946960449" lon="7.45169162750244"><ele></ele><time>2013-8-7T8:30:19Z</time></trkpt>
<trkpt lat="46.2790794372559" lon="7.45166349411011"><ele></ele><time>2013-8-7T8:30:22Z</time></trkpt>
<trkpt lat="46.2790641784668" lon="7.45163154602051"><ele></ele><time>2013-8-7T8:30:25Z</time></trkpt>
<trkpt lat="46.2789993286133" lon="7.45146083831787"><ele></ele><time>2013-8-7T8:30:28Z</time></trkpt>
<trkpt lat="46.2789535522461" lon="7.4513521194458"><ele></ele><time>2013-8-7T8:30:31Z</time></trkpt>
<trkpt lat="46.2789421081543" lon="7.45132207870483"><ele></ele><time>2013-8-7T8:30:34Z</time></trkpt>
<trkpt lat="46.2789306640625" lon="7.45129108428955"><ele></ele><time>2013-8-7T8:30:37Z</time></trkpt>
<trkpt lat="46.2789192199707" lon="7.45125865936279"><ele></ele><time>2013-8-7T8:30:40Z</time></trkpt>
<trkpt lat="46.2789077758789" lon="7.45122909545898"><ele></ele><time>2013-8-7T8:30:43Z</time></trkpt>
<trkpt lat="46.2788200378418" lon="7.45100688934326"><ele></ele><time>2013-8-7T8:30:46Z</time></trkpt>
<trkpt lat="46.27880859375" lon="7.45097827911377"><ele></ele><time>2013-8-7T8:30:49Z</time></trkpt>
<trkpt lat="46.2788009643555" lon="7.45094919204712"><ele></ele><time>2013-8-7T8:30:52Z</time></trkpt>
<trkpt lat="46.2787933349609" lon="7.4509220123291"><ele></ele><time>2013-8-7T8:30:55Z</time></trkpt>
<trkpt lat="46.2787895202637" lon="7.4508900642395"><ele></ele><time>2013-8-7T8:30:58Z</time></trkpt>
<trkpt lat="46.2787818908691" lon="7.45085716247559"><ele></ele><time>2013-8-7T8:31:1Z</time></trkpt>
<trkpt lat="46.2787780761719" lon="7.4508261680603"><ele></ele><time>2013-8-7T8:31:4Z</time></trkpt>
<trkpt lat="46.278736114502" lon="7.45063591003418"><ele></ele><time>2013-8-7T8:31:7Z</time></trkpt>
<trkpt lat="46.2787055969238" lon="7.45047187805176"><ele></ele><time>2013-8-7T8:31:10Z</time></trkpt>
<trkpt lat="46.2786979675293" lon="7.45043897628784"><ele></ele><time>2013-8-7T8:31:13Z</time></trkpt>
<trkpt lat="46.278694152832" lon="7.4504017829895"><ele></ele><time>2013-8-7T8:31:16Z</time></trkpt>
<trkpt lat="46.2786865234375" lon="7.45036840438843"><ele></ele><time>2013-8-7T8:31:19Z</time></trkpt>
<trkpt lat="46.278678894043" lon="7.45033550262451"><ele></ele><time>2013-8-7T8:31:22Z</time></trkpt>
<trkpt lat="46.2786521911621" lon="7.45005750656128"><ele></ele><time>2013-8-7T8:31:25Z</time></trkpt>
<trkpt lat="46.2786254882812" lon="7.44989013671875"><ele></ele><time>2013-8-7T8:31:28Z</time></trkpt>
<trkpt lat="46.2786254882812" lon="7.44985723495483"><ele></ele><time>2013-8-7T8:31:31Z</time></trkpt>
<trkpt lat="46.278621673584" lon="7.44982290267944"><ele></ele><time>2013-8-7T8:31:34Z</time></trkpt>
<trkpt lat="46.2786178588867" lon="7.44978952407837"><ele></ele><time>2013-8-7T8:31:37Z</time></trkpt>
<trkpt lat="46.2786140441894" lon="7.44975328445435"><ele></ele><time>2013-8-7T8:31:40Z</time></trkpt>
<trkpt lat="46.2785949707031" lon="7.44953966140747"><ele></ele><time>2013-8-7T8:31:43Z</time></trkpt>
<trkpt lat="46.2785873413086" lon="7.44950151443482"><ele></ele><time>2013-8-7T8:31:46Z</time></trkpt>
<trkpt lat="46.2785339355469" lon="7.44925117492676"><ele></ele><time>2013-8-7T8:31:49Z</time></trkpt>
<trkpt lat="46.2785110473633" lon="7.44918775558472"><ele></ele><time>2013-8-7T8:31:52Z</time></trkpt>
<trkpt lat="46.2784996032715" lon="7.44915580749512"><ele></ele><time>2013-8-7T8:31:55Z</time></trkpt>
<trkpt lat="46.2784881591797" lon="7.44912099838257"><ele></ele><time>2013-8-7T8:31:58Z</time></trkpt>
<trkpt lat="46.2784767150879" lon="7.44908618927002"><ele></ele><time>2013-8-7T8:32:1Z</time></trkpt>
<trkpt lat="46.2784690856934" lon="7.449049949646"><ele></ele><time>2013-8-7T8:32:4Z</time></trkpt>
<trkpt lat="46.2783699035644" lon="7.44877243041992"><ele></ele><time>2013-8-7T8:32:7Z</time></trkpt>
<trkpt lat="46.2782897949219" lon="7.4485592842102"><ele></ele><time>2013-8-7T8:32:10Z</time></trkpt>
<trkpt lat="46.278247833252" lon="7.44845676422119"><ele></ele><time>2013-8-7T8:32:13Z</time></trkpt>
<trkpt lat="46.2782402038574" lon="7.44842433929443"><ele></ele><time>2013-8-7T8:32:16Z</time></trkpt>
<trkpt lat="46.2782249450684" lon="7.44839191436768"><ele></ele><time>2013-8-7T8:32:19Z</time></trkpt>
<trkpt lat="46.2782135009766" lon="7.44835948944092"><ele></ele><time>2013-8-7T8:32:22Z</time></trkpt>
<trkpt lat="46.278205871582" lon="7.44832468032837"><ele></ele><time>2013-8-7T8:32:25Z</time></trkpt>
<trkpt lat="46.2782020568848" lon="7.44828844070435"><ele></ele><time>2013-8-7T8:32:28Z</time></trkpt>
<trkpt lat="46.2781791687012" lon="7.44803047180176"><ele></ele><time>2013-8-7T8:32:31Z</time></trkpt>
<trkpt lat="46.278205871582" lon="7.44788980484009"><ele></ele><time>2013-8-7T8:32:34Z</time></trkpt>
<trkpt lat="46.2782173156738" lon="7.44785928726196"><ele></ele><time>2013-8-7T8:32:37Z</time></trkpt>
<trkpt lat="46.2782249450684" lon="7.44782829284668"><ele></ele><time>2013-8-7T8:32:40Z</time></trkpt>
<trkpt lat="46.2782363891602" lon="7.4477949142456"><ele></ele><time>2013-8-7T8:32:43Z</time></trkpt>
<trkpt lat="46.2783317565918" lon="7.44764757156372"><ele></ele><time>2013-8-7T8:32:46Z</time></trkpt>
<trkpt lat="46.2784690856934" lon="7.44757080078125"><ele></ele><time>2013-8-7T8:32:49Z</time></trkpt>
<trkpt lat="46.2784957885742" lon="7.44755983352661"><ele></ele><time>2013-8-7T8:32:52Z</time></trkpt>
<trkpt lat="46.2785186767578" lon="7.44754934310913"><ele></ele><time>2013-8-7T8:32:55Z</time></trkpt>
<trkpt lat="46.2785415649414" lon="7.44754028320312"><ele></ele><time>2013-8-7T8:32:58Z</time></trkpt>
<trkpt lat="46.2785682678223" lon="7.44753265380859"><ele></ele><time>2013-8-7T8:33:1Z</time></trkpt>
<trkpt lat="46.2786636352539" lon="7.44750881195068"><ele></ele><time>2013-8-7T8:33:4Z</time></trkpt>
<trkpt lat="46.2788124084473" lon="7.447509765625"><ele></ele><time>2013-8-7T8:33:7Z</time></trkpt>
<trkpt lat="46.2788352966309" lon="7.447509765625"><ele></ele><time>2013-8-7T8:33:10Z</time></trkpt>
<trkpt lat="46.2788619995117" lon="7.44751119613648"><ele></ele><time>2013-8-7T8:33:13Z</time></trkpt>
<trkpt lat="46.2788848876953" lon="7.44750785827637"><ele></ele><time>2013-8-7T8:33:16Z</time></trkpt>
<trkpt lat="46.2789077758789" lon="7.4474983215332"><ele></ele><time>2013-8-7T8:33:19Z</time></trkpt>
<trkpt lat="46.2789840698242" lon="7.44744110107422"><ele></ele><time>2013-8-7T8:33:22Z</time></trkpt>
<trkpt lat="46.2790985107422" lon="7.4472541809082"><ele></ele><time>2013-8-7T8:33:25Z</time></trkpt>
<trkpt lat="46.2792091369629" lon="7.44704389572144"><ele></ele><time>2013-8-7T8:33:28Z</time></trkpt>
<trkpt lat="46.2793045043945" lon="7.44687032699585"><ele></ele><time>2013-8-7T8:33:31Z</time></trkpt>
<trkpt lat="46.2793235778809" lon="7.44683647155762"><ele></ele><time>2013-8-7T8:33:34Z</time></trkpt>
<trkpt lat="46.2793426513672" lon="7.44680261611938"><ele></ele><time>2013-8-7T8:33:37Z</time></trkpt>
<trkpt lat="46.2793617248535" lon="7.44676971435547"><ele></ele><time>2013-8-7T8:33:40Z</time></trkpt>
<trkpt lat="46.2793807983398" lon="7.44673585891724"><ele></ele><time>2013-8-7T8:33:43Z</time></trkpt>
<trkpt lat="46.2793998718262" lon="7.44670486450195"><ele></ele><time>2013-8-7T8:33:46Z</time></trkpt>
<trkpt lat="46.2794570922852" lon="7.44663619995117"><ele></ele><time>2013-8-7T8:33:49Z</time></trkpt>
<trkpt lat="46.2795066833496" lon="7.44663190841675"><ele></ele><time>2013-8-7T8:33:52Z</time></trkpt>
<trkpt lat="46.2795829772949" lon="7.44673728942871"><ele></ele><time>2013-8-7T8:33:55Z</time></trkpt>
<trkpt lat="46.2795944213867" lon="7.44677209854126"><ele></ele><time>2013-8-7T8:33:58Z</time></trkpt>
<trkpt lat="46.2796783447266" lon="7.44702863693237"><ele></ele><time>2013-8-7T8:34:1Z</time></trkpt>
<trkpt lat="46.2796936035156" lon="7.44706964492798"><ele></ele><time>2013-8-7T8:34:4Z</time></trkpt>
<trkpt lat="46.2797088623047" lon="7.44711065292358"><ele></ele><time>2013-8-7T8:34:7Z</time></trkpt>
<trkpt lat="46.2797203063965" lon="7.44715023040772"><ele></ele><time>2013-8-7T8:34:10Z</time></trkpt>
<trkpt lat="46.279727935791" lon="7.44719076156616"><ele></ele><time>2013-8-7T8:34:13Z</time></trkpt>
<trkpt lat="46.2797737121582" lon="7.44730997085571"><ele></ele><time>2013-8-7T8:34:16Z</time></trkpt>
<trkpt lat="46.2799072265625" lon="7.44749069213867"><ele></ele><time>2013-8-7T8:34:19Z</time></trkpt>
<trkpt lat="46.2799987792969" lon="7.44759130477905"><ele></ele><time>2013-8-7T8:34:22Z</time></trkpt>
<trkpt lat="46.2800178527832" lon="7.44760990142822"><ele></ele><time>2013-8-7T8:34:25Z</time></trkpt>
<trkpt lat="46.2800445556641" lon="7.44762754440308"><ele></ele><time>2013-8-7T8:34:28Z</time></trkpt>
<trkpt lat="46.2800788879394" lon="7.44764232635498"><ele></ele><time>2013-8-7T8:34:31Z</time></trkpt>
<trkpt lat="46.2801055908203" lon="7.44765663146973"><ele></ele><time>2013-8-7T8:34:34Z</time></trkpt>
<trkpt lat="46.2802047729492" lon="7.44762897491455"><ele></ele><time>2013-8-7T8:34:37Z</time></trkpt>
<trkpt lat="46.2802543640137" lon="7.44761610031128"><ele></ele><time>2013-8-7T8:34:40Z</time></trkpt>
<trkpt lat="46.2803153991699" lon="7.44764566421509"><ele></ele><time>2013-8-7T8:34:43Z</time></trkpt>
<trkpt lat="46.2803726196289" lon="7.44768333435059"><ele></ele><time>2013-8-7T8:34:46Z</time></trkpt>
<trkpt lat="46.2804412841797" lon="7.44775772094726"><ele></ele><time>2013-8-7T8:34:49Z</time></trkpt>
<trkpt lat="46.280445098877" lon="7.44778108596802"><ele></ele><time>2013-8-7T8:34:52Z</time></trkpt>
<trkpt lat="46.280445098877" lon="7.44778108596802"><ele></ele><time>2013-8-7T8:34:55Z</time></trkpt>
<trkpt lat="46.2804489135742" lon="7.44780158996582"><ele></ele><time>2013-8-7T8:34:58Z</time></trkpt>
<trkpt lat="46.2804641723633" lon="7.44783210754394"><ele></ele><time>2013-8-7T8:35:1Z</time></trkpt>
<trkpt lat="46.280517578125" lon="7.44797468185425"><ele></ele><time>2013-8-7T8:35:4Z</time></trkpt>
<trkpt lat="46.2806015014648" lon="7.44804525375366"><ele></ele><time>2013-8-7T8:35:7Z</time></trkpt>
<trkpt lat="46.2806282043457" lon="7.44806909561157"><ele></ele><time>2013-8-7T8:35:10Z</time></trkpt>
<trkpt lat="46.2808151245117" lon="7.44820737838745"><ele></ele><time>2013-8-7T8:35:13Z</time></trkpt>
<trkpt lat="46.2809066772461" lon="7.44828653335571"><ele></ele><time>2013-8-7T8:35:16Z</time></trkpt>
<trkpt lat="46.280933380127" lon="7.44831609725952"><ele></ele><time>2013-8-7T8:35:19Z</time></trkpt>
<trkpt lat="46.2809638977051" lon="7.44834041595459"><ele></ele><time>2013-8-7T8:35:22Z</time></trkpt>
<trkpt lat="46.2809944152832" lon="7.44836759567261"><ele></ele><time>2013-8-7T8:35:25Z</time></trkpt>
<trkpt lat="46.2811851501465" lon="7.44855260848999"><ele></ele><time>2013-8-7T8:35:28Z</time></trkpt>
<trkpt lat="46.2812881469727" lon="7.44864177703857"><ele></ele><time>2013-8-7T8:35:31Z</time></trkpt>
<trkpt lat="46.2813453674316" lon="7.44866704940796"><ele></ele><time>2013-8-7T8:35:34Z</time></trkpt>
<trkpt lat="46.2813720703125" lon="7.44868421554565"><ele></ele><time>2013-8-7T8:35:37Z</time></trkpt>
<trkpt lat="46.2813987731934" lon="7.44869184494018"><ele></ele><time>2013-8-7T8:35:40Z</time></trkpt>
<trkpt lat="46.2814254760742" lon="7.44869470596314"><ele></ele><time>2013-8-7T8:35:43Z</time></trkpt>
<trkpt lat="46.2814559936523" lon="7.44869470596314"><ele></ele><time>2013-8-7T8:35:46Z</time></trkpt>
<trkpt lat="46.2815208435059" lon="7.44870615005493"><ele></ele><time>2013-8-7T8:35:49Z</time></trkpt>
<trkpt lat="46.2816772460938" lon="7.44880628585815"><ele></ele><time>2013-8-7T8:35:52Z</time></trkpt>
<trkpt lat="46.2818641662598" lon="7.44881820678711"><ele></ele><time>2013-8-7T8:35:55Z</time></trkpt>
<trkpt lat="46.2819519042969" lon="7.44878911972046"><ele></ele><time>2013-8-7T8:35:58Z</time></trkpt>
<trkpt lat="46.2819786071777" lon="7.44877815246582"><ele></ele><time>2013-8-7T8:36:1Z</time></trkpt>
<trkpt lat="46.2820053100586" lon="7.44876527786255"><ele></ele><time>2013-8-7T8:36:4Z</time></trkpt>
<trkpt lat="46.2820320129394" lon="7.44875144958496"><ele></ele><time>2013-8-7T8:36:7Z</time></trkpt>
<trkpt lat="46.2820587158203" lon="7.44873428344726"><ele></ele><time>2013-8-7T8:36:10Z</time></trkpt>
<trkpt lat="46.2822113037109" lon="7.4486083984375"><ele></ele><time>2013-8-7T8:36:13Z</time></trkpt>
<trkpt lat="46.2823028564453" lon="7.44851350784302"><ele></ele><time>2013-8-7T8:36:16Z</time></trkpt>
<trkpt lat="46.2823257446289" lon="7.44849586486816"><ele></ele><time>2013-8-7T8:36:19Z</time></trkpt>
<trkpt lat="46.2823448181152" lon="7.44848012924194"><ele></ele><time>2013-8-7T8:36:22Z</time></trkpt>
<trkpt lat="46.2823638916016" lon="7.44846105575562"><ele></ele><time>2013-8-7T8:36:25Z</time></trkpt>
<trkpt lat="46.282398223877" lon="7.44842624664307"><ele></ele><time>2013-8-7T8:36:28Z</time></trkpt>
<trkpt lat="46.2824440002441" lon="7.44839239120483"><ele></ele><time>2013-8-7T8:36:31Z</time></trkpt>
<trkpt lat="46.2824668884277" lon="7.44837617874146"><ele></ele><time>2013-8-7T8:36:34Z</time></trkpt>
<trkpt lat="46.2824897766113" lon="7.44836044311524"><ele></ele><time>2013-8-7T8:36:37Z</time></trkpt>
<trkpt lat="46.2825088500977" lon="7.4483494758606"><ele></ele><time>2013-8-7T8:36:40Z</time></trkpt>
<trkpt lat="46.2825317382812" lon="7.44833517074585"><ele></ele><time>2013-8-7T8:36:43Z</time></trkpt>
<trkpt lat="46.2825736999512" lon="7.44830226898193"><ele></ele><time>2013-8-7T8:36:46Z</time></trkpt>
<trkpt lat="46.2826957702637" lon="7.44821214675903"><ele></ele><time>2013-8-7T8:36:49Z</time></trkpt>
<trkpt lat="46.2827377319336" lon="7.44819450378418"><ele></ele><time>2013-8-7T8:36:52Z</time></trkpt>
<trkpt lat="46.2827606201172" lon="7.44817972183228"><ele></ele><time>2013-8-7T8:36:55Z</time></trkpt>
<trkpt lat="46.2827796936035" lon="7.44816255569458"><ele></ele><time>2013-8-7T8:36:58Z</time></trkpt>
<trkpt lat="46.2828025817871" lon="7.44814682006836"><ele></ele><time>2013-8-7T8:37:1Z</time></trkpt>
<trkpt lat="46.2828254699707" lon="7.44812965393066"><ele></ele><time>2013-8-7T8:37:4Z</time></trkpt>
<trkpt lat="46.2829246520996" lon="7.44802284240723"><ele></ele><time>2013-8-7T8:37:7Z</time></trkpt>
<trkpt lat="46.2829513549805" lon="7.44800233840942"><ele></ele><time>2013-8-7T8:37:10Z</time></trkpt>
<trkpt lat="46.2829704284668" lon="7.44798946380615"><ele></ele><time>2013-8-7T8:37:13Z</time></trkpt>
<trkpt lat="46.2829933166504" lon="7.4479775428772"><ele></ele><time>2013-8-7T8:37:16Z</time></trkpt>
<trkpt lat="46.2830123901367" lon="7.44796943664551"><ele></ele><time>2013-8-7T8:37:19Z</time></trkpt>
<trkpt lat="46.2830581665039" lon="7.44794607162476"><ele></ele><time>2013-8-7T8:37:22Z</time></trkpt>
<trkpt lat="46.2831764221191" lon="7.44788408279419"><ele></ele><time>2013-8-7T8:37:25Z</time></trkpt>
<trkpt lat="46.2832260131836" lon="7.44786787033081"><ele></ele><time>2013-8-7T8:37:28Z</time></trkpt>
<trkpt lat="46.2832489013672" lon="7.4478588104248"><ele></ele><time>2013-8-7T8:37:31Z</time></trkpt>
<trkpt lat="46.2832679748535" lon="7.4478554725647"><ele></ele><time>2013-8-7T8:37:34Z</time></trkpt>
<trkpt lat="46.2832908630371" lon="7.44785690307617"><ele></ele><time>2013-8-7T8:37:37Z</time></trkpt>
<trkpt lat="46.2833137512207" lon="7.44785356521606"><ele></ele><time>2013-8-7T8:37:40Z</time></trkpt>
<trkpt lat="46.2834320068359" lon="7.44788455963135"><ele></ele><time>2013-8-7T8:37:43Z</time></trkpt>
<trkpt lat="46.2834548950195" lon="7.44789266586304"><ele></ele><time>2013-8-7T8:37:46Z</time></trkpt>
<trkpt lat="46.2834815979004" lon="7.44790172576904"><ele></ele><time>2013-8-7T8:37:49Z</time></trkpt>
<trkpt lat="46.2835006713867" lon="7.44790887832642"><ele></ele><time>2013-8-7T8:37:52Z</time></trkpt>
<trkpt lat="46.2835235595703" lon="7.4479193687439"><ele></ele><time>2013-8-7T8:37:55Z</time></trkpt>
<trkpt lat="46.2835464477539" lon="7.44793128967285"><ele></ele><time>2013-8-7T8:37:58Z</time></trkpt>
<trkpt lat="46.2835655212402" lon="7.44794225692749"><ele></ele><time>2013-8-7T8:38:1Z</time></trkpt>
<trkpt lat="46.2836685180664" lon="7.44798278808594"><ele></ele><time>2013-8-7T8:38:4Z</time></trkpt>
<trkpt lat="46.2836837768555" lon="7.44798946380615"><ele></ele><time>2013-8-7T8:38:7Z</time></trkpt>
<trkpt lat="46.2836990356445" lon="7.44799423217774"><ele></ele><time>2013-8-7T8:38:10Z</time></trkpt>
<trkpt lat="46.2837181091309" lon="7.447998046875"><ele></ele><time>2013-8-7T8:38:13Z</time></trkpt>
<trkpt lat="46.2837371826172" lon="7.44800710678101"><ele></ele><time>2013-8-7T8:38:16Z</time></trkpt>
<trkpt lat="46.283748626709" lon="7.4480185508728"><ele></ele><time>2013-8-7T8:38:19Z</time></trkpt>
<trkpt lat="46.2837715148926" lon="7.44802236557007"><ele></ele><time>2013-8-7T8:38:22Z</time></trkpt>
<trkpt lat="46.2838363647461" lon="7.44802188873291"><ele></ele><time>2013-8-7T8:38:25Z</time></trkpt>
<trkpt lat="46.283863067627" lon="7.44802236557007"><ele></ele><time>2013-8-7T8:38:28Z</time></trkpt>
<trkpt lat="46.2838859558106" lon="7.44801664352417"><ele></ele><time>2013-8-7T8:38:31Z</time></trkpt>
<trkpt lat="46.2839126586914" lon="7.44801044464111"><ele></ele><time>2013-8-7T8:38:34Z</time></trkpt>
<trkpt lat="46.2839393615723" lon="7.44800472259522"><ele></ele><time>2013-8-7T8:38:37Z</time></trkpt>
<trkpt lat="46.2839622497559" lon="7.44799900054932"><ele></ele><time>2013-8-7T8:38:40Z</time></trkpt>
<trkpt lat="46.2839889526367" lon="7.44798469543457"><ele></ele><time>2013-8-7T8:38:43Z</time></trkpt>
<trkpt lat="46.2841377258301" lon="7.44792699813843"><ele></ele><time>2013-8-7T8:38:46Z</time></trkpt>
<trkpt lat="46.2842254638672" lon="7.44787740707398"><ele></ele><time>2013-8-7T8:38:49Z</time></trkpt>
<trkpt lat="46.2842483520508" lon="7.4478645324707"><ele></ele><time>2013-8-7T8:38:52Z</time></trkpt>
<trkpt lat="46.2842712402344" lon="7.44785022735596"><ele></ele><time>2013-8-7T8:38:55Z</time></trkpt>
<trkpt lat="46.284294128418" lon="7.4478349685669"><ele></ele><time>2013-8-7T8:38:58Z</time></trkpt>
<trkpt lat="46.2843132019043" lon="7.44782161712646"><ele></ele><time>2013-8-7T8:39:1Z</time></trkpt>
<trkpt lat="46.2845153808594" lon="7.44768333435059"><ele></ele><time>2013-8-7T8:39:4Z</time></trkpt>
<trkpt lat="46.2845344543457" lon="7.447669506073"><ele></ele><time>2013-8-7T8:39:7Z</time></trkpt>
<trkpt lat="46.2845573425293" lon="7.44765615463257"><ele></ele><time>2013-8-7T8:39:10Z</time></trkpt>
<trkpt lat="46.2845802307129" lon="7.44764375686646"><ele></ele><time>2013-8-7T8:39:13Z</time></trkpt>
<trkpt lat="46.2846031188965" lon="7.44763040542602"><ele></ele><time>2013-8-7T8:39:16Z</time></trkpt>
<trkpt lat="46.2846946716309" lon="7.44757509231567"><ele></ele><time>2013-8-7T8:39:19Z</time></trkpt>
<trkpt lat="46.2848014831543" lon="7.44750642776489"><ele></ele><time>2013-8-7T8:39:22Z</time></trkpt>
<trkpt lat="46.2848243713379" lon="7.44749450683594"><ele></ele><time>2013-8-7T8:39:25Z</time></trkpt>
<trkpt lat="46.2848472595215" lon="7.4474778175354"><ele></ele><time>2013-8-7T8:39:28Z</time></trkpt>
<trkpt lat="46.2848663330078" lon="7.44746398925781"><ele></ele><time>2013-8-7T8:39:31Z</time></trkpt>
<trkpt lat="46.2848854064941" lon="7.44745397567749"><ele></ele><time>2013-8-7T8:39:34Z</time></trkpt>
<trkpt lat="46.2850189208984" lon="7.44742441177368"><ele></ele><time>2013-8-7T8:39:37Z</time></trkpt>
<trkpt lat="46.2850608825684" lon="7.44741678237915"><ele></ele><time>2013-8-7T8:39:40Z</time></trkpt>
<trkpt lat="46.285083770752" lon="7.4474139213562"><ele></ele><time>2013-8-7T8:39:43Z</time></trkpt>
<trkpt lat="46.2851066589356" lon="7.44741296768188"><ele></ele><time>2013-8-7T8:39:46Z</time></trkpt>
<trkpt lat="46.2851257324219" lon="7.44741487503052"><ele></ele><time>2013-8-7T8:39:49Z</time></trkpt>
<trkpt lat="46.2851486206055" lon="7.44741725921631"><ele></ele><time>2013-8-7T8:39:52Z</time></trkpt>
<trkpt lat="46.2852745056152" lon="7.44746589660644"><ele></ele><time>2013-8-7T8:39:55Z</time></trkpt>
<trkpt lat="46.285343170166" lon="7.44749736785889"><ele></ele><time>2013-8-7T8:39:58Z</time></trkpt>
<trkpt lat="46.2853622436523" lon="7.44751167297363"><ele></ele><time>2013-8-7T8:40:1Z</time></trkpt>
<trkpt lat="46.2853775024414" lon="7.44753074645996"><ele></ele><time>2013-8-7T8:40:4Z</time></trkpt>
<trkpt lat="46.2853965759277" lon="7.44754457473755"><ele></ele><time>2013-8-7T8:40:7Z</time></trkpt>
<trkpt lat="46.2854194641113" lon="7.44756078720093"><ele></ele><time>2013-8-7T8:40:10Z</time></trkpt>
<trkpt lat="46.2855415344238" lon="7.4476580619812"><ele></ele><time>2013-8-7T8:40:13Z</time></trkpt>
<trkpt lat="46.2855644226074" lon="7.44767570495606"><ele></ele><time>2013-8-7T8:40:16Z</time></trkpt>
<trkpt lat="46.285587310791" lon="7.44769239425659"><ele></ele><time>2013-8-7T8:40:19Z</time></trkpt>
<trkpt lat="46.2856063842773" lon="7.44770908355713"><ele></ele><time>2013-8-7T8:40:22Z</time></trkpt>
<trkpt lat="46.2856292724609" lon="7.44772863388062"><ele></ele><time>2013-8-7T8:40:25Z</time></trkpt>
<trkpt lat="46.2857360839844" lon="7.44782114028931"><ele></ele><time>2013-8-7T8:40:28Z</time></trkpt>
<trkpt lat="46.2859077453613" lon="7.4479398727417"><ele></ele><time>2013-8-7T8:40:31Z</time></trkpt>
<trkpt lat="46.2860527038574" lon="7.44800901412964"><ele></ele><time>2013-8-7T8:40:34Z</time></trkpt>
<trkpt lat="46.286075592041" lon="7.44801712036133"><ele></ele><time>2013-8-7T8:40:37Z</time></trkpt>
<trkpt lat="46.2861022949219" lon="7.44802474975586"><ele></ele><time>2013-8-7T8:40:40Z</time></trkpt>
<trkpt lat="46.2861289978027" lon="7.44802808761597"><ele></ele><time>2013-8-7T8:40:43Z</time></trkpt>
<trkpt lat="46.2862014770508" lon="7.44803237915039"><ele></ele><time>2013-8-7T8:40:46Z</time></trkpt>
<trkpt lat="46.2863388061523" lon="7.44803524017334"><ele></ele><time>2013-8-7T8:40:49Z</time></trkpt>
<trkpt lat="46.2863616943359" lon="7.44803619384766"><ele></ele><time>2013-8-7T8:40:52Z</time></trkpt>
<trkpt lat="46.2863807678223" lon="7.44803953170776"><ele></ele><time>2013-8-7T8:40:55Z</time></trkpt>
<trkpt lat="46.2864074707031" lon="7.44804382324219"><ele></ele><time>2013-8-7T8:40:58Z</time></trkpt>
<trkpt lat="46.2864265441894" lon="7.44804668426514"><ele></ele><time>2013-8-7T8:41:1Z</time></trkpt>
<trkpt lat="46.2865180969238" lon="7.4480619430542"><ele></ele><time>2013-8-7T8:41:4Z</time></trkpt>
<trkpt lat="46.2866134643555" lon="7.44809007644653"><ele></ele><time>2013-8-7T8:41:7Z</time></trkpt>
<trkpt lat="46.2866325378418" lon="7.44809818267822"><ele></ele><time>2013-8-7T8:41:10Z</time></trkpt>
<trkpt lat="46.2866592407227" lon="7.4481086730957"><ele></ele><time>2013-8-7T8:41:13Z</time></trkpt>
<trkpt lat="46.2866821289062" lon="7.44812154769898"><ele></ele><time>2013-8-7T8:41:16Z</time></trkpt>
<trkpt lat="46.2867050170898" lon="7.44813442230225"><ele></ele><time>2013-8-7T8:41:19Z</time></trkpt>
<trkpt lat="46.2868614196777" lon="7.44822072982788"><ele></ele><time>2013-8-7T8:41:22Z</time></trkpt>
<trkpt lat="46.2868766784668" lon="7.44823598861694"><ele></ele><time>2013-8-7T8:41:25Z</time></trkpt>
<trkpt lat="46.2868957519531" lon="7.44825267791748"><ele></ele><time>2013-8-7T8:41:28Z</time></trkpt>
<trkpt lat="46.2869148254394" lon="7.44826889038086"><ele></ele><time>2013-8-7T8:41:31Z</time></trkpt>
<trkpt lat="46.2869338989258" lon="7.44828271865845"><ele></ele><time>2013-8-7T8:41:34Z</time></trkpt>
<trkpt lat="46.2870712280273" lon="7.44838762283325"><ele></ele><time>2013-8-7T8:41:37Z</time></trkpt>
<trkpt lat="46.2870941162109" lon="7.44840478897095"><ele></ele><time>2013-8-7T8:41:40Z</time></trkpt>
<trkpt lat="46.2871170043945" lon="7.44842147827148"><ele></ele><time>2013-8-7T8:41:43Z</time></trkpt>
<trkpt lat="46.2871322631836" lon="7.4484395980835"><ele></ele><time>2013-8-7T8:41:46Z</time></trkpt>
<trkpt lat="46.2871513366699" lon="7.44845342636108"><ele></ele><time>2013-8-7T8:41:49Z</time></trkpt>
<trkpt lat="46.2872085571289" lon="7.4485011100769"><ele></ele><time>2013-8-7T8:41:52Z</time></trkpt>
<trkpt lat="46.2873115539551" lon="7.44857835769653"><ele></ele><time>2013-8-7T8:41:55Z</time></trkpt>
<trkpt lat="46.2873306274414" lon="7.44859457015991"><ele></ele><time>2013-8-7T8:41:58Z</time></trkpt>
<trkpt lat="46.2873497009277" lon="7.44861221313476"><ele></ele><time>2013-8-7T8:42:1Z</time></trkpt>
<trkpt lat="46.2873687744141" lon="7.44862842559814"><ele></ele><time>2013-8-7T8:42:4Z</time></trkpt>
<trkpt lat="46.2873878479004" lon="7.44864654541016"><ele></ele><time>2013-8-7T8:42:7Z</time></trkpt>
<trkpt lat="46.2875213623047" lon="7.44875907897949"><ele></ele><time>2013-8-7T8:42:10Z</time></trkpt>
<trkpt lat="46.2875442504883" lon="7.4487714767456"><ele></ele><time>2013-8-7T8:42:13Z</time></trkpt>
<trkpt lat="46.2875595092773" lon="7.44878911972046"><ele></ele><time>2013-8-7T8:42:16Z</time></trkpt>
<trkpt lat="46.2875785827637" lon="7.44880294799805"><ele></ele><time>2013-8-7T8:42:19Z</time></trkpt>
<trkpt lat="46.28759765625" lon="7.44882011413574"><ele></ele><time>2013-8-7T8:42:22Z</time></trkpt>
<trkpt lat="46.2876358032227" lon="7.44884634017944"><ele></ele><time>2013-8-7T8:42:25Z</time></trkpt>
<trkpt lat="46.287769317627" lon="7.44890642166138"><ele></ele><time>2013-8-7T8:42:28Z</time></trkpt>
<trkpt lat="46.2877960205078" lon="7.4489164352417"><ele></ele><time>2013-8-7T8:42:31Z</time></trkpt>
<trkpt lat="46.2878150939941" lon="7.4489254951477"><ele></ele><time>2013-8-7T8:42:34Z</time></trkpt>
<trkpt lat="46.2878341674805" lon="7.44893550872803"><ele></ele><time>2013-8-7T8:42:37Z</time></trkpt>
<trkpt lat="46.2878570556641" lon="7.44894552230835"><ele></ele><time>2013-8-7T8:42:40Z</time></trkpt>
<trkpt lat="46.2879867553711" lon="7.44897985458374"><ele></ele><time>2013-8-7T8:42:43Z</time></trkpt>
<trkpt lat="46.2880325317383" lon="7.44899082183838"><ele></ele><time>2013-8-7T8:42:46Z</time></trkpt>
<trkpt lat="46.2880554199219" lon="7.44899797439575"><ele></ele><time>2013-8-7T8:42:49Z</time></trkpt>
<trkpt lat="46.2880744934082" lon="7.44900274276733"><ele></ele><time>2013-8-7T8:42:52Z</time></trkpt>
<trkpt lat="46.2880973815918" lon="7.44901037216186"><ele></ele><time>2013-8-7T8:42:55Z</time></trkpt>
<trkpt lat="46.2881164550781" lon="7.44902038574219"><ele></ele><time>2013-8-7T8:42:58Z</time></trkpt>
<trkpt lat="46.2881660461426" lon="7.4490327835083"><ele></ele><time>2013-8-7T8:43:1Z</time></trkpt>
<trkpt lat="46.288257598877" lon="7.44905042648315"><ele></ele><time>2013-8-7T8:43:4Z</time></trkpt>
<trkpt lat="46.2882804870606" lon="7.44905471801758"><ele></ele><time>2013-8-7T8:43:7Z</time></trkpt>
<trkpt lat="46.2882995605469" lon="7.44906139373779"><ele></ele><time>2013-8-7T8:43:10Z</time></trkpt>
<trkpt lat="46.2883224487305" lon="7.44906520843506"><ele></ele><time>2013-8-7T8:43:13Z</time></trkpt>
<trkpt lat="46.2883415222168" lon="7.44907188415527"><ele></ele><time>2013-8-7T8:43:16Z</time></trkpt>
<trkpt lat="46.2883834838867" lon="7.44908571243286"><ele></ele><time>2013-8-7T8:43:19Z</time></trkpt>
<trkpt lat="46.2885398864746" lon="7.44912433624268"><ele></ele><time>2013-8-7T8:43:22Z</time></trkpt>
<trkpt lat="46.2885551452637" lon="7.44912767410278"><ele></ele><time>2013-8-7T8:43:25Z</time></trkpt>
<trkpt lat="46.2885780334473" lon="7.44912719726562"><ele></ele><time>2013-8-7T8:43:28Z</time></trkpt>
<trkpt lat="46.2886009216309" lon="7.44913291931152"><ele></ele><time>2013-8-7T8:43:31Z</time></trkpt>
<trkpt lat="46.2886276245117" lon="7.44913625717163"><ele></ele><time>2013-8-7T8:43:34Z</time></trkpt>
<trkpt lat="46.2886772155762" lon="7.44915056228638"><ele></ele><time>2013-8-7T8:43:37Z</time></trkpt>
<trkpt lat="46.2887954711914" lon="7.44918775558472"><ele></ele><time>2013-8-7T8:43:40Z</time></trkpt>
<trkpt lat="46.2888145446777" lon="7.44919919967651"><ele></ele><time>2013-8-7T8:43:43Z</time></trkpt>
<trkpt lat="46.2888374328613" lon="7.44920492172241"><ele></ele><time>2013-8-7T8:43:46Z</time></trkpt>
<trkpt lat="46.2888603210449" lon="7.44922161102295"><ele></ele><time>2013-8-7T8:43:49Z</time></trkpt>
<trkpt lat="46.2888832092285" lon="7.44923973083496"><ele></ele><time>2013-8-7T8:43:52Z</time></trkpt>
<trkpt lat="46.2889022827148" lon="7.44925451278686"><ele></ele><time>2013-8-7T8:43:55Z</time></trkpt>
<trkpt lat="46.2889785766602" lon="7.44931030273438"><ele></ele><time>2013-8-7T8:43:58Z</time></trkpt>
<trkpt lat="46.2890014648438" lon="7.44932556152344"><ele></ele><time>2013-8-7T8:44:1Z</time></trkpt>
<trkpt lat="46.2890243530273" lon="7.44933748245239"><ele></ele><time>2013-8-7T8:44:4Z</time></trkpt>
<trkpt lat="46.2890472412109" lon="7.44934511184692"><ele></ele><time>2013-8-7T8:44:7Z</time></trkpt>
<trkpt lat="46.2890739440918" lon="7.44935035705566"><ele></ele><time>2013-8-7T8:44:10Z</time></trkpt>
<trkpt lat="46.2891426086426" lon="7.4493818283081"><ele></ele><time>2013-8-7T8:44:13Z</time></trkpt>
<trkpt lat="46.2892761230469" lon="7.44945669174194"><ele></ele><time>2013-8-7T8:44:16Z</time></trkpt>
<trkpt lat="46.2892990112305" lon="7.44946765899658"><ele></ele><time>2013-8-7T8:44:19Z</time></trkpt>
<trkpt lat="46.2893218994141" lon="7.44948101043701"><ele></ele><time>2013-8-7T8:44:22Z</time></trkpt>
<trkpt lat="46.2893371582031" lon="7.44948625564575"><ele></ele><time>2013-8-7T8:44:25Z</time></trkpt>
<trkpt lat="46.2893981933594" lon="7.44952249526978"><ele></ele><time>2013-8-7T8:44:28Z</time></trkpt>
<trkpt lat="46.2895050048828" lon="7.44959402084351"><ele></ele><time>2013-8-7T8:44:31Z</time></trkpt>
<trkpt lat="46.2895278930664" lon="7.4495997428894"><ele></ele><time>2013-8-7T8:44:34Z</time></trkpt>
<trkpt lat="46.2895545959473" lon="7.44960308074951"><ele></ele><time>2013-8-7T8:44:37Z</time></trkpt>
<trkpt lat="46.2895774841309" lon="7.44961166381836"><ele></ele><time>2013-8-7T8:44:40Z</time></trkpt>
<trkpt lat="46.2896003723144" lon="7.44962358474732"><ele></ele><time>2013-8-7T8:44:43Z</time></trkpt>
<trkpt lat="46.2896690368652" lon="7.44966554641724"><ele></ele><time>2013-8-7T8:44:46Z</time></trkpt>
<trkpt lat="46.2897109985352" lon="7.44969177246094"><ele></ele><time>2013-8-7T8:44:49Z</time></trkpt>
<trkpt lat="46.2897300720215" lon="7.44970369338989"><ele></ele><time>2013-8-7T8:44:52Z</time></trkpt>
<trkpt lat="46.2897491455078" lon="7.44971227645874"><ele></ele><time>2013-8-7T8:44:55Z</time></trkpt>
<trkpt lat="46.2897644042969" lon="7.44971990585327"><ele></ele><time>2013-8-7T8:44:58Z</time></trkpt>
<trkpt lat="46.2897834777832" lon="7.44973182678223"><ele></ele><time>2013-8-7T8:45:1Z</time></trkpt>
<trkpt lat="46.2899360656738" lon="7.4498291015625"><ele></ele><time>2013-8-7T8:45:4Z</time></trkpt>
<trkpt lat="46.2899856567383" lon="7.44986248016357"><ele></ele><time>2013-8-7T8:45:7Z</time></trkpt>
<trkpt lat="46.2900085449219" lon="7.44987392425537"><ele></ele><time>2013-8-7T8:45:10Z</time></trkpt>
<trkpt lat="46.2900314331055" lon="7.44989156723022"><ele></ele><time>2013-8-7T8:45:13Z</time></trkpt>
<trkpt lat="46.2900505065918" lon="7.4499101638794"><ele></ele><time>2013-8-7T8:45:16Z</time></trkpt>
<trkpt lat="46.2900733947754" lon="7.44993114471436"><ele></ele><time>2013-8-7T8:45:19Z</time></trkpt>
<trkpt lat="46.2900924682617" lon="7.44995975494385"><ele></ele><time>2013-8-7T8:45:22Z</time></trkpt>
<trkpt lat="46.2901229858398" lon="7.45011758804321"><ele></ele><time>2013-8-7T8:45:25Z</time></trkpt>
<trkpt lat="46.2900924682617" lon="7.45018672943115"><ele></ele><time>2013-8-7T8:45:28Z</time></trkpt>
<trkpt lat="46.2900390625" lon="7.45022344589233"><ele></ele><time>2013-8-7T8:45:31Z</time></trkpt>
<trkpt lat="46.2899360656738" lon="7.45023155212402"><ele></ele><time>2013-8-7T8:45:34Z</time></trkpt>
<trkpt lat="46.2899131774902" lon="7.45022964477539"><ele></ele><time>2013-8-7T8:45:37Z</time></trkpt>
<trkpt lat="46.2898902893066" lon="7.45022439956665"><ele></ele><time>2013-8-7T8:45:40Z</time></trkpt>
<trkpt lat="46.2898712158203" lon="7.45021915435791"><ele></ele><time>2013-8-7T8:45:43Z</time></trkpt>
<trkpt lat="46.2897911071777" lon="7.45020246505737"><ele></ele><time>2013-8-7T8:45:46Z</time></trkpt>
<trkpt lat="46.2897720336914" lon="7.45020151138306"><ele></ele><time>2013-8-7T8:45:49Z</time></trkpt>
<trkpt lat="46.2897529602051" lon="7.45020389556885"><ele></ele><time>2013-8-7T8:45:52Z</time></trkpt>
<trkpt lat="46.2897338867188" lon="7.45020771026611"><ele></ele><time>2013-8-7T8:45:55Z</time></trkpt>
<trkpt lat="46.2897071838379" lon="7.45020580291748"><ele></ele><time>2013-8-7T8:45:58Z</time></trkpt>
<trkpt lat="46.2896842956543" lon="7.45020294189453"><ele></ele><time>2013-8-7T8:46:1Z</time></trkpt>
<trkpt lat="46.2896118164062" lon="7.45020484924316"><ele></ele><time>2013-8-7T8:46:4Z</time></trkpt>
<trkpt lat="46.2895965576172" lon="7.45021629333496"><ele></ele><time>2013-8-7T8:46:7Z</time></trkpt>
<trkpt lat="46.2895393371582" lon="7.45026254653931"><ele></ele><time>2013-8-7T8:46:10Z</time></trkpt>
<trkpt lat="46.2895011901856" lon="7.45031070709228"><ele></ele><time>2013-8-7T8:46:13Z</time></trkpt>
<trkpt lat="46.2894859313965" lon="7.45033359527588"><ele></ele><time>2013-8-7T8:46:16Z</time></trkpt>
<trkpt lat="46.2894706726074" lon="7.450355052948"><ele></ele><time>2013-8-7T8:46:19Z</time></trkpt>
<trkpt lat="46.2894515991211" lon="7.45037746429443"><ele></ele><time>2013-8-7T8:46:22Z</time></trkpt>
<trkpt lat="46.289436340332" lon="7.45040273666382"><ele></ele><time>2013-8-7T8:46:25Z</time></trkpt>
<trkpt lat="46.2893257141113" lon="7.45055818557739"><ele></ele><time>2013-8-7T8:46:28Z</time></trkpt>
<trkpt lat="46.2893104553223" lon="7.45058012008667"><ele></ele><time>2013-8-7T8:46:31Z</time></trkpt>
<trkpt lat="46.2892951965332" lon="7.45060682296753"><ele></ele><time>2013-8-7T8:46:34Z</time></trkpt>
<trkpt lat="46.2892799377441" lon="7.45063304901123"><ele></ele><time>2013-8-7T8:46:37Z</time></trkpt>
<trkpt lat="46.2892646789551" lon="7.45066213607788"><ele></ele><time>2013-8-7T8:46:40Z</time></trkpt>
<trkpt lat="46.289249420166" lon="7.45069026947022"><ele></ele><time>2013-8-7T8:46:43Z</time></trkpt>
<trkpt lat="46.2892379760742" lon="7.45071744918823"><ele></ele><time>2013-8-7T8:46:46Z</time></trkpt>
<trkpt lat="46.2891273498535" lon="7.45089960098267"><ele></ele><time>2013-8-7T8:46:49Z</time></trkpt>
<trkpt lat="46.2891159057617" lon="7.45092296600342"><ele></ele><time>2013-8-7T8:46:52Z</time></trkpt>
<trkpt lat="46.2891006469727" lon="7.45094633102417"><ele></ele><time>2013-8-7T8:46:55Z</time></trkpt>
<trkpt lat="46.2890853881836" lon="7.45097160339356"><ele></ele><time>2013-8-7T8:46:58Z</time></trkpt>
<trkpt lat="46.2890701293945" lon="7.45099878311157"><ele></ele><time>2013-8-7T8:47:1Z</time></trkpt>
<trkpt lat="46.2890472412109" lon="7.45105791091919"><ele></ele><time>2013-8-7T8:47:4Z</time></trkpt>
<trkpt lat="46.2889976501465" lon="7.45116853713989"><ele></ele><time>2013-8-7T8:47:7Z</time></trkpt>
<trkpt lat="46.2889862060547" lon="7.45120191574097"><ele></ele><time>2013-8-7T8:47:10Z</time></trkpt>
<trkpt lat="46.2889747619629" lon="7.45123100280762"><ele></ele><time>2013-8-7T8:47:13Z</time></trkpt>
<trkpt lat="46.2889709472656" lon="7.45126104354858"><ele></ele><time>2013-8-7T8:47:16Z</time></trkpt>
<trkpt lat="46.2889595031738" lon="7.4512882232666"><ele></ele><time>2013-8-7T8:47:19Z</time></trkpt>
<trkpt lat="46.2889518737793" lon="7.45141935348511"><ele></ele><time>2013-8-7T8:47:22Z</time></trkpt>
<trkpt lat="46.2889366149902" lon="7.45151662826538"><ele></ele><time>2013-8-7T8:47:25Z</time></trkpt>
<trkpt lat="46.2889289855957" lon="7.45155000686646"><ele></ele><time>2013-8-7T8:47:28Z</time></trkpt>
<trkpt lat="46.2889251708984" lon="7.4515814781189"><ele></ele><time>2013-8-7T8:47:31Z</time></trkpt>
<trkpt lat="46.2889251708984" lon="7.45161628723144"><ele></ele><time>2013-8-7T8:47:34Z</time></trkpt>
<trkpt lat="46.2889289855957" lon="7.45165109634399"><ele></ele><time>2013-8-7T8:47:37Z</time></trkpt>
<trkpt lat="46.2889251708984" lon="7.45188522338867"><ele></ele><time>2013-8-7T8:47:40Z</time></trkpt>
<trkpt lat="46.2889251708984" lon="7.45194911956787"><ele></ele><time>2013-8-7T8:47:43Z</time></trkpt>
<trkpt lat="46.2889251708984" lon="7.45198059082031"><ele></ele><time>2013-8-7T8:47:46Z</time></trkpt>
<trkpt lat="46.2889289855957" lon="7.4520149230957"><ele></ele><time>2013-8-7T8:47:49Z</time></trkpt>
<trkpt lat="46.288932800293" lon="7.45204734802246"><ele></ele><time>2013-8-7T8:47:52Z</time></trkpt>
<trkpt lat="46.2889366149902" lon="7.45207977294922"><ele></ele><time>2013-8-7T8:47:55Z</time></trkpt>
<trkpt lat="46.2889404296875" lon="7.45214653015137"><ele></ele><time>2013-8-7T8:47:58Z</time></trkpt>
<trkpt lat="46.2889366149902" lon="7.45233488082886"><ele></ele><time>2013-8-7T8:48:1Z</time></trkpt>
<trkpt lat="46.288932800293" lon="7.45236539840698"><ele></ele><time>2013-8-7T8:48:4Z</time></trkpt>
<trkpt lat="46.2889366149902" lon="7.45239639282226"><ele></ele><time>2013-8-7T8:48:7Z</time></trkpt>
<trkpt lat="46.2889366149902" lon="7.4524302482605"><ele></ele><time>2013-8-7T8:48:10Z</time></trkpt>
<trkpt lat="46.2889404296875" lon="7.45246696472168"><ele></ele><time>2013-8-7T8:48:13Z</time></trkpt>
<trkpt lat="46.2889404296875" lon="7.45259809494018"><ele></ele><time>2013-8-7T8:48:16Z</time></trkpt>
<trkpt lat="46.2889442443848" lon="7.45268726348877"><ele></ele><time>2013-8-7T8:48:19Z</time></trkpt>
<trkpt lat="46.2889442443848" lon="7.45272159576416"><ele></ele><time>2013-8-7T8:48:22Z</time></trkpt>
<trkpt lat="46.2889442443848" lon="7.45275735855102"><ele></ele><time>2013-8-7T8:48:25Z</time></trkpt>
<trkpt lat="46.2889404296875" lon="7.45279264450073"><ele></ele><time>2013-8-7T8:48:28Z</time></trkpt>
<trkpt lat="46.2889366149902" lon="7.45282649993896"><ele></ele><time>2013-8-7T8:48:31Z</time></trkpt>
<trkpt lat="46.2888793945312" lon="7.45300817489624"><ele></ele><time>2013-8-7T8:48:34Z</time></trkpt>
<trkpt lat="46.2888488769531" lon="7.45309782028198"><ele></ele><time>2013-8-7T8:48:37Z</time></trkpt>
<trkpt lat="46.2888450622559" lon="7.45312786102295"><ele></ele><time>2013-8-7T8:48:40Z</time></trkpt>
<trkpt lat="46.2888298034668" lon="7.45315170288086"><ele></ele><time>2013-8-7T8:48:43Z</time></trkpt>
<trkpt lat="46.288818359375" lon="7.4531774520874"><ele></ele><time>2013-8-7T8:48:46Z</time></trkpt>
<trkpt lat="46.2888031005859" lon="7.45320177078247"><ele></ele><time>2013-8-7T8:48:49Z</time></trkpt>
<trkpt lat="46.2886810302734" lon="7.45334196090698"><ele></ele><time>2013-8-7T8:48:52Z</time></trkpt>
<trkpt lat="46.2886619567871" lon="7.45335578918457"><ele></ele><time>2013-8-7T8:48:55Z</time></trkpt>
<trkpt lat="46.2886390686035" lon="7.45337200164795"><ele></ele><time>2013-8-7T8:48:58Z</time></trkpt>
<trkpt lat="46.2886161804199" lon="7.45339250564575"><ele></ele><time>2013-8-7T8:49:1Z</time></trkpt>
<trkpt lat="46.2885971069336" lon="7.45341110229492"><ele></ele><time>2013-8-7T8:49:4Z</time></trkpt>
<trkpt lat="46.2885856628418" lon="7.45343542098999"><ele></ele><time>2013-8-7T8:49:7Z</time></trkpt>
<trkpt lat="46.28857421875" lon="7.45346593856812"><ele></ele><time>2013-8-7T8:49:10Z</time></trkpt>
<trkpt lat="46.2885589599609" lon="7.45364284515381"><ele></ele><time>2013-8-7T8:49:13Z</time></trkpt>
<trkpt lat="46.2886047363281" lon="7.45376825332642"><ele></ele><time>2013-8-7T8:49:16Z</time></trkpt>
<trkpt lat="46.288631439209" lon="7.45378255844116"><ele></ele><time>2013-8-7T8:49:19Z</time></trkpt>
<trkpt lat="46.2886543273926" lon="7.45378923416138"><ele></ele><time>2013-8-7T8:49:22Z</time></trkpt>
<trkpt lat="46.2886772155762" lon="7.45379257202148"><ele></ele><time>2013-8-7T8:49:25Z</time></trkpt>
<trkpt lat="46.288703918457" lon="7.45379638671875"><ele></ele><time>2013-8-7T8:49:28Z</time></trkpt>
<trkpt lat="46.2887573242188" lon="7.45380020141602"><ele></ele><time>2013-8-7T8:49:31Z</time></trkpt>
<trkpt lat="46.2888793945312" lon="7.45381593704224"><ele></ele><time>2013-8-7T8:49:34Z</time></trkpt>
<trkpt lat="46.2890167236328" lon="7.45380353927612"><ele></ele><time>2013-8-7T8:49:37Z</time></trkpt>
<trkpt lat="46.2890319824219" lon="7.45379829406738"><ele></ele><time>2013-8-7T8:49:40Z</time></trkpt>
<trkpt lat="46.2890472412109" lon="7.45379590988159"><ele></ele><time>2013-8-7T8:49:43Z</time></trkpt>
<trkpt lat="46.2890625" lon="7.45379495620728"><ele></ele><time>2013-8-7T8:49:46Z</time></trkpt>
<trkpt lat="46.2890853881836" lon="7.45379066467285"><ele></ele><time>2013-8-7T8:49:49Z</time></trkpt>
<trkpt lat="46.2891082763672" lon="7.45378255844116"><ele></ele><time>2013-8-7T8:49:52Z</time></trkpt>
<trkpt lat="46.289134979248" lon="7.4537672996521"><ele></ele><time>2013-8-7T8:49:55Z</time></trkpt>
<trkpt lat="46.2892723083496" lon="7.45368671417236"><ele></ele><time>2013-8-7T8:49:58Z</time></trkpt>
<trkpt lat="46.2893447875977" lon="7.45364570617676"><ele></ele><time>2013-8-7T8:50:1Z</time></trkpt>
<trkpt lat="46.2893676757812" lon="7.45363235473633"><ele></ele><time>2013-8-7T8:50:4Z</time></trkpt>
<trkpt lat="46.2893943786621" lon="7.45361566543579"><ele></ele><time>2013-8-7T8:50:7Z</time></trkpt>
<trkpt lat="46.2894172668457" lon="7.4535984992981"><ele></ele><time>2013-8-7T8:50:10Z</time></trkpt>
<trkpt lat="46.2895660400391" lon="7.45346975326538"><ele></ele><time>2013-8-7T8:50:13Z</time></trkpt>
<trkpt lat="46.2896575927734" lon="7.45345401763916"><ele></ele><time>2013-8-7T8:50:16Z</time></trkpt>
<trkpt lat="46.2896766662598" lon="7.45345306396484"><ele></ele><time>2013-8-7T8:50:19Z</time></trkpt>
<trkpt lat="46.2896995544434" lon="7.45345640182495"><ele></ele><time>2013-8-7T8:50:22Z</time></trkpt>
<trkpt lat="46.289722442627" lon="7.45346784591675"><ele></ele><time>2013-8-7T8:50:25Z</time></trkpt>
<trkpt lat="46.289737701416" lon="7.45347929000854"><ele></ele><time>2013-8-7T8:50:28Z</time></trkpt>
<trkpt lat="46.289794921875" lon="7.45351839065552"><ele></ele><time>2013-8-7T8:50:31Z</time></trkpt>
<trkpt lat="46.2899055480957" lon="7.45357513427734"><ele></ele><time>2013-8-7T8:50:34Z</time></trkpt>
<trkpt lat="46.289924621582" lon="7.45358467102051"><ele></ele><time>2013-8-7T8:50:37Z</time></trkpt>
<trkpt lat="46.2899398803711" lon="7.45360136032104"><ele></ele><time>2013-8-7T8:50:40Z</time></trkpt>
<trkpt lat="46.2899551391602" lon="7.45360898971558"><ele></ele><time>2013-8-7T8:50:43Z</time></trkpt>
<trkpt lat="46.2899742126465" lon="7.45362043380737"><ele></ele><time>2013-8-7T8:50:46Z</time></trkpt>
<trkpt lat="46.2900619506836" lon="7.45368003845215"><ele></ele><time>2013-8-7T8:50:49Z</time></trkpt>
<trkpt lat="46.2901725769043" lon="7.45378255844116"><ele></ele><time>2013-8-7T8:50:52Z</time></trkpt>
<trkpt lat="46.2901916503906" lon="7.45380449295044"><ele></ele><time>2013-8-7T8:50:55Z</time></trkpt>
<trkpt lat="46.2902069091797" lon="7.45382165908814"><ele></ele><time>2013-8-7T8:50:58Z</time></trkpt>
<trkpt lat="46.290225982666" lon="7.4538369178772"><ele></ele><time>2013-8-7T8:51:1Z</time></trkpt>
<trkpt lat="46.2902412414551" lon="7.45386075973511"><ele></ele><time>2013-8-7T8:51:4Z</time></trkpt>
<trkpt lat="46.2903060913086" lon="7.45395803451538"><ele></ele><time>2013-8-7T8:51:7Z</time></trkpt>
<trkpt lat="46.2904090881348" lon="7.45409297943115"><ele></ele><time>2013-8-7T8:51:10Z</time></trkpt>
<trkpt lat="46.2904281616211" lon="7.45412635803223"><ele></ele><time>2013-8-7T8:51:13Z</time></trkpt>
<trkpt lat="46.2904434204102" lon="7.45415544509888"><ele></ele><time>2013-8-7T8:51:16Z</time></trkpt>
<trkpt lat="46.2904624938965" lon="7.4541802406311"><ele></ele><time>2013-8-7T8:51:19Z</time></trkpt>
<trkpt lat="46.2904777526856" lon="7.45420551300049"><ele></ele><time>2013-8-7T8:51:22Z</time></trkpt>
<trkpt lat="46.2905540466309" lon="7.4542932510376"><ele></ele><time>2013-8-7T8:51:25Z</time></trkpt>
<trkpt lat="46.2906608581543" lon="7.45435476303101"><ele></ele><time>2013-8-7T8:51:28Z</time></trkpt>
<trkpt lat="46.2906799316406" lon="7.45436191558838"><ele></ele><time>2013-8-7T8:51:31Z</time></trkpt>
<trkpt lat="46.290699005127" lon="7.45436763763428"><ele></ele><time>2013-8-7T8:51:34Z</time></trkpt>
<trkpt lat="46.2907218933106" lon="7.45436906814575"><ele></ele><time>2013-8-7T8:51:37Z</time></trkpt>
<trkpt lat="46.2907447814941" lon="7.45436143875122"><ele></ele><time>2013-8-7T8:51:40Z</time></trkpt>
<trkpt lat="46.2908172607422" lon="7.45431852340698"><ele></ele><time>2013-8-7T8:51:43Z</time></trkpt>
<trkpt lat="46.2909469604492" lon="7.4542064666748"><ele></ele><time>2013-8-7T8:51:46Z</time></trkpt>
<trkpt lat="46.291015625" lon="7.45415878295898"><ele></ele><time>2013-8-7T8:51:49Z</time></trkpt>
<trkpt lat="46.2910423278809" lon="7.4541506767273"><ele></ele><time>2013-8-7T8:51:52Z</time></trkpt>
<trkpt lat="46.2910652160644" lon="7.45414113998413"><ele></ele><time>2013-8-7T8:51:55Z</time></trkpt>
<trkpt lat="46.291088104248" lon="7.45413780212402"><ele></ele><time>2013-8-7T8:51:58Z</time></trkpt>
<trkpt lat="46.2911109924316" lon="7.4541335105896"><ele></ele><time>2013-8-7T8:52:1Z</time></trkpt>
<trkpt lat="46.2912559509277" lon="7.45409440994263"><ele></ele><time>2013-8-7T8:52:4Z</time></trkpt>
<trkpt lat="46.2913208007812" lon="7.4540753364563"><ele></ele><time>2013-8-7T8:52:7Z</time></trkpt>
<trkpt lat="46.2913436889648" lon="7.45407390594482"><ele></ele><time>2013-8-7T8:52:10Z</time></trkpt>
<trkpt lat="46.2913703918457" lon="7.45406818389893"><ele></ele><time>2013-8-7T8:52:13Z</time></trkpt>
<trkpt lat="46.2913932800293" lon="7.45406484603882"><ele></ele><time>2013-8-7T8:52:16Z</time></trkpt>
<trkpt lat="46.2914161682129" lon="7.45406246185303"><ele></ele><time>2013-8-7T8:52:19Z</time></trkpt>
<trkpt lat="46.2914428710938" lon="7.45405769348144"><ele></ele><time>2013-8-7T8:52:22Z</time></trkpt>
<trkpt lat="46.291576385498" lon="7.45401334762573"><ele></ele><time>2013-8-7T8:52:25Z</time></trkpt>
<trkpt lat="46.2916374206543" lon="7.45398473739624"><ele></ele><time>2013-8-7T8:52:28Z</time></trkpt>
<trkpt lat="46.2916564941406" lon="7.45396661758423"><ele></ele><time>2013-8-7T8:52:31Z</time></trkpt>
<trkpt lat="46.291675567627" lon="7.45395183563232"><ele></ele><time>2013-8-7T8:52:34Z</time></trkpt>
<trkpt lat="46.2916984558106" lon="7.45393657684326"><ele></ele><time>2013-8-7T8:52:37Z</time></trkpt>
<trkpt lat="46.2917213439941" lon="7.45392513275146"><ele></ele><time>2013-8-7T8:52:40Z</time></trkpt>
<trkpt lat="46.2918319702148" lon="7.4538402557373"><ele></ele><time>2013-8-7T8:52:43Z</time></trkpt>
<trkpt lat="46.2919158935547" lon="7.45376110076904"><ele></ele><time>2013-8-7T8:52:46Z</time></trkpt>
<trkpt lat="46.2919311523438" lon="7.45373630523682"><ele></ele><time>2013-8-7T8:52:49Z</time></trkpt>
<trkpt lat="46.2919464111328" lon="7.4537091255188"><ele></ele><time>2013-8-7T8:52:52Z</time></trkpt>
<trkpt lat="46.2919692993164" lon="7.45369052886963"><ele></ele><time>2013-8-7T8:52:55Z</time></trkpt>
<trkpt lat="46.2920265197754" lon="7.45359039306641"><ele></ele><time>2013-8-7T8:52:58Z</time></trkpt>
<trkpt lat="46.2920951843262" lon="7.45336484909058"><ele></ele><time>2013-8-7T8:53:1Z</time></trkpt>
<trkpt lat="46.2921028137207" lon="7.45333290100098"><ele></ele><time>2013-8-7T8:53:4Z</time></trkpt>
<trkpt lat="46.2921104431152" lon="7.45330429077148"><ele></ele><time>2013-8-7T8:53:7Z</time></trkpt>
<trkpt lat="46.292121887207" lon="7.45327711105347"><ele></ele><time>2013-8-7T8:53:10Z</time></trkpt>
<trkpt lat="46.2921295166016" lon="7.45324659347534"><ele></ele><time>2013-8-7T8:53:13Z</time></trkpt>
<trkpt lat="46.2921600341797" lon="7.45316123962402"><ele></ele><time>2013-8-7T8:53:16Z</time></trkpt>
<trkpt lat="46.2922019958496" lon="7.4530439376831"><ele></ele><time>2013-8-7T8:53:19Z</time></trkpt>
<trkpt lat="46.2922134399414" lon="7.45301675796509"><ele></ele><time>2013-8-7T8:53:22Z</time></trkpt>
<trkpt lat="46.2922210693359" lon="7.45297861099243"><ele></ele><time>2013-8-7T8:53:25Z</time></trkpt>
<trkpt lat="46.2922325134277" lon="7.45294523239136"><ele></ele><time>2013-8-7T8:53:28Z</time></trkpt>
<trkpt lat="46.2923431396484" lon="7.45280838012695"><ele></ele><time>2013-8-7T8:53:31Z</time></trkpt>
<trkpt lat="46.2924270629883" lon="7.45274972915649"><ele></ele><time>2013-8-7T8:53:34Z</time></trkpt>
<trkpt lat="46.2924461364746" lon="7.45273542404175"><ele></ele><time>2013-8-7T8:53:37Z</time></trkpt>
<trkpt lat="46.2924690246582" lon="7.45272207260132"><ele></ele><time>2013-8-7T8:53:40Z</time></trkpt>
<trkpt lat="46.2924919128418" lon="7.45270347595215"><ele></ele><time>2013-8-7T8:53:43Z</time></trkpt>
<trkpt lat="46.2925109863281" lon="7.45268297195435"><ele></ele><time>2013-8-7T8:53:46Z</time></trkpt>
<trkpt lat="46.292610168457" lon="7.45256757736206"><ele></ele><time>2013-8-7T8:53:49Z</time></trkpt>
<trkpt lat="46.2926292419434" lon="7.45254182815552"><ele></ele><time>2013-8-7T8:53:52Z</time></trkpt>
<trkpt lat="46.2926406860352" lon="7.45251941680908"><ele></ele><time>2013-8-7T8:53:55Z</time></trkpt>
<trkpt lat="46.2926559448242" lon="7.45249223709106"><ele></ele><time>2013-8-7T8:53:58Z</time></trkpt>
<trkpt lat="46.292667388916" lon="7.45247030258179"><ele></ele><time>2013-8-7T8:54:1Z</time></trkpt>
<trkpt lat="46.2927169799805" lon="7.45232629776001"><ele></ele><time>2013-8-7T8:54:4Z</time></trkpt>
<trkpt lat="46.2927780151367" lon="7.4521541595459"><ele></ele><time>2013-8-7T8:54:7Z</time></trkpt>
<trkpt lat="46.2927856445312" lon="7.45212268829346"><ele></ele><time>2013-8-7T8:54:10Z</time></trkpt>
<trkpt lat="46.2927932739258" lon="7.45209360122681"><ele></ele><time>2013-8-7T8:54:13Z</time></trkpt>
<trkpt lat="46.292797088623" lon="7.45206356048584"><ele></ele><time>2013-8-7T8:54:16Z</time></trkpt>
<trkpt lat="46.2928009033203" lon="7.45203256607056"><ele></ele><time>2013-8-7T8:54:19Z</time></trkpt>
<trkpt lat="46.2928237915039" lon="7.45190238952637"><ele></ele><time>2013-8-7T8:54:22Z</time></trkpt>
<trkpt lat="46.292839050293" lon="7.45176696777344"><ele></ele><time>2013-8-7T8:54:25Z</time></trkpt>
<trkpt lat="46.2928428649902" lon="7.45173263549805"><ele></ele><time>2013-8-7T8:54:28Z</time></trkpt>
<trkpt lat="46.2928428649902" lon="7.45169496536255"><ele></ele><time>2013-8-7T8:54:31Z</time></trkpt>
<trkpt lat="46.2928466796875" lon="7.45166063308716"><ele></ele><time>2013-8-7T8:54:34Z</time></trkpt>
<trkpt lat="46.2929039001465" lon="7.45145320892334"><ele></ele><time>2013-8-7T8:54:37Z</time></trkpt>
<trkpt lat="46.2929458618164" lon="7.45133590698242"><ele></ele><time>2013-8-7T8:54:40Z</time></trkpt>
<trkpt lat="46.2929534912109" lon="7.4512996673584"><ele></ele><time>2013-8-7T8:54:43Z</time></trkpt>
<trkpt lat="46.2929611206055" lon="7.45126819610596"><ele></ele><time>2013-8-7T8:54:46Z</time></trkpt>
<trkpt lat="46.2929725646973" lon="7.45123481750488"><ele></ele><time>2013-8-7T8:54:49Z</time></trkpt>
<trkpt lat="46.2929840087891" lon="7.45120668411255"><ele></ele><time>2013-8-7T8:54:52Z</time></trkpt>
<trkpt lat="46.2930450439453" lon="7.45105743408203"><ele></ele><time>2013-8-7T8:54:55Z</time></trkpt>
<trkpt lat="46.2930603027344" lon="7.4510350227356"><ele></ele><time>2013-8-7T8:54:58Z</time></trkpt>
<trkpt lat="46.293140411377" lon="7.45093107223511"><ele></ele><time>2013-8-7T8:55:1Z</time></trkpt>
<trkpt lat="46.2931594848633" lon="7.45091438293457"><ele></ele><time>2013-8-7T8:55:4Z</time></trkpt>
<trkpt lat="46.2931785583496" lon="7.4508957862854"><ele></ele><time>2013-8-7T8:55:7Z</time></trkpt>
<trkpt lat="46.2932014465332" lon="7.45087480545044"><ele></ele><time>2013-8-7T8:55:10Z</time></trkpt>
<trkpt lat="46.2932205200195" lon="7.45085859298706"><ele></ele><time>2013-8-7T8:55:13Z</time></trkpt>
<trkpt lat="46.2932395935059" lon="7.450843334198"><ele></ele><time>2013-8-7T8:55:16Z</time></trkpt>
<trkpt lat="46.2932777404785" lon="7.45081377029419"><ele></ele><time>2013-8-7T8:55:19Z</time></trkpt>
<trkpt lat="46.2934074401856" lon="7.45075607299805"><ele></ele><time>2013-8-7T8:55:22Z</time></trkpt>
<trkpt lat="46.2934265136719" lon="7.45074653625488"><ele></ele><time>2013-8-7T8:55:25Z</time></trkpt>
<trkpt lat="46.2934494018555" lon="7.45073366165161"><ele></ele><time>2013-8-7T8:55:28Z</time></trkpt>
<trkpt lat="46.2934722900391" lon="7.4507246017456"><ele></ele><time>2013-8-7T8:55:31Z</time></trkpt>
<trkpt lat="46.2934951782227" lon="7.45071887969971"><ele></ele><time>2013-8-7T8:55:34Z</time></trkpt>
<trkpt lat="46.293586730957" lon="7.45069169998169"><ele></ele><time>2013-8-7T8:55:37Z</time></trkpt>
<trkpt lat="46.2937088012695" lon="7.4506630897522"><ele></ele><time>2013-8-7T8:55:40Z</time></trkpt>
<trkpt lat="46.2937240600586" lon="7.45066213607788"><ele></ele><time>2013-8-7T8:55:43Z</time></trkpt>
<trkpt lat="46.2937431335449" lon="7.45065927505493"><ele></ele><time>2013-8-7T8:55:46Z</time></trkpt>
<trkpt lat="46.2937622070312" lon="7.45064306259155"><ele></ele><time>2013-8-7T8:55:49Z</time></trkpt>
<trkpt lat="46.2937850952148" lon="7.45062589645386"><ele></ele><time>2013-8-7T8:55:52Z</time></trkpt>
<trkpt lat="46.2938613891602" lon="7.45059585571289"><ele></ele><time>2013-8-7T8:55:55Z</time></trkpt>
<trkpt lat="46.2939376831055" lon="7.45048379898071"><ele></ele><time>2013-8-7T8:55:58Z</time></trkpt>
<trkpt lat="46.2939529418945" lon="7.45043802261352"><ele></ele><time>2013-8-7T8:56:1Z</time></trkpt>
<trkpt lat="46.2939682006836" lon="7.45040035247803"><ele></ele><time>2013-8-7T8:56:4Z</time></trkpt>
<trkpt lat="46.2939910888672" lon="7.45036745071411"><ele></ele><time>2013-8-7T8:56:7Z</time></trkpt>
<trkpt lat="46.2940063476562" lon="7.45033740997314"><ele></ele><time>2013-8-7T8:56:10Z</time></trkpt>
<trkpt lat="46.2940521240234" lon="7.45024585723877"><ele></ele><time>2013-8-7T8:56:13Z</time></trkpt>
<trkpt lat="46.294132232666" lon="7.45002365112305"><ele></ele><time>2013-8-7T8:56:16Z</time></trkpt>
<trkpt lat="46.2941513061523" lon="7.44998550415039"><ele></ele><time>2013-8-7T8:56:19Z</time></trkpt>
<trkpt lat="46.2941703796387" lon="7.44996118545532"><ele></ele><time>2013-8-7T8:56:22Z</time></trkpt>
<trkpt lat="46.2941856384277" lon="7.44993305206299"><ele></ele><time>2013-8-7T8:56:25Z</time></trkpt>
<trkpt lat="46.2942047119141" lon="7.44990825653076"><ele></ele><time>2013-8-7T8:56:28Z</time></trkpt>
<trkpt lat="46.2942276000977" lon="7.44988393783569"><ele></ele><time>2013-8-7T8:56:31Z</time></trkpt>
<trkpt lat="46.2943725585938" lon="7.44973659515381"><ele></ele><time>2013-8-7T8:56:34Z</time></trkpt>
<trkpt lat="46.2943954467773" lon="7.44971752166748"><ele></ele><time>2013-8-7T8:56:37Z</time></trkpt>
<trkpt lat="46.2944183349609" lon="7.44970178604126"><ele></ele><time>2013-8-7T8:56:40Z</time></trkpt>
<trkpt lat="46.2944412231445" lon="7.44968605041504"><ele></ele><time>2013-8-7T8:56:43Z</time></trkpt>
<trkpt lat="46.2944602966309" lon="7.4496660232544"><ele></ele><time>2013-8-7T8:56:46Z</time></trkpt>
<trkpt lat="46.2945137023926" lon="7.44960308074951"><ele></ele><time>2013-8-7T8:56:49Z</time></trkpt>
<trkpt lat="46.2946090698242" lon="7.44954347610474"><ele></ele><time>2013-8-7T8:56:52Z</time></trkpt>
<trkpt lat="46.2946243286133" lon="7.44952440261841"><ele></ele><time>2013-8-7T8:56:55Z</time></trkpt>
<trkpt lat="46.2946472167969" lon="7.44951009750366"><ele></ele><time>2013-8-7T8:56:58Z</time></trkpt>
<trkpt lat="46.2946662902832" lon="7.44949865341186"><ele></ele><time>2013-8-7T8:57:1Z</time></trkpt>
<trkpt lat="46.2946891784668" lon="7.44949007034302"><ele></ele><time>2013-8-7T8:57:4Z</time></trkpt>
<trkpt lat="46.2948036193848" lon="7.44943761825562"><ele></ele><time>2013-8-7T8:57:7Z</time></trkpt>
<trkpt lat="46.2948837280273" lon="7.44943284988403"><ele></ele><time>2013-8-7T8:57:10Z</time></trkpt>
<trkpt lat="46.2949066162109" lon="7.44943189620972"><ele></ele><time>2013-8-7T8:57:13Z</time></trkpt>
<trkpt lat="46.2949295043945" lon="7.44943523406982"><ele></ele><time>2013-8-7T8:57:16Z</time></trkpt>
<trkpt lat="46.2949523925781" lon="7.44943475723267"><ele></ele><time>2013-8-7T8:57:19Z</time></trkpt>
<trkpt lat="46.2949752807617" lon="7.44943523406982"><ele></ele><time>2013-8-7T8:57:22Z</time></trkpt>
<trkpt lat="46.2951393127441" lon="7.44944095611572"><ele></ele><time>2013-8-7T8:57:25Z</time></trkpt>
<trkpt lat="46.295166015625" lon="7.44943809509277"><ele></ele><time>2013-8-7T8:57:28Z</time></trkpt>
<trkpt lat="46.2951889038086" lon="7.44943904876709"><ele></ele><time>2013-8-7T8:57:31Z</time></trkpt>
<trkpt lat="46.2952117919922" lon="7.44943952560425"><ele></ele><time>2013-8-7T8:57:34Z</time></trkpt>
<trkpt lat="46.2952346801758" lon="7.44944190979004"><ele></ele><time>2013-8-7T8:57:37Z</time></trkpt>
<trkpt lat="46.2952575683594" lon="7.44944763183594"><ele></ele><time>2013-8-7T8:57:40Z</time></trkpt>
<trkpt lat="46.2953300476074" lon="7.44944620132446"><ele></ele><time>2013-8-7T8:57:43Z</time></trkpt>
<trkpt lat="46.2955055236816" lon="7.44945287704468"><ele></ele><time>2013-8-7T8:57:46Z</time></trkpt>
<trkpt lat="46.2955284118652" lon="7.44945764541626"><ele></ele><time>2013-8-7T8:57:49Z</time></trkpt>
<trkpt lat="46.2955513000488" lon="7.44945764541626"><ele></ele><time>2013-8-7T8:57:52Z</time></trkpt>
<trkpt lat="46.2955741882324" lon="7.44946098327637"><ele></ele><time>2013-8-7T8:57:55Z</time></trkpt>
<trkpt lat="46.295597076416" lon="7.44946765899658"><ele></ele><time>2013-8-7T8:57:58Z</time></trkpt>
<trkpt lat="46.2956199645996" lon="7.44946813583374"><ele></ele><time>2013-8-7T8:58:1Z</time></trkpt>
<trkpt lat="46.2957801818848" lon="7.44946956634522"><ele></ele><time>2013-8-7T8:58:4Z</time></trkpt>
<trkpt lat="46.2958068847656" lon="7.44947290420532"><ele></ele><time>2013-8-7T8:58:7Z</time></trkpt>
<trkpt lat="46.295825958252" lon="7.4494833946228"><ele></ele><time>2013-8-7T8:58:10Z</time></trkpt>
<trkpt lat="46.2958488464356" lon="7.44949960708618"><ele></ele><time>2013-8-7T8:58:13Z</time></trkpt>
<trkpt lat="46.2958717346191" lon="7.44951105117798"><ele></ele><time>2013-8-7T8:58:16Z</time></trkpt>
<trkpt lat="46.2959175109863" lon="7.44954967498779"><ele></ele><time>2013-8-7T8:58:19Z</time></trkpt>
<trkpt lat="46.2960243225098" lon="7.44967126846314"><ele></ele><time>2013-8-7T8:58:22Z</time></trkpt>
<trkpt lat="46.2960395812988" lon="7.44969606399536"><ele></ele><time>2013-8-7T8:58:25Z</time></trkpt>
<trkpt lat="46.2960548400879" lon="7.4497218132019"><ele></ele><time>2013-8-7T8:58:28Z</time></trkpt>
<trkpt lat="46.296070098877" lon="7.44974565505982"><ele></ele><time>2013-8-7T8:58:31Z</time></trkpt>
<trkpt lat="46.2960891723633" lon="7.44976997375488"><ele></ele><time>2013-8-7T8:58:34Z</time></trkpt>
<trkpt lat="46.2961959838867" lon="7.44990587234497"><ele></ele><time>2013-8-7T8:58:37Z</time></trkpt>
<trkpt lat="46.296215057373" lon="7.44992733001709"><ele></ele><time>2013-8-7T8:58:40Z</time></trkpt>
<trkpt lat="46.2962341308594" lon="7.44994926452637"><ele></ele><time>2013-8-7T8:58:43Z</time></trkpt>
<trkpt lat="46.296257019043" lon="7.44996881484985"><ele></ele><time>2013-8-7T8:58:46Z</time></trkpt>
<trkpt lat="46.2962837219238" lon="7.44998407363892"><ele></ele><time>2013-8-7T8:58:49Z</time></trkpt>
<trkpt lat="46.2963523864746" lon="7.45003414154053"><ele></ele><time>2013-8-7T8:58:52Z</time></trkpt>
<trkpt lat="46.2964820861816" lon="7.45013904571533"><ele></ele><time>2013-8-7T8:58:55Z</time></trkpt>
<trkpt lat="46.2965087890625" lon="7.45015668869018"><ele></ele><time>2013-8-7T8:58:58Z</time></trkpt>
<trkpt lat="46.2965278625488" lon="7.45017385482788"><ele></ele><time>2013-8-7T8:59:1Z</time></trkpt>
<trkpt lat="46.2965545654297" lon="7.45018768310547"><ele></ele><time>2013-8-7T8:59:4Z</time></trkpt>
<trkpt lat="46.2965774536133" lon="7.45020341873169"><ele></ele><time>2013-8-7T8:59:7Z</time></trkpt>
<trkpt lat="46.2967300415039" lon="7.45025253295898"><ele></ele><time>2013-8-7T8:59:10Z</time></trkpt>
<trkpt lat="46.2968063354492" lon="7.45025777816772"><ele></ele><time>2013-8-7T8:59:13Z</time></trkpt>
<trkpt lat="46.2968292236328" lon="7.45025396347046"><ele></ele><time>2013-8-7T8:59:16Z</time></trkpt>
<trkpt lat="46.2968521118164" lon="7.45024394989014"><ele></ele><time>2013-8-7T8:59:19Z</time></trkpt>
<trkpt lat="46.296875" lon="7.4502329826355"><ele></ele><time>2013-8-7T8:59:22Z</time></trkpt>
<trkpt lat="46.2968978881836" lon="7.45022296905518"><ele></ele><time>2013-8-7T8:59:25Z</time></trkpt>
<trkpt lat="46.2969245910644" lon="7.45021390914917"><ele></ele><time>2013-8-7T8:59:28Z</time></trkpt>
<trkpt lat="46.297046661377" lon="7.45015525817871"><ele></ele><time>2013-8-7T8:59:31Z</time></trkpt>
<trkpt lat="46.2971000671387" lon="7.45012950897217"><ele></ele><time>2013-8-7T8:59:34Z</time></trkpt>
<trkpt lat="46.2971267700195" lon="7.45012474060059"><ele></ele><time>2013-8-7T8:59:37Z</time></trkpt>
<trkpt lat="46.2971534729004" lon="7.45011806488037"><ele></ele><time>2013-8-7T8:59:40Z</time></trkpt>
<trkpt lat="46.2971801757812" lon="7.45011615753174"><ele></ele><time>2013-8-7T8:59:43Z</time></trkpt>
<trkpt lat="46.2972030639648" lon="7.45011281967163"><ele></ele><time>2013-8-7T8:59:46Z</time></trkpt>
<trkpt lat="46.2973785400391" lon="7.45009994506836"><ele></ele><time>2013-8-7T8:59:49Z</time></trkpt>
<trkpt lat="46.2974014282227" lon="7.4501051902771"><ele></ele><time>2013-8-7T8:59:52Z</time></trkpt>
<trkpt lat="46.2974319458008" lon="7.45010852813721"><ele></ele><time>2013-8-7T8:59:55Z</time></trkpt>
<trkpt lat="46.2974548339844" lon="7.45011758804321"><ele></ele><time>2013-8-7T8:59:58Z</time></trkpt>
<trkpt lat="46.2975540161133" lon="7.45012712478638"><ele></ele><time>2013-8-7T9:0:1Z</time></trkpt>
<trkpt lat="46.2976760864258" lon="7.45014810562134"><ele></ele><time>2013-8-7T9:0:4Z</time></trkpt>
<trkpt lat="46.2976951599121" lon="7.45015335083008"><ele></ele><time>2013-8-7T9:0:7Z</time></trkpt>
<trkpt lat="46.2977142333984" lon="7.45016574859619"><ele></ele><time>2013-8-7T9:0:10Z</time></trkpt>
<trkpt lat="46.2977409362793" lon="7.45017242431641"><ele></ele><time>2013-8-7T9:0:13Z</time></trkpt>
<trkpt lat="46.2977638244629" lon="7.45019006729126"><ele></ele><time>2013-8-7T9:0:16Z</time></trkpt>
<trkpt lat="46.2978706359863" lon="7.45023584365845"><ele></ele><time>2013-8-7T9:0:19Z</time></trkpt>
<trkpt lat="46.297981262207" lon="7.45028829574585"><ele></ele><time>2013-8-7T9:0:22Z</time></trkpt>
<trkpt lat="46.2980117797852" lon="7.45030164718628"><ele></ele><time>2013-8-7T9:0:25Z</time></trkpt>
<trkpt lat="46.298038482666" lon="7.45031547546387"><ele></ele><time>2013-8-7T9:0:28Z</time></trkpt>
<trkpt lat="46.2980651855469" lon="7.45032835006714"><ele></ele><time>2013-8-7T9:0:31Z</time></trkpt>
<trkpt lat="46.2980918884277" lon="7.45033502578735"><ele></ele><time>2013-8-7T9:0:34Z</time></trkpt>
<trkpt lat="46.2982940673828" lon="7.45044231414795"><ele></ele><time>2013-8-7T9:0:37Z</time></trkpt>
<trkpt lat="46.2983169555664" lon="7.45046663284302"><ele></ele><time>2013-8-7T9:0:40Z</time></trkpt>
<trkpt lat="46.2983436584473" lon="7.45048666000366"><ele></ele><time>2013-8-7T9:0:43Z</time></trkpt>
<trkpt lat="46.2983665466309" lon="7.45050621032715"><ele></ele><time>2013-8-7T9:0:46Z</time></trkpt>
<trkpt lat="46.2983894348144" lon="7.45052909851074"><ele></ele><time>2013-8-7T9:0:49Z</time></trkpt>
<trkpt lat="46.2984352111816" lon="7.45056915283203"><ele></ele><time>2013-8-7T9:0:52Z</time></trkpt>
<trkpt lat="46.2985725402832" lon="7.45068597793579"><ele></ele><time>2013-8-7T9:0:55Z</time></trkpt>
<trkpt lat="46.2985954284668" lon="7.45070600509644"><ele></ele><time>2013-8-7T9:0:58Z</time></trkpt>
<trkpt lat="46.2986145019531" lon="7.45072507858276"><ele></ele><time>2013-8-7T9:1:1Z</time></trkpt>
<trkpt lat="46.2986335754394" lon="7.45074892044067"><ele></ele><time>2013-8-7T9:1:4Z</time></trkpt>
<trkpt lat="46.2986793518066" lon="7.45086574554443"><ele></ele><time>2013-8-7T9:1:7Z</time></trkpt>
<trkpt lat="46.2986145019531" lon="7.45089054107666"><ele></ele><time>2013-8-7T9:1:10Z</time></trkpt>
<trkpt lat="46.2985305786133" lon="7.4508843421936"><ele></ele><time>2013-8-7T9:1:13Z</time></trkpt>
<trkpt lat="46.2984771728516" lon="7.4508786201477"><ele></ele><time>2013-8-7T9:1:16Z</time></trkpt>
<trkpt lat="46.2984466552734" lon="7.45087337493896"><ele></ele><time>2013-8-7T9:1:19Z</time></trkpt>
<trkpt lat="46.2984199523926" lon="7.4508752822876"><ele></ele><time>2013-8-7T9:1:22Z</time></trkpt>
<trkpt lat="46.2983932495117" lon="7.45087957382202"><ele></ele><time>2013-8-7T9:1:25Z</time></trkpt>
<trkpt lat="46.2983665466309" lon="7.45087957382202"><ele></ele><time>2013-8-7T9:1:28Z</time></trkpt>
<trkpt lat="46.2982711791992" lon="7.45090961456299"><ele></ele><time>2013-8-7T9:1:31Z</time></trkpt>
<trkpt lat="46.2981452941894" lon="7.45098257064819"><ele></ele><time>2013-8-7T9:1:34Z</time></trkpt>
<trkpt lat="46.2981262207031" lon="7.451003074646"><ele></ele><time>2013-8-7T9:1:37Z</time></trkpt>
<trkpt lat="46.2981033325195" lon="7.45102787017822"><ele></ele><time>2013-8-7T9:1:40Z</time></trkpt>
<trkpt lat="46.2980804443359" lon="7.45104598999024"><ele></ele><time>2013-8-7T9:1:43Z</time></trkpt>
<trkpt lat="46.297966003418" lon="7.45117616653442"><ele></ele><time>2013-8-7T9:1:46Z</time></trkpt>
<trkpt lat="46.2978820800781" lon="7.45125865936279"><ele></ele><time>2013-8-7T9:1:49Z</time></trkpt>
<trkpt lat="46.2978591918945" lon="7.4512734413147"><ele></ele><time>2013-8-7T9:1:52Z</time></trkpt>
<trkpt lat="46.2978401184082" lon="7.45128965377808"><ele></ele><time>2013-8-7T9:1:55Z</time></trkpt>
<trkpt lat="46.2978172302246" lon="7.45130920410156"><ele></ele><time>2013-8-7T9:1:58Z</time></trkpt>
<trkpt lat="46.2977981567383" lon="7.45132684707642"><ele></ele><time>2013-8-7T9:2:1Z</time></trkpt>
<trkpt lat="46.2977714538574" lon="7.45133781433106"><ele></ele><time>2013-8-7T9:2:4Z</time></trkpt>
<trkpt lat="46.2976226806641" lon="7.45147562026978"><ele></ele><time>2013-8-7T9:2:7Z</time></trkpt>
<trkpt lat="46.2976036071777" lon="7.45149087905884"><ele></ele><time>2013-8-7T9:2:10Z</time></trkpt>
<trkpt lat="46.2975845336914" lon="7.45150661468506"><ele></ele><time>2013-8-7T9:2:13Z</time></trkpt>
<trkpt lat="46.2975654602051" lon="7.45152807235718"><ele></ele><time>2013-8-7T9:2:16Z</time></trkpt>
<trkpt lat="46.2975425720215" lon="7.45154285430908"><ele></ele><time>2013-8-7T9:2:19Z</time></trkpt>
<trkpt lat="46.297492980957" lon="7.45158338546753"><ele></ele><time>2013-8-7T9:2:22Z</time></trkpt>
<trkpt lat="46.2974090576172" lon="7.45165634155274"><ele></ele><time>2013-8-7T9:2:25Z</time></trkpt>
<trkpt lat="46.2973861694336" lon="7.45167589187622"><ele></ele><time>2013-8-7T9:2:28Z</time></trkpt>
<trkpt lat="46.2973670959473" lon="7.45169115066528"><ele></ele><time>2013-8-7T9:2:31Z</time></trkpt>
<trkpt lat="46.2973480224609" lon="7.45171451568604"><ele></ele><time>2013-8-7T9:2:34Z</time></trkpt>
<trkpt lat="46.2973213195801" lon="7.451735496521"><ele></ele><time>2013-8-7T9:2:37Z</time></trkpt>
<trkpt lat="46.2972145080566" lon="7.45183515548706"><ele></ele><time>2013-8-7T9:2:40Z</time></trkpt>
<trkpt lat="46.2971725463867" lon="7.45187997817993"><ele></ele><time>2013-8-7T9:2:43Z</time></trkpt>
<trkpt lat="46.2971496582031" lon="7.45189714431763"><ele></ele><time>2013-8-7T9:2:46Z</time></trkpt>
<trkpt lat="46.2971343994141" lon="7.45192289352417"><ele></ele><time>2013-8-7T9:2:49Z</time></trkpt>
<trkpt lat="46.2971153259277" lon="7.4519453048706"><ele></ele><time>2013-8-7T9:2:52Z</time></trkpt>
<trkpt lat="46.2970962524414" lon="7.45197010040283"><ele></ele><time>2013-8-7T9:2:55Z</time></trkpt>
<trkpt lat="46.297004699707" lon="7.45209789276123"><ele></ele><time>2013-8-7T9:2:58Z</time></trkpt>
<trkpt lat="46.2969627380371" lon="7.45218849182129"><ele></ele><time>2013-8-7T9:3:1Z</time></trkpt>
<trkpt lat="46.2969512939453" lon="7.452223777771"><ele></ele><time>2013-8-7T9:3:4Z</time></trkpt>
<trkpt lat="46.2969398498535" lon="7.45225286483765"><ele></ele><time>2013-8-7T9:3:7Z</time></trkpt>
<trkpt lat="46.2969360351562" lon="7.45228576660156"><ele></ele><time>2013-8-7T9:3:10Z</time></trkpt>
<trkpt lat="46.2969245910644" lon="7.45231914520264"><ele></ele><time>2013-8-7T9:3:13Z</time></trkpt>
<trkpt lat="46.2969093322754" lon="7.45239353179932"><ele></ele><time>2013-8-7T9:3:16Z</time></trkpt>
<trkpt lat="46.2968864440918" lon="7.45260667800903"><ele></ele><time>2013-8-7T9:3:19Z</time></trkpt>
<trkpt lat="46.2968902587891" lon="7.45264482498169"><ele></ele><time>2013-8-7T9:3:22Z</time></trkpt>
<trkpt lat="46.2968902587891" lon="7.45268249511719"><ele></ele><time>2013-8-7T9:3:25Z</time></trkpt>
<trkpt lat="46.2968902587891" lon="7.45272016525268"><ele></ele><time>2013-8-7T9:3:28Z</time></trkpt>
<trkpt lat="46.2968902587891" lon="7.45275592803955"><ele></ele><time>2013-8-7T9:3:31Z</time></trkpt>
<trkpt lat="46.2969245910644" lon="7.45296287536621"><ele></ele><time>2013-8-7T9:3:34Z</time></trkpt>
<trkpt lat="46.2969360351562" lon="7.45303297042847"><ele></ele><time>2013-8-7T9:3:37Z</time></trkpt>
<trkpt lat="46.2969436645508" lon="7.45306873321533"><ele></ele><time>2013-8-7T9:3:40Z</time></trkpt>
<trkpt lat="46.296947479248" lon="7.45310401916504"><ele></ele><time>2013-8-7T9:3:43Z</time></trkpt>
<trkpt lat="46.2969551086426" lon="7.45314407348633"><ele></ele><time>2013-8-7T9:3:46Z</time></trkpt>
<trkpt lat="46.2969627380371" lon="7.45318078994751"><ele></ele><time>2013-8-7T9:3:49Z</time></trkpt>
<trkpt lat="46.2969703674316" lon="7.45321464538574"><ele></ele><time>2013-8-7T9:3:52Z</time></trkpt>
<trkpt lat="46.297004699707" lon="7.4534158706665"><ele></ele><time>2013-8-7T9:3:55Z</time></trkpt>
<trkpt lat="46.2970123291016" lon="7.45345115661621"><ele></ele><time>2013-8-7T9:3:58Z</time></trkpt>
<trkpt lat="46.2970199584961" lon="7.45348405838013"><ele></ele><time>2013-8-7T9:4:1Z</time></trkpt>
<trkpt lat="46.2970237731934" lon="7.45351696014404"><ele></ele><time>2013-8-7T9:4:4Z</time></trkpt>
<trkpt lat="46.2970314025879" lon="7.45354986190796"><ele></ele><time>2013-8-7T9:4:7Z</time></trkpt>
<trkpt lat="46.2970695495606" lon="7.45375537872314"><ele></ele><time>2013-8-7T9:4:10Z</time></trkpt>
<trkpt lat="46.2970771789551" lon="7.4537878036499"><ele></ele><time>2013-8-7T9:4:13Z</time></trkpt>
<trkpt lat="46.2970809936523" lon="7.45382261276245"><ele></ele><time>2013-8-7T9:4:16Z</time></trkpt>
<trkpt lat="46.2970848083496" lon="7.45385932922363"><ele></ele><time>2013-8-7T9:4:19Z</time></trkpt>
<trkpt lat="46.2970924377441" lon="7.45389413833618"><ele></ele><time>2013-8-7T9:4:22Z</time></trkpt>
<trkpt lat="46.2971115112305" lon="7.45399761199951"><ele></ele><time>2013-8-7T9:4:25Z</time></trkpt>
<trkpt lat="46.2971229553223" lon="7.45406913757324"><ele></ele><time>2013-8-7T9:4:28Z</time></trkpt>
<trkpt lat="46.2971267700195" lon="7.45410299301148"><ele></ele><time>2013-8-7T9:4:31Z</time></trkpt>
<trkpt lat="46.2971229553223" lon="7.45414018630982"><ele></ele><time>2013-8-7T9:4:34Z</time></trkpt>
<trkpt lat="46.2971305847168" lon="7.45417213439941"><ele></ele><time>2013-8-7T9:4:37Z</time></trkpt>
<trkpt lat="46.2971343994141" lon="7.45420408248901"><ele></ele><time>2013-8-7T9:4:40Z</time></trkpt>
<trkpt lat="46.2971420288086" lon="7.45423603057861"><ele></ele><time>2013-8-7T9:4:43Z</time></trkpt>
<trkpt lat="46.2971534729004" lon="7.45439291000366"><ele></ele><time>2013-8-7T9:4:46Z</time></trkpt>
<trkpt lat="46.2971611022949" lon="7.45447397232056"><ele></ele><time>2013-8-7T9:4:49Z</time></trkpt>
<trkpt lat="46.2971687316894" lon="7.45451259613037"><ele></ele><time>2013-8-7T9:4:52Z</time></trkpt>
<trkpt lat="46.2971687316894" lon="7.45455312728882"><ele></ele><time>2013-8-7T9:4:55Z</time></trkpt>
<trkpt lat="46.297176361084" lon="7.45459318161011"><ele></ele><time>2013-8-7T9:4:58Z</time></trkpt>
<trkpt lat="46.2971839904785" lon="7.45462322235107"><ele></ele><time>2013-8-7T9:5:1Z</time></trkpt>
<trkpt lat="46.2972106933594" lon="7.45479774475098"><ele></ele><time>2013-8-7T9:5:4Z</time></trkpt>
<trkpt lat="46.2972145080566" lon="7.45483589172363"><ele></ele><time>2013-8-7T9:5:7Z</time></trkpt>
<trkpt lat="46.2972183227539" lon="7.45487213134766"><ele></ele><time>2013-8-7T9:5:10Z</time></trkpt>
<trkpt lat="46.2972145080566" lon="7.45491361618042"><ele></ele><time>2013-8-7T9:5:13Z</time></trkpt>
<trkpt lat="46.2972106933594" lon="7.45494937896728"><ele></ele><time>2013-8-7T9:5:16Z</time></trkpt>
<trkpt lat="46.2972221374512" lon="7.45514297485352"><ele></ele><time>2013-8-7T9:5:19Z</time></trkpt>
<trkpt lat="46.2972183227539" lon="7.45526742935181"><ele></ele><time>2013-8-7T9:5:22Z</time></trkpt>
<trkpt lat="46.2972145080566" lon="7.45530939102173"><ele></ele><time>2013-8-7T9:5:25Z</time></trkpt>
<trkpt lat="46.2972221374512" lon="7.45534563064575"><ele></ele><time>2013-8-7T9:5:28Z</time></trkpt>
<trkpt lat="46.2972259521484" lon="7.45538282394409"><ele></ele><time>2013-8-7T9:5:31Z</time></trkpt>
<trkpt lat="46.297233581543" lon="7.45542144775391"><ele></ele><time>2013-8-7T9:5:34Z</time></trkpt>
<trkpt lat="46.297248840332" lon="7.45571374893188"><ele></ele><time>2013-8-7T9:5:37Z</time></trkpt>
<trkpt lat="46.297248840332" lon="7.4557523727417"><ele></ele><time>2013-8-7T9:5:40Z</time></trkpt>
<trkpt lat="46.297248840332" lon="7.4557957649231"><ele></ele><time>2013-8-7T9:5:43Z</time></trkpt>
<trkpt lat="46.2972526550293" lon="7.45583534240723"><ele></ele><time>2013-8-7T9:5:46Z</time></trkpt>
<trkpt lat="46.2972564697266" lon="7.45587348937988"><ele></ele><time>2013-8-7T9:5:49Z</time></trkpt>
<trkpt lat="46.2972640991211" lon="7.45598793029785"><ele></ele><time>2013-8-7T9:5:52Z</time></trkpt>
<trkpt lat="46.2972640991211" lon="7.45623016357422"><ele></ele><time>2013-8-7T9:5:55Z</time></trkpt>
<trkpt lat="46.2972602844238" lon="7.45627021789551"><ele></ele><time>2013-8-7T9:5:58Z</time></trkpt>
<trkpt lat="46.2972602844238" lon="7.45631170272827"><ele></ele><time>2013-8-7T9:6:1Z</time></trkpt>
<trkpt lat="46.2972602844238" lon="7.4563479423523"><ele></ele><time>2013-8-7T9:6:4Z</time></trkpt>
<trkpt lat="46.2972602844238" lon="7.45639038085938"><ele></ele><time>2013-8-7T9:6:7Z</time></trkpt>
<trkpt lat="46.2972602844238" lon="7.45645713806152"><ele></ele><time>2013-8-7T9:6:10Z</time></trkpt>
<trkpt lat="46.2972755432129" lon="7.45660448074341"><ele></ele><time>2013-8-7T9:6:13Z</time></trkpt>
<trkpt lat="46.2972793579102" lon="7.45663547515869"><ele></ele><time>2013-8-7T9:6:16Z</time></trkpt>
<trkpt lat="46.2972831726074" lon="7.45667171478272"><ele></ele><time>2013-8-7T9:6:19Z</time></trkpt>
<trkpt lat="46.2972831726074" lon="7.4567060470581"><ele></ele><time>2013-8-7T9:6:22Z</time></trkpt>
<trkpt lat="46.297290802002" lon="7.45673656463623"><ele></ele><time>2013-8-7T9:6:25Z</time></trkpt>
<trkpt lat="46.2973022460938" lon="7.45696306228638"><ele></ele><time>2013-8-7T9:6:28Z</time></trkpt>
<trkpt lat="46.297306060791" lon="7.4569935798645"><ele></ele><time>2013-8-7T9:6:31Z</time></trkpt>
<trkpt lat="46.2973098754883" lon="7.45703172683716"><ele></ele><time>2013-8-7T9:6:34Z</time></trkpt>
<trkpt lat="46.2973175048828" lon="7.45707368850708"><ele></ele><time>2013-8-7T9:6:37Z</time></trkpt>
<trkpt lat="46.2973175048828" lon="7.45711898803711"><ele></ele><time>2013-8-7T9:6:40Z</time></trkpt>
<trkpt lat="46.2973327636719" lon="7.45724534988403"><ele></ele><time>2013-8-7T9:6:43Z</time></trkpt>
<trkpt lat="46.2973327636719" lon="7.45732021331787"><ele></ele><time>2013-8-7T9:6:46Z</time></trkpt>
<trkpt lat="46.2973365783691" lon="7.45735216140747"><ele></ele><time>2013-8-7T9:6:49Z</time></trkpt>
<trkpt lat="46.2973442077637" lon="7.45738840103149"><ele></ele><time>2013-8-7T9:6:52Z</time></trkpt>
<trkpt lat="46.2973480224609" lon="7.45742321014404"><ele></ele><time>2013-8-7T9:6:55Z</time></trkpt>
<trkpt lat="46.2973518371582" lon="7.45745611190796"><ele></ele><time>2013-8-7T9:6:58Z</time></trkpt>
<trkpt lat="46.2973556518555" lon="7.45749282836914"><ele></ele><time>2013-8-7T9:7:1Z</time></trkpt>
<trkpt lat="46.2973670959473" lon="7.45766019821167"><ele></ele><time>2013-8-7T9:7:4Z</time></trkpt>
<trkpt lat="46.29736328125" lon="7.4576940536499"><ele></ele><time>2013-8-7T9:7:7Z</time></trkpt>
<trkpt lat="46.2973709106445" lon="7.45772933959961"><ele></ele><time>2013-8-7T9:7:10Z</time></trkpt>
<trkpt lat="46.2973747253418" lon="7.45776128768921"><ele></ele><time>2013-8-7T9:7:13Z</time></trkpt>
<trkpt lat="46.2973785400391" lon="7.45779228210449"><ele></ele><time>2013-8-7T9:7:16Z</time></trkpt>
<trkpt lat="46.2973861694336" lon="7.45803070068359"><ele></ele><time>2013-8-7T9:7:19Z</time></trkpt>
<trkpt lat="46.2973899841309" lon="7.45806503295898"><ele></ele><time>2013-8-7T9:7:22Z</time></trkpt>
<trkpt lat="46.2973899841309" lon="7.45809602737427"><ele></ele><time>2013-8-7T9:7:25Z</time></trkpt>
<trkpt lat="46.2973937988281" lon="7.4581298828125"><ele></ele><time>2013-8-7T9:7:28Z</time></trkpt>
<trkpt lat="46.2973937988281" lon="7.45816516876221"><ele></ele><time>2013-8-7T9:7:31Z</time></trkpt>
<trkpt lat="46.2973937988281" lon="7.45823574066162"><ele></ele><time>2013-8-7T9:7:34Z</time></trkpt>
<trkpt lat="46.2974052429199" lon="7.4583568572998"><ele></ele><time>2013-8-7T9:7:37Z</time></trkpt>
<trkpt lat="46.2974090576172" lon="7.45840549468994"><ele></ele><time>2013-8-7T9:7:40Z</time></trkpt>
<trkpt lat="46.2974128723144" lon="7.45845031738281"><ele></ele><time>2013-8-7T9:7:43Z</time></trkpt>
<trkpt lat="46.2974128723144" lon="7.45849514007568"><ele></ele><time>2013-8-7T9:7:46Z</time></trkpt>
<trkpt lat="46.2974128723144" lon="7.45853996276856"><ele></ele><time>2013-8-7T9:7:49Z</time></trkpt>
<trkpt lat="46.2974128723144" lon="7.4587287902832"><ele></ele><time>2013-8-7T9:7:52Z</time></trkpt>
<trkpt lat="46.2974128723144" lon="7.45877361297607"><ele></ele><time>2013-8-7T9:7:55Z</time></trkpt>
<trkpt lat="46.2974128723144" lon="7.45882177352905"><ele></ele><time>2013-8-7T9:7:58Z</time></trkpt>
<trkpt lat="46.2974166870117" lon="7.45886182785034"><ele></ele><time>2013-8-7T9:8:1Z</time></trkpt>
<trkpt lat="46.2974166870117" lon="7.45890998840332"><ele></ele><time>2013-8-7T9:8:4Z</time></trkpt>
<trkpt lat="46.297435760498" lon="7.45913410186768"><ele></ele><time>2013-8-7T9:8:7Z</time></trkpt>
<trkpt lat="46.2974395751953" lon="7.45917701721191"><ele></ele><time>2013-8-7T9:8:10Z</time></trkpt>
<trkpt lat="46.2974472045898" lon="7.45922136306763"><ele></ele><time>2013-8-7T9:8:13Z</time></trkpt>
<trkpt lat="46.2974510192871" lon="7.45926570892334"><ele></ele><time>2013-8-7T9:8:16Z</time></trkpt>
<trkpt lat="46.2974700927734" lon="7.45948553085327"><ele></ele><time>2013-8-7T9:8:19Z</time></trkpt>
<trkpt lat="46.2974739074707" lon="7.45952892303467"><ele></ele><time>2013-8-7T9:8:22Z</time></trkpt>
<trkpt lat="46.2974739074707" lon="7.45957279205322"><ele></ele><time>2013-8-7T9:8:25Z</time></trkpt>
<trkpt lat="46.297477722168" lon="7.45961999893188"><ele></ele><time>2013-8-7T9:8:28Z</time></trkpt>
<trkpt lat="46.297477722168" lon="7.45966005325317"><ele></ele><time>2013-8-7T9:8:31Z</time></trkpt>
<trkpt lat="46.2974853515625" lon="7.45993995666504"><ele></ele><time>2013-8-7T9:8:34Z</time></trkpt>
<trkpt lat="46.2974853515625" lon="7.45998334884644"><ele></ele><time>2013-8-7T9:8:37Z</time></trkpt>
<trkpt lat="46.2974815368652" lon="7.46002531051636"><ele></ele><time>2013-8-7T9:8:40Z</time></trkpt>
<trkpt lat="46.2974853515625" lon="7.4600715637207"><ele></ele><time>2013-8-7T9:8:43Z</time></trkpt>
<trkpt lat="46.2974853515625" lon="7.46011447906494"><ele></ele><time>2013-8-7T9:8:46Z</time></trkpt>
<trkpt lat="46.2974967956543" lon="7.46023654937744"><ele></ele><time>2013-8-7T9:8:49Z</time></trkpt>
<trkpt lat="46.2975044250488" lon="7.46031475067139"><ele></ele><time>2013-8-7T9:8:52Z</time></trkpt>
<trkpt lat="46.2975082397461" lon="7.46035575866699"><ele></ele><time>2013-8-7T9:8:55Z</time></trkpt>
<trkpt lat="46.2975120544434" lon="7.4603967666626"><ele></ele><time>2013-8-7T9:8:58Z</time></trkpt>
<trkpt lat="46.2975120544434" lon="7.46044301986694"><ele></ele><time>2013-8-7T9:9:1Z</time></trkpt>
<trkpt lat="46.2975120544434" lon="7.46048927307129"><ele></ele><time>2013-8-7T9:9:4Z</time></trkpt>
<trkpt lat="46.2975311279297" lon="7.46062231063843"><ele></ele><time>2013-8-7T9:9:7Z</time></trkpt>
<trkpt lat="46.2975463867188" lon="7.46079063415527"><ele></ele><time>2013-8-7T9:9:10Z</time></trkpt>
<trkpt lat="46.2975463867188" lon="7.46083116531372"><ele></ele><time>2013-8-7T9:9:13Z</time></trkpt>
<trkpt lat="46.297550201416" lon="7.46088123321533"><ele></ele><time>2013-8-7T9:9:16Z</time></trkpt>
<trkpt lat="46.297550201416" lon="7.46092748641968"><ele></ele><time>2013-8-7T9:9:19Z</time></trkpt>
<trkpt lat="46.2975463867188" lon="7.46097326278686"><ele></ele><time>2013-8-7T9:9:22Z</time></trkpt>
<trkpt lat="46.2975692749023" lon="7.46123218536377"><ele></ele><time>2013-8-7T9:9:25Z</time></trkpt>
<trkpt lat="46.2975845336914" lon="7.46140909194946"><ele></ele><time>2013-8-7T9:9:28Z</time></trkpt>
<trkpt lat="46.2975845336914" lon="7.46145582199097"><ele></ele><time>2013-8-7T9:9:31Z</time></trkpt>
<trkpt lat="46.2975883483887" lon="7.46150493621826"><ele></ele><time>2013-8-7T9:9:34Z</time></trkpt>
<trkpt lat="46.2975883483887" lon="7.46154975891113"><ele></ele><time>2013-8-7T9:9:37Z</time></trkpt>
<trkpt lat="46.2975921630859" lon="7.4615969657898"><ele></ele><time>2013-8-7T9:9:40Z</time></trkpt>
<trkpt lat="46.2976226806641" lon="7.46200084686279"><ele></ele><time>2013-8-7T9:9:43Z</time></trkpt>
<trkpt lat="46.2976188659668" lon="7.46206140518188"><ele></ele><time>2013-8-7T9:9:46Z</time></trkpt>
<trkpt lat="46.2976341247559" lon="7.46232509613037"><ele></ele><time>2013-8-7T9:9:49Z</time></trkpt>
<trkpt lat="46.2976379394531" lon="7.46238040924072"><ele></ele><time>2013-8-7T9:9:52Z</time></trkpt>
<trkpt lat="46.2976379394531" lon="7.46243333816528"><ele></ele><time>2013-8-7T9:9:55Z</time></trkpt>
<trkpt lat="46.2976455688477" lon="7.46248912811279"><ele></ele><time>2013-8-7T9:9:58Z</time></trkpt>
<trkpt lat="46.2976493835449" lon="7.46254444122314"><ele></ele><time>2013-8-7T9:10:1Z</time></trkpt>
<trkpt lat="46.2976608276367" lon="7.46280908584595"><ele></ele><time>2013-8-7T9:10:4Z</time></trkpt>
<trkpt lat="46.2976875305176" lon="7.46313428878784"><ele></ele><time>2013-8-7T9:10:7Z</time></trkpt>
<trkpt lat="46.2976875305176" lon="7.46319007873535"><ele></ele><time>2013-8-7T9:10:10Z</time></trkpt>
<trkpt lat="46.2976989746094" lon="7.4634599685669"><ele></ele><time>2013-8-7T9:10:13Z</time></trkpt>
<trkpt lat="46.2977104187012" lon="7.46369361877441"><ele></ele><time>2013-8-7T9:10:16Z</time></trkpt>
<trkpt lat="46.2977294921875" lon="7.46392822265625"><ele></ele><time>2013-8-7T9:10:19Z</time></trkpt>
<trkpt lat="46.2977447509766" lon="7.46417760848999"><ele></ele><time>2013-8-7T9:10:22Z</time></trkpt>
<trkpt lat="46.2977523803711" lon="7.46443367004394"><ele></ele><time>2013-8-7T9:10:25Z</time></trkpt>
<trkpt lat="46.2977676391602" lon="7.46457004547119"><ele></ele><time>2013-8-7T9:10:28Z</time></trkpt>
<trkpt lat="46.2977714538574" lon="7.46463918685913"><ele></ele><time>2013-8-7T9:10:31Z</time></trkpt>
<trkpt lat="46.2977981567383" lon="7.46509075164795"><ele></ele><time>2013-8-7T9:10:34Z</time></trkpt>
<trkpt lat="46.2978057861328" lon="7.46526336669922"><ele></ele><time>2013-8-7T9:10:37Z</time></trkpt>
<trkpt lat="46.2978172302246" lon="7.46543645858765"><ele></ele><time>2013-8-7T9:10:40Z</time></trkpt>
<trkpt lat="46.2978248596191" lon="7.46552848815918"><ele></ele><time>2013-8-7T9:10:43Z</time></trkpt>
<trkpt lat="46.2978286743164" lon="7.46562051773071"><ele></ele><time>2013-8-7T9:10:46Z</time></trkpt>
<trkpt lat="46.2978363037109" lon="7.46572208404541"><ele></ele><time>2013-8-7T9:10:49Z</time></trkpt>
<trkpt lat="46.2978401184082" lon="7.46582126617432"><ele></ele><time>2013-8-7T9:10:52Z</time></trkpt>
<trkpt lat="46.2978477478027" lon="7.46592330932617"><ele></ele><time>2013-8-7T9:10:55Z</time></trkpt>
<trkpt lat="46.2978591918945" lon="7.46613311767578"><ele></ele><time>2013-8-7T9:10:58Z</time></trkpt>
<trkpt lat="46.2978630065918" lon="7.46623802185059"><ele></ele><time>2013-8-7T9:11:1Z</time></trkpt>
<trkpt lat="46.2978668212891" lon="7.46634674072266"><ele></ele><time>2013-8-7T9:11:4Z</time></trkpt>
<trkpt lat="46.2978744506836" lon="7.46644687652588"><ele></ele><time>2013-8-7T9:11:7Z</time></trkpt>
<trkpt lat="46.2978820800781" lon="7.46655178070068"><ele></ele><time>2013-8-7T9:11:10Z</time></trkpt>
<trkpt lat="46.2978897094727" lon="7.46666383743286"><ele></ele><time>2013-8-7T9:11:13Z</time></trkpt>
<trkpt lat="46.2978973388672" lon="7.46677112579346"><ele></ele><time>2013-8-7T9:11:16Z</time></trkpt>
<trkpt lat="46.297908782959" lon="7.46688079833984"><ele></ele><time>2013-8-7T9:11:19Z</time></trkpt>
<trkpt lat="46.2979164123535" lon="7.46699523925781"><ele></ele><time>2013-8-7T9:11:22Z</time></trkpt>
<trkpt lat="46.297924041748" lon="7.46710872650146"><ele></ele><time>2013-8-7T9:11:25Z</time></trkpt>
<trkpt lat="46.2979316711426" lon="7.46721744537354"><ele></ele><time>2013-8-7T9:11:28Z</time></trkpt>
<trkpt lat="46.2979393005371" lon="7.46732568740845"><ele></ele><time>2013-8-7T9:11:31Z</time></trkpt>
<trkpt lat="46.2979431152344" lon="7.46743154525757"><ele></ele><time>2013-8-7T9:11:34Z</time></trkpt>
<trkpt lat="46.2979850769043" lon="7.46771001815796"><ele></ele><time>2013-8-7T9:11:37Z</time></trkpt>
<trkpt lat="46.2980117797852" lon="7.4677996635437"><ele></ele><time>2013-8-7T9:11:40Z</time></trkpt>
<trkpt lat="46.298038482666" lon="7.46789121627808"><ele></ele><time>2013-8-7T9:11:43Z</time></trkpt>
<trkpt lat="46.2980690002441" lon="7.46796703338623"><ele></ele><time>2013-8-7T9:11:46Z</time></trkpt>
<trkpt lat="46.2980918884277" lon="7.46803426742554"><ele></ele><time>2013-8-7T9:11:49Z</time></trkpt>
<trkpt lat="46.2981033325195" lon="7.4680986404419"><ele></ele><time>2013-8-7T9:11:52Z</time></trkpt>
<trkpt lat="46.2980880737305" lon="7.46815013885498"><ele></ele><time>2013-8-7T9:11:55Z</time></trkpt>
<trkpt lat="46.2980766296387" lon="7.46824073791504"><ele></ele><time>2013-8-7T9:11:58Z</time></trkpt>
<trkpt lat="46.2980880737305" lon="7.46829891204834"><ele></ele><time>2013-8-7T9:12:1Z</time></trkpt>
<trkpt lat="46.298095703125" lon="7.4683575630188"><ele></ele><time>2013-8-7T9:12:4Z</time></trkpt>
<trkpt lat="46.2981185913086" lon="7.4684624671936"><ele></ele><time>2013-8-7T9:12:7Z</time></trkpt>
<trkpt lat="46.2981414794922" lon="7.46853971481323"><ele></ele><time>2013-8-7T9:12:10Z</time></trkpt>
<trkpt lat="46.2981643676758" lon="7.46862268447876"><ele></ele><time>2013-8-7T9:12:13Z</time></trkpt>
<trkpt lat="46.298168182373" lon="7.4686598777771"><ele></ele><time>2013-8-7T9:12:16Z</time></trkpt>
<trkpt lat="46.2981796264648" lon="7.46870279312134"><ele></ele><time>2013-8-7T9:12:19Z</time></trkpt>
<trkpt lat="46.2981910705566" lon="7.46874141693115"><ele></ele><time>2013-8-7T9:12:22Z</time></trkpt>
<trkpt lat="46.2982025146484" lon="7.46877765655518"><ele></ele><time>2013-8-7T9:12:25Z</time></trkpt>
<trkpt lat="46.2982368469238" lon="7.46888256072998"><ele></ele><time>2013-8-7T9:12:28Z</time></trkpt>
<trkpt lat="46.2982406616211" lon="7.46891975402832"><ele></ele><time>2013-8-7T9:12:31Z</time></trkpt>
<trkpt lat="46.2982521057129" lon="7.4689507484436"><ele></ele><time>2013-8-7T9:12:34Z</time></trkpt>
<trkpt lat="46.2982635498047" lon="7.46897983551025"><ele></ele><time>2013-8-7T9:12:37Z</time></trkpt>
<trkpt lat="46.2982749938965" lon="7.4690146446228"><ele></ele><time>2013-8-7T9:12:40Z</time></trkpt>
<trkpt lat="46.2982864379883" lon="7.46904754638672"><ele></ele><time>2013-8-7T9:12:43Z</time></trkpt>
<trkpt lat="46.2983131408691" lon="7.46913909912109"><ele></ele><time>2013-8-7T9:12:46Z</time></trkpt>
<trkpt lat="46.2983245849609" lon="7.46917009353638"><ele></ele><time>2013-8-7T9:12:49Z</time></trkpt>
<trkpt lat="46.2983360290527" lon="7.46920394897461"><ele></ele><time>2013-8-7T9:12:52Z</time></trkpt>
<trkpt lat="46.2983436584473" lon="7.46923160552978"><ele></ele><time>2013-8-7T9:12:55Z</time></trkpt>
<trkpt lat="46.2983512878418" lon="7.46926259994507"><ele></ele><time>2013-8-7T9:12:58Z</time></trkpt>
<trkpt lat="46.2983894348144" lon="7.46934938430786"><ele></ele><time>2013-8-7T9:13:1Z</time></trkpt>
<trkpt lat="46.298412322998" lon="7.46941423416138"><ele></ele><time>2013-8-7T9:13:4Z</time></trkpt>
<trkpt lat="46.2984237670898" lon="7.46944952011108"><ele></ele><time>2013-8-7T9:13:7Z</time></trkpt>
<trkpt lat="46.2984352111816" lon="7.46948337554932"><ele></ele><time>2013-8-7T9:13:10Z</time></trkpt>
<trkpt lat="46.2984466552734" lon="7.46951770782471"><ele></ele><time>2013-8-7T9:13:13Z</time></trkpt>
<trkpt lat="46.298454284668" lon="7.46955442428589"><ele></ele><time>2013-8-7T9:13:16Z</time></trkpt>
<trkpt lat="46.2984733581543" lon="7.46963548660278"><ele></ele><time>2013-8-7T9:13:19Z</time></trkpt>
<trkpt lat="46.2985076904297" lon="7.46979856491089"><ele></ele><time>2013-8-7T9:13:22Z</time></trkpt>
<trkpt lat="46.2985191345215" lon="7.46983289718628"><ele></ele><time>2013-8-7T9:13:25Z</time></trkpt>
<trkpt lat="46.298526763916" lon="7.46986675262451"><ele></ele><time>2013-8-7T9:13:28Z</time></trkpt>
<trkpt lat="46.2985382080078" lon="7.46990060806274"><ele></ele><time>2013-8-7T9:13:31Z</time></trkpt>
<trkpt lat="46.2985496520996" lon="7.46993589401245"><ele></ele><time>2013-8-7T9:13:34Z</time></trkpt>
<trkpt lat="46.2985916137695" lon="7.47006320953369"><ele></ele><time>2013-8-7T9:13:37Z</time></trkpt>
<trkpt lat="46.2986030578613" lon="7.47009420394898"><ele></ele><time>2013-8-7T9:13:40Z</time></trkpt>
<trkpt lat="46.2986183166504" lon="7.47012424468994"><ele></ele><time>2013-8-7T9:13:43Z</time></trkpt>
<trkpt lat="46.2986335754394" lon="7.47015190124512"><ele></ele><time>2013-8-7T9:13:46Z</time></trkpt>
<trkpt lat="46.2986488342285" lon="7.4701738357544"><ele></ele><time>2013-8-7T9:13:49Z</time></trkpt>
<trkpt lat="46.2987442016602" lon="7.47031354904175"><ele></ele><time>2013-8-7T9:13:52Z</time></trkpt>
<trkpt lat="46.2987632751465" lon="7.47034549713135"><ele></ele><time>2013-8-7T9:13:55Z</time></trkpt>
<trkpt lat="46.2987861633301" lon="7.47037124633789"><ele></ele><time>2013-8-7T9:13:58Z</time></trkpt>
<trkpt lat="46.2988052368164" lon="7.47039222717285"><ele></ele><time>2013-8-7T9:14:1Z</time></trkpt>
<trkpt lat="46.2988243103027" lon="7.4704098701477"><ele></ele><time>2013-8-7T9:14:4Z</time></trkpt>
<trkpt lat="46.2988471984863" lon="7.47042608261108"><ele></ele><time>2013-8-7T9:14:7Z</time></trkpt>
<trkpt lat="46.2988700866699" lon="7.47044277191162"><ele></ele><time>2013-8-7T9:14:10Z</time></trkpt>
<trkpt lat="46.2990379333496" lon="7.47053909301758"><ele></ele><time>2013-8-7T9:14:13Z</time></trkpt>
<trkpt lat="46.2990875244141" lon="7.47054767608643"><ele></ele><time>2013-8-7T9:14:16Z</time></trkpt>
<trkpt lat="46.2991104125977" lon="7.47054624557495"><ele></ele><time>2013-8-7T9:14:19Z</time></trkpt>
<trkpt lat="46.2991371154785" lon="7.47054147720337"><ele></ele><time>2013-8-7T9:14:22Z</time></trkpt>
<trkpt lat="46.2991638183594" lon="7.4705376625061"><ele></ele><time>2013-8-7T9:14:25Z</time></trkpt>
<trkpt lat="46.2992134094238" lon="7.47053003311157"><ele></ele><time>2013-8-7T9:14:28Z</time></trkpt>
<trkpt lat="46.2993087768555" lon="7.47052192687988"><ele></ele><time>2013-8-7T9:14:31Z</time></trkpt>
<trkpt lat="46.2993316650391" lon="7.47051429748535"><ele></ele><time>2013-8-7T9:14:34Z</time></trkpt>
<trkpt lat="46.2993583679199" lon="7.4705080986023"><ele></ele><time>2013-8-7T9:14:37Z</time></trkpt>
<trkpt lat="46.2993850708008" lon="7.4705023765564"><ele></ele><time>2013-8-7T9:14:40Z</time></trkpt>
<trkpt lat="46.2994079589844" lon="7.47050285339356"><ele></ele><time>2013-8-7T9:14:43Z</time></trkpt>
<trkpt lat="46.2995452880859" lon="7.47047805786133"><ele></ele><time>2013-8-7T9:14:46Z</time></trkpt>
<trkpt lat="46.2996444702148" lon="7.47045516967774"><ele></ele><time>2013-8-7T9:14:49Z</time></trkpt>
<trkpt lat="46.2996673583984" lon="7.47044801712036"><ele></ele><time>2013-8-7T9:14:52Z</time></trkpt>
<trkpt lat="46.2996940612793" lon="7.47043991088867"><ele></ele><time>2013-8-7T9:14:55Z</time></trkpt>
<trkpt lat="46.2997207641602" lon="7.47042417526245"><ele></ele><time>2013-8-7T9:14:58Z</time></trkpt>
<trkpt lat="46.299861907959" lon="7.47038507461548"><ele></ele><time>2013-8-7T9:15:1Z</time></trkpt>
<trkpt lat="46.2998886108398" lon="7.470383644104"><ele></ele><time>2013-8-7T9:15:4Z</time></trkpt>
<trkpt lat="46.2999153137207" lon="7.47038316726685"><ele></ele><time>2013-8-7T9:15:7Z</time></trkpt>
<trkpt lat="46.299934387207" lon="7.47037696838379"><ele></ele><time>2013-8-7T9:15:10Z</time></trkpt>
<trkpt lat="46.2999610900879" lon="7.47037315368652"><ele></ele><time>2013-8-7T9:15:13Z</time></trkpt>
<trkpt lat="46.3000335693359" lon="7.47035837173462"><ele></ele><time>2013-8-7T9:15:16Z</time></trkpt>
<trkpt lat="46.3001174926758" lon="7.47033262252808"><ele></ele><time>2013-8-7T9:15:19Z</time></trkpt>
<trkpt lat="46.3001441955566" lon="7.47032165527344"><ele></ele><time>2013-8-7T9:15:22Z</time></trkpt>
<trkpt lat="46.3001670837402" lon="7.47031688690186"><ele></ele><time>2013-8-7T9:15:25Z</time></trkpt>
<trkpt lat="46.3001899719238" lon="7.47030735015869"><ele></ele><time>2013-8-7T9:15:28Z</time></trkpt>
<trkpt lat="46.3002128601074" lon="7.47030973434448"><ele></ele><time>2013-8-7T9:15:31Z</time></trkpt>
<trkpt lat="46.3003387451172" lon="7.47026872634888"><ele></ele><time>2013-8-7T9:15:34Z</time></trkpt>
<trkpt lat="46.3003616333008" lon="7.47025775909424"><ele></ele><time>2013-8-7T9:15:37Z</time></trkpt>
<trkpt lat="46.3003845214844" lon="7.47024774551392"><ele></ele><time>2013-8-7T9:15:40Z</time></trkpt>
<trkpt lat="46.3004112243652" lon="7.47024345397949"><ele></ele><time>2013-8-7T9:15:43Z</time></trkpt>
<trkpt lat="46.3005104064941" lon="7.47022008895874"><ele></ele><time>2013-8-7T9:15:46Z</time></trkpt>
<trkpt lat="46.3006057739258" lon="7.47019052505493"><ele></ele><time>2013-8-7T9:15:49Z</time></trkpt>
<trkpt lat="46.3006286621094" lon="7.47017860412598"><ele></ele><time>2013-8-7T9:15:52Z</time></trkpt>
<trkpt lat="46.300651550293" lon="7.47017335891724"><ele></ele><time>2013-8-7T9:15:55Z</time></trkpt>
<trkpt lat="46.3006744384766" lon="7.47016620635986"><ele></ele><time>2013-8-7T9:15:58Z</time></trkpt>
<trkpt lat="46.3007011413574" lon="7.47016048431396"><ele></ele><time>2013-8-7T9:16:1Z</time></trkpt>
<trkpt lat="46.300853729248" lon="7.4701247215271"><ele></ele><time>2013-8-7T9:16:4Z</time></trkpt>
<trkpt lat="46.3010101318359" lon="7.47008419036865"><ele></ele><time>2013-8-7T9:16:7Z</time></trkpt>
<trkpt lat="46.3010444641113" lon="7.4700722694397"><ele></ele><time>2013-8-7T9:16:10Z</time></trkpt>
<trkpt lat="46.3010787963867" lon="7.47006845474243"><ele></ele><time>2013-8-7T9:16:13Z</time></trkpt>
<trkpt lat="46.3011131286621" lon="7.47005987167358"><ele></ele><time>2013-8-7T9:16:16Z</time></trkpt>
<trkpt lat="46.3011474609375" lon="7.47005367279053"><ele></ele><time>2013-8-7T9:16:19Z</time></trkpt>
<trkpt lat="46.3013916015625" lon="7.46996402740478"><ele></ele><time>2013-8-7T9:16:22Z</time></trkpt>
<trkpt lat="46.3017158508301" lon="7.46989107131958"><ele></ele><time>2013-8-7T9:16:25Z</time></trkpt>
<trkpt lat="46.3017539978027" lon="7.46988725662232"><ele></ele><time>2013-8-7T9:16:28Z</time></trkpt>
<trkpt lat="46.3017921447754" lon="7.46988582611084"><ele></ele><time>2013-8-7T9:16:31Z</time></trkpt>
<trkpt lat="46.3018264770508" lon="7.46987771987915"><ele></ele><time>2013-8-7T9:16:34Z</time></trkpt>
<trkpt lat="46.3018684387207" lon="7.46987056732178"><ele></ele><time>2013-8-7T9:16:37Z</time></trkpt>
<trkpt lat="46.3020629882812" lon="7.46980285644531"><ele></ele><time>2013-8-7T9:16:40Z</time></trkpt>
<trkpt lat="46.3021850585938" lon="7.46976280212402"><ele></ele><time>2013-8-7T9:16:43Z</time></trkpt>
<trkpt lat="46.3023490905762" lon="7.46973037719726"><ele></ele><time>2013-8-7T9:16:46Z</time></trkpt>
<trkpt lat="46.3023872375488" lon="7.46972513198852"><ele></ele><time>2013-8-7T9:16:49Z</time></trkpt>
<trkpt lat="46.3027420043945" lon="7.46962022781372"><ele></ele><time>2013-8-7T9:16:52Z</time></trkpt>
<trkpt lat="46.3027801513672" lon="7.46960830688476"><ele></ele><time>2013-8-7T9:16:55Z</time></trkpt>
<trkpt lat="46.3028182983398" lon="7.46959924697876"><ele></ele><time>2013-8-7T9:16:58Z</time></trkpt>
<trkpt lat="46.3028564453125" lon="7.46958875656128"><ele></ele><time>2013-8-7T9:17:1Z</time></trkpt>
<trkpt lat="46.3030548095703" lon="7.46952772140503"><ele></ele><time>2013-8-7T9:17:4Z</time></trkpt>
<trkpt lat="46.303409576416" lon="7.46942520141602"><ele></ele><time>2013-8-7T9:17:7Z</time></trkpt>
<trkpt lat="46.3034896850586" lon="7.46940851211548"><ele></ele><time>2013-8-7T9:17:10Z</time></trkpt>
<trkpt lat="46.303524017334" lon="7.46940612792969"><ele></ele><time>2013-8-7T9:17:13Z</time></trkpt>
<trkpt lat="46.3035659790039" lon="7.46941709518433"><ele></ele><time>2013-8-7T9:17:16Z</time></trkpt>
<trkpt lat="46.3036079406738" lon="7.46941232681274"><ele></ele><time>2013-8-7T9:17:19Z</time></trkpt>
<trkpt lat="46.3036460876465" lon="7.46941566467285"><ele></ele><time>2013-8-7T9:17:22Z</time></trkpt>
<trkpt lat="46.3038597106934" lon="7.469398021698"><ele></ele><time>2013-8-7T9:17:25Z</time></trkpt>
<trkpt lat="46.3041725158691" lon="7.46933841705322"><ele></ele><time>2013-8-7T9:17:28Z</time></trkpt>
<trkpt lat="46.3042869567871" lon="7.46930265426636"><ele></ele><time>2013-8-7T9:17:31Z</time></trkpt>
<trkpt lat="46.3043174743652" lon="7.46928453445435"><ele></ele><time>2013-8-7T9:17:34Z</time></trkpt>
<trkpt lat="46.3043632507324" lon="7.4692645072937"><ele></ele><time>2013-8-7T9:17:37Z</time></trkpt>
<trkpt lat="46.3044013977051" lon="7.46925497055054"><ele></ele><time>2013-8-7T9:17:40Z</time></trkpt>
<trkpt lat="46.304443359375" lon="7.46925067901611"><ele></ele><time>2013-8-7T9:17:43Z</time></trkpt>
<trkpt lat="46.3047637939453" lon="7.46916675567627"><ele></ele><time>2013-8-7T9:17:46Z</time></trkpt>
<trkpt lat="46.3050842285156" lon="7.46904850006104"><ele></ele><time>2013-8-7T9:17:49Z</time></trkpt>
<trkpt lat="46.3053588867188" lon="7.46890449523926"><ele></ele><time>2013-8-7T9:17:52Z</time></trkpt>
<trkpt lat="46.3053894042969" lon="7.46888208389282"><ele></ele><time>2013-8-7T9:17:55Z</time></trkpt>
<trkpt lat="46.3054237365723" lon="7.46886205673218"><ele></ele><time>2013-8-7T9:17:58Z</time></trkpt>
<trkpt lat="46.3054580688477" lon="7.46884679794312"><ele></ele><time>2013-8-7T9:18:1Z</time></trkpt>
<trkpt lat="46.3054885864258" lon="7.4688310623169"><ele></ele><time>2013-8-7T9:18:4Z</time></trkpt>
<trkpt lat="46.3056373596191" lon="7.46879386901856"><ele></ele><time>2013-8-7T9:18:7Z</time></trkpt>
<trkpt lat="46.3056678771973" lon="7.46878576278686"><ele></ele><time>2013-8-7T9:18:10Z</time></trkpt>
<trkpt lat="46.3057022094727" lon="7.46877765655518"><ele></ele><time>2013-8-7T9:18:13Z</time></trkpt>
<trkpt lat="46.3057403564453" lon="7.46876525878906"><ele></ele><time>2013-8-7T9:18:16Z</time></trkpt>
<trkpt lat="46.3057708740234" lon="7.46875095367432"><ele></ele><time>2013-8-7T9:18:19Z</time></trkpt>
<trkpt lat="46.3058395385742" lon="7.46872425079346"><ele></ele><time>2013-8-7T9:18:22Z</time></trkpt>
<trkpt lat="46.3058700561523" lon="7.46871185302734"><ele></ele><time>2013-8-7T9:18:25Z</time></trkpt>
<trkpt lat="46.3059005737305" lon="7.46870613098144"><ele></ele><time>2013-8-7T9:18:28Z</time></trkpt>
<trkpt lat="46.3059310913086" lon="7.46870470046997"><ele></ele><time>2013-8-7T9:18:31Z</time></trkpt>
<trkpt lat="46.3059616088867" lon="7.46870231628418"><ele></ele><time>2013-8-7T9:18:34Z</time></trkpt>
<trkpt lat="46.3060836791992" lon="7.46869707107544"><ele></ele><time>2013-8-7T9:18:37Z</time></trkpt>
<trkpt lat="46.3061141967773" lon="7.46869945526123"><ele></ele><time>2013-8-7T9:18:40Z</time></trkpt>
<trkpt lat="46.3061408996582" lon="7.4687008857727"><ele></ele><time>2013-8-7T9:18:43Z</time></trkpt>
<trkpt lat="46.3061714172363" lon="7.46869945526123"><ele></ele><time>2013-8-7T9:18:46Z</time></trkpt>
<trkpt lat="46.3061981201172" lon="7.4686975479126"><ele></ele><time>2013-8-7T9:18:49Z</time></trkpt>
<trkpt lat="46.3062934875488" lon="7.4686861038208"><ele></ele><time>2013-8-7T9:18:52Z</time></trkpt>
<trkpt lat="46.3063201904297" lon="7.46868801116943"><ele></ele><time>2013-8-7T9:18:55Z</time></trkpt>
<trkpt lat="46.3063468933106" lon="7.46868705749512"><ele></ele><time>2013-8-7T9:18:58Z</time></trkpt>
<trkpt lat="46.3063697814941" lon="7.46869707107544"><ele></ele><time>2013-8-7T9:19:1Z</time></trkpt>
<trkpt lat="46.3064002990723" lon="7.4687066078186"><ele></ele><time>2013-8-7T9:19:4Z</time></trkpt>
<trkpt lat="46.3064270019531" lon="7.4687123298645"><ele></ele><time>2013-8-7T9:19:7Z</time></trkpt>
<trkpt lat="46.3065605163574" lon="7.46874094009399"><ele></ele><time>2013-8-7T9:19:10Z</time></trkpt>
<trkpt lat="46.306583404541" lon="7.46872425079346"><ele></ele><time>2013-8-7T9:19:13Z</time></trkpt>
<trkpt lat="46.3066101074219" lon="7.46871519088745"><ele></ele><time>2013-8-7T9:19:16Z</time></trkpt>
<trkpt lat="46.3066329956055" lon="7.46871423721314"><ele></ele><time>2013-8-7T9:19:19Z</time></trkpt>
<trkpt lat="46.3066596984863" lon="7.4687032699585"><ele></ele><time>2013-8-7T9:19:22Z</time></trkpt>
<trkpt lat="46.3066864013672" lon="7.46868991851807"><ele></ele><time>2013-8-7T9:19:25Z</time></trkpt>
<trkpt lat="46.3067474365234" lon="7.46866750717163"><ele></ele><time>2013-8-7T9:19:28Z</time></trkpt>
<trkpt lat="46.3069038391113" lon="7.46867513656616"><ele></ele><time>2013-8-7T9:19:31Z</time></trkpt>
<trkpt lat="46.3069877624512" lon="7.4686861038208"><ele></ele><time>2013-8-7T9:19:34Z</time></trkpt>
<trkpt lat="46.3071632385254" lon="7.46870803833008"><ele></ele><time>2013-8-7T9:19:37Z</time></trkpt>
<trkpt lat="46.3072471618652" lon="7.46870374679565"><ele></ele><time>2013-8-7T9:19:40Z</time></trkpt>
<trkpt lat="46.3074417114258" lon="7.46869134902954"><ele></ele><time>2013-8-7T9:19:43Z</time></trkpt>
<trkpt lat="46.3076095581055" lon="7.46873617172241"><ele></ele><time>2013-8-7T9:19:46Z</time></trkpt>
<trkpt lat="46.307689666748" lon="7.46875667572022"><ele></ele><time>2013-8-7T9:19:49Z</time></trkpt>
<trkpt lat="46.3078002929688" lon="7.46880054473877"><ele></ele><time>2013-8-7T9:19:52Z</time></trkpt>
<trkpt lat="46.3078346252441" lon="7.46881771087646"><ele></ele><time>2013-8-7T9:19:55Z</time></trkpt>
<trkpt lat="46.3078575134277" lon="7.46883249282837"><ele></ele><time>2013-8-7T9:19:58Z</time></trkpt>
<trkpt lat="46.3078842163086" lon="7.46884918212891"><ele></ele><time>2013-8-7T9:20:1Z</time></trkpt>
<trkpt lat="46.3079147338867" lon="7.46886301040649"><ele></ele><time>2013-8-7T9:20:4Z</time></trkpt>
<trkpt lat="46.3080024719238" lon="7.46891641616821"><ele></ele><time>2013-8-7T9:20:7Z</time></trkpt>
<trkpt lat="46.3080291748047" lon="7.46894454956055"><ele></ele><time>2013-8-7T9:20:10Z</time></trkpt>
<trkpt lat="46.3080596923828" lon="7.46896934509277"><ele></ele><time>2013-8-7T9:20:13Z</time></trkpt>
<trkpt lat="46.3080863952637" lon="7.46898698806763"><ele></ele><time>2013-8-7T9:20:16Z</time></trkpt>
<trkpt lat="46.30810546875" lon="7.46900796890259"><ele></ele><time>2013-8-7T9:20:19Z</time></trkpt>
<trkpt lat="46.3081321716309" lon="7.46903133392334"><ele></ele><time>2013-8-7T9:20:22Z</time></trkpt>
<trkpt lat="46.3082427978516" lon="7.46919679641724"><ele></ele><time>2013-8-7T9:20:25Z</time></trkpt>
<trkpt lat="46.3082656860352" lon="7.46923732757568"><ele></ele><time>2013-8-7T9:20:28Z</time></trkpt>
<trkpt lat="46.3082847595215" lon="7.46927738189697"><ele></ele><time>2013-8-7T9:20:31Z</time></trkpt>
<trkpt lat="46.3083076477051" lon="7.4693112373352"><ele></ele><time>2013-8-7T9:20:34Z</time></trkpt>
<trkpt lat="46.3083305358887" lon="7.4693398475647"><ele></ele><time>2013-8-7T9:20:37Z</time></trkpt>
<trkpt lat="46.3083610534668" lon="7.46936368942261"><ele></ele><time>2013-8-7T9:20:40Z</time></trkpt>
<trkpt lat="46.3084907531738" lon="7.46953630447388"><ele></ele><time>2013-8-7T9:20:43Z</time></trkpt>
<trkpt lat="46.3085060119629" lon="7.46958065032959"><ele></ele><time>2013-8-7T9:20:46Z</time></trkpt>
<trkpt lat="46.3085250854492" lon="7.46962404251099"><ele></ele><time>2013-8-7T9:20:49Z</time></trkpt>
<trkpt lat="46.3085403442383" lon="7.46966409683228"><ele></ele><time>2013-8-7T9:20:52Z</time></trkpt>
<trkpt lat="46.3085594177246" lon="7.46970748901367"><ele></ele><time>2013-8-7T9:20:55Z</time></trkpt>
<trkpt lat="46.3085975646973" lon="7.46979093551636"><ele></ele><time>2013-8-7T9:20:58Z</time></trkpt>
<trkpt lat="46.3086471557617" lon="7.46990823745728"><ele></ele><time>2013-8-7T9:21:1Z</time></trkpt>
<trkpt lat="46.308666229248" lon="7.4699444770813"><ele></ele><time>2013-8-7T9:21:4Z</time></trkpt>
<trkpt lat="46.3086814880371" lon="7.46998262405396"><ele></ele><time>2013-8-7T9:21:7Z</time></trkpt>
<trkpt lat="46.3086967468262" lon="7.47002220153809"><ele></ele><time>2013-8-7T9:21:10Z</time></trkpt>
<trkpt lat="46.3087120056152" lon="7.47006368637085"><ele></ele><time>2013-8-7T9:21:13Z</time></trkpt>
<trkpt lat="46.3087539672852" lon="7.47018194198608"><ele></ele><time>2013-8-7T9:21:16Z</time></trkpt>
<trkpt lat="46.308765411377" lon="7.47022104263306"><ele></ele><time>2013-8-7T9:21:19Z</time></trkpt>
<trkpt lat="46.308780670166" lon="7.47026062011719"><ele></ele><time>2013-8-7T9:21:22Z</time></trkpt>
<trkpt lat="46.3087921142578" lon="7.47030353546143"><ele></ele><time>2013-8-7T9:21:25Z</time></trkpt>
<trkpt lat="46.3088035583496" lon="7.47034502029419"><ele></ele><time>2013-8-7T9:21:28Z</time></trkpt>
<trkpt lat="46.3088798522949" lon="7.47065782546997"><ele></ele><time>2013-8-7T9:21:31Z</time></trkpt>
<trkpt lat="46.3089065551758" lon="7.4707498550415"><ele></ele><time>2013-8-7T9:21:34Z</time></trkpt>
<trkpt lat="46.3089218139648" lon="7.47079563140869"><ele></ele><time>2013-8-7T9:21:37Z</time></trkpt>
<trkpt lat="46.3089370727539" lon="7.47084522247314"><ele></ele><time>2013-8-7T9:21:40Z</time></trkpt>
<trkpt lat="46.308952331543" lon="7.47089529037476"><ele></ele><time>2013-8-7T9:21:43Z</time></trkpt>
<trkpt lat="46.3089637756348" lon="7.47094583511352"><ele></ele><time>2013-8-7T9:21:46Z</time></trkpt>
<trkpt lat="46.3089790344238" lon="7.47099733352661"><ele></ele><time>2013-8-7T9:21:49Z</time></trkpt>
<trkpt lat="46.3090629577637" lon="7.47132158279419"><ele></ele><time>2013-8-7T9:21:52Z</time></trkpt>
<trkpt lat="46.3090782165527" lon="7.47137498855591"><ele></ele><time>2013-8-7T9:21:55Z</time></trkpt>
<trkpt lat="46.3091354370117" lon="7.47158718109131"><ele></ele><time>2013-8-7T9:21:58Z</time></trkpt>
<trkpt lat="46.3092422485352" lon="7.47202062606812"><ele></ele><time>2013-8-7T9:22:1Z</time></trkpt>
<trkpt lat="46.309268951416" lon="7.47212982177734"><ele></ele><time>2013-8-7T9:22:4Z</time></trkpt>
<trkpt lat="46.3092803955078" lon="7.4721851348877"><ele></ele><time>2013-8-7T9:22:7Z</time></trkpt>
<trkpt lat="46.3092956542969" lon="7.47224235534668"><ele></ele><time>2013-8-7T9:22:10Z</time></trkpt>
<trkpt lat="46.3093109130859" lon="7.47229814529419"><ele></ele><time>2013-8-7T9:22:13Z</time></trkpt>
<trkpt lat="46.3093223571777" lon="7.47235107421875"><ele></ele><time>2013-8-7T9:22:16Z</time></trkpt>
<trkpt lat="46.3093528747559" lon="7.47245788574219"><ele></ele><time>2013-8-7T9:22:19Z</time></trkpt>
<trkpt lat="46.3095016479492" lon="7.47296619415283"><ele></ele><time>2013-8-7T9:22:22Z</time></trkpt>
<trkpt lat="46.3095207214356" lon="7.47301721572876"><ele></ele><time>2013-8-7T9:22:25Z</time></trkpt>
<trkpt lat="46.3095397949219" lon="7.473069190979"><ele></ele><time>2013-8-7T9:22:28Z</time></trkpt>
<trkpt lat="46.3095588684082" lon="7.47311878204346"><ele></ele><time>2013-8-7T9:22:31Z</time></trkpt>
<trkpt lat="46.3095817565918" lon="7.47316789627075"><ele></ele><time>2013-8-7T9:22:34Z</time></trkpt>
<trkpt lat="46.3096885681152" lon="7.47341012954712"><ele></ele><time>2013-8-7T9:22:37Z</time></trkpt>
<trkpt lat="46.3097763061523" lon="7.47359561920166"><ele></ele><time>2013-8-7T9:22:40Z</time></trkpt>
<trkpt lat="46.3098030090332" lon="7.47363901138306"><ele></ele><time>2013-8-7T9:22:43Z</time></trkpt>
<trkpt lat="46.3098220825195" lon="7.47368144989014"><ele></ele><time>2013-8-7T9:22:46Z</time></trkpt>
<trkpt lat="46.3098411560059" lon="7.47372341156006"><ele></ele><time>2013-8-7T9:22:49Z</time></trkpt>
<trkpt lat="46.3098564147949" lon="7.47376775741577"><ele></ele><time>2013-8-7T9:22:52Z</time></trkpt>
<trkpt lat="46.3099365234375" lon="7.47393321990967"><ele></ele><time>2013-8-7T9:22:55Z</time></trkpt>
<trkpt lat="46.3101119995117" lon="7.47429180145264"><ele></ele><time>2013-8-7T9:22:58Z</time></trkpt>
<trkpt lat="46.3101539611816" lon="7.47439575195312"><ele></ele><time>2013-8-7T9:23:1Z</time></trkpt>
<trkpt lat="46.310173034668" lon="7.47444677352905"><ele></ele><time>2013-8-7T9:23:4Z</time></trkpt>
<trkpt lat="46.3101959228516" lon="7.47449445724487"><ele></ele><time>2013-8-7T9:23:7Z</time></trkpt>
<trkpt lat="46.3102226257324" lon="7.47454309463501"><ele></ele><time>2013-8-7T9:23:10Z</time></trkpt>
<trkpt lat="46.3102493286133" lon="7.47459173202515"><ele></ele><time>2013-8-7T9:23:13Z</time></trkpt>
<trkpt lat="46.310417175293" lon="7.47494316101074"><ele></ele><time>2013-8-7T9:23:16Z</time></trkpt>
<trkpt lat="46.3105659484863" lon="7.4752516746521"><ele></ele><time>2013-8-7T9:23:19Z</time></trkpt>
<trkpt lat="46.3106155395508" lon="7.4753532409668"><ele></ele><time>2013-8-7T9:23:22Z</time></trkpt>
<trkpt lat="46.3107490539551" lon="7.47561597824097"><ele></ele><time>2013-8-7T9:23:25Z</time></trkpt>
<trkpt lat="46.3107757568359" lon="7.47566938400268"><ele></ele><time>2013-8-7T9:23:28Z</time></trkpt>
<trkpt lat="46.3108024597168" lon="7.47572231292725"><ele></ele><time>2013-8-7T9:23:31Z</time></trkpt>
<trkpt lat="46.3108291625977" lon="7.47577333450317"><ele></ele><time>2013-8-7T9:23:34Z</time></trkpt>
<trkpt lat="46.3108520507812" lon="7.47582674026489"><ele></ele><time>2013-8-7T9:23:37Z</time></trkpt>
<trkpt lat="46.3110466003418" lon="7.47627973556518"><ele></ele><time>2013-8-7T9:23:40Z</time></trkpt>
<trkpt lat="46.311149597168" lon="7.47661542892456"><ele></ele><time>2013-8-7T9:23:43Z</time></trkpt>
<trkpt lat="46.3112373352051" lon="7.47677993774414"><ele></ele><time>2013-8-7T9:23:46Z</time></trkpt>
<trkpt lat="46.3113670349121" lon="7.47687530517578"><ele></ele><time>2013-8-7T9:23:49Z</time></trkpt>
<trkpt lat="46.3113861083984" lon="7.47701549530029"><ele></ele><time>2013-8-7T9:23:52Z</time></trkpt>
<trkpt lat="46.3113861083984" lon="7.47706413269043"><ele></ele><time>2013-8-7T9:23:55Z</time></trkpt>
<trkpt lat="46.3113861083984" lon="7.4771089553833"><ele></ele><time>2013-8-7T9:23:58Z</time></trkpt>
<trkpt lat="46.3113822937012" lon="7.47715377807617"><ele></ele><time>2013-8-7T9:24:1Z</time></trkpt>
<trkpt lat="46.3114013671875" lon="7.477294921875"><ele></ele><time>2013-8-7T9:24:4Z</time></trkpt>
<trkpt lat="46.3114128112793" lon="7.47733926773071"><ele></ele><time>2013-8-7T9:24:7Z</time></trkpt>
<trkpt lat="46.3114280700684" lon="7.47737693786621"><ele></ele><time>2013-8-7T9:24:10Z</time></trkpt>
<trkpt lat="46.3114433288574" lon="7.47741317749024"><ele></ele><time>2013-8-7T9:24:13Z</time></trkpt>
<trkpt lat="46.3114624023438" lon="7.47745180130005"><ele></ele><time>2013-8-7T9:24:16Z</time></trkpt>
<trkpt lat="46.3115043640137" lon="7.47752094268799"><ele></ele><time>2013-8-7T9:24:19Z</time></trkpt>
<trkpt lat="46.3115692138672" lon="7.47766447067261"><ele></ele><time>2013-8-7T9:24:22Z</time></trkpt>
<trkpt lat="46.311580657959" lon="7.47769784927368"><ele></ele><time>2013-8-7T9:24:25Z</time></trkpt>
<trkpt lat="46.3115921020508" lon="7.47772884368896"><ele></ele><time>2013-8-7T9:24:28Z</time></trkpt>
<trkpt lat="46.3116073608398" lon="7.47775936126709"><ele></ele><time>2013-8-7T9:24:31Z</time></trkpt>
<trkpt lat="46.3116226196289" lon="7.4777889251709"><ele></ele><time>2013-8-7T9:24:34Z</time></trkpt>
<trkpt lat="46.3116989135742" lon="7.47792625427246"><ele></ele><time>2013-8-7T9:24:37Z</time></trkpt>
<trkpt lat="46.3117752075195" lon="7.47802352905274"><ele></ele><time>2013-8-7T9:24:40Z</time></trkpt>
<trkpt lat="46.3117942810059" lon="7.47804880142212"><ele></ele><time>2013-8-7T9:24:43Z</time></trkpt>
<trkpt lat="46.3118171691894" lon="7.47807264328003"><ele></ele><time>2013-8-7T9:24:46Z</time></trkpt>
<trkpt lat="46.311840057373" lon="7.47810459136963"><ele></ele><time>2013-8-7T9:24:49Z</time></trkpt>
<trkpt lat="46.3119277954102" lon="7.4782395362854"><ele></ele><time>2013-8-7T9:24:52Z</time></trkpt>
<trkpt lat="46.3119926452637" lon="7.47831630706787"><ele></ele><time>2013-8-7T9:24:55Z</time></trkpt>
<trkpt lat="46.3120155334473" lon="7.47834062576294"><ele></ele><time>2013-8-7T9:24:58Z</time></trkpt>
<trkpt lat="46.3120384216309" lon="7.47836685180664"><ele></ele><time>2013-8-7T9:25:1Z</time></trkpt>
<trkpt lat="46.3120613098144" lon="7.47839307785034"><ele></ele><time>2013-8-7T9:25:4Z</time></trkpt>
<trkpt lat="46.3120803833008" lon="7.47841882705688"><ele></ele><time>2013-8-7T9:25:7Z</time></trkpt>
<trkpt lat="46.3122215270996" lon="7.47858572006226"><ele></ele><time>2013-8-7T9:25:10Z</time></trkpt>
<trkpt lat="46.3122406005859" lon="7.47861003875732"><ele></ele><time>2013-8-7T9:25:13Z</time></trkpt>
<trkpt lat="46.3122596740723" lon="7.47863245010376"><ele></ele><time>2013-8-7T9:25:16Z</time></trkpt>
<trkpt lat="46.3122749328613" lon="7.47865438461304"><ele></ele><time>2013-8-7T9:25:19Z</time></trkpt>
<trkpt lat="46.3122940063477" lon="7.47867631912232"><ele></ele><time>2013-8-7T9:25:22Z</time></trkpt>
<trkpt lat="46.3123893737793" lon="7.47879314422607"><ele></ele><time>2013-8-7T9:25:25Z</time></trkpt>
<trkpt lat="46.3124046325684" lon="7.47881746292114"><ele></ele><time>2013-8-7T9:25:28Z</time></trkpt>
<trkpt lat="46.3124237060547" lon="7.4788408279419"><ele></ele><time>2013-8-7T9:25:31Z</time></trkpt>
<trkpt lat="46.3124389648438" lon="7.4788646697998"><ele></ele><time>2013-8-7T9:25:34Z</time></trkpt>
<trkpt lat="46.3124580383301" lon="7.4788875579834"><ele></ele><time>2013-8-7T9:25:37Z</time></trkpt>
<trkpt lat="46.3125877380371" lon="7.47904586791992"><ele></ele><time>2013-8-7T9:25:40Z</time></trkpt>
<trkpt lat="46.3126029968262" lon="7.47906923294067"><ele></ele><time>2013-8-7T9:25:43Z</time></trkpt>
<trkpt lat="46.3126182556152" lon="7.47909593582153"><ele></ele><time>2013-8-7T9:25:46Z</time></trkpt>
<trkpt lat="46.3126373291016" lon="7.47912311553955"><ele></ele><time>2013-8-7T9:25:49Z</time></trkpt>
<trkpt lat="46.3126564025879" lon="7.4791464805603"><ele></ele><time>2013-8-7T9:25:52Z</time></trkpt>
<trkpt lat="46.3127250671387" lon="7.47924995422363"><ele></ele><time>2013-8-7T9:25:55Z</time></trkpt>
<trkpt lat="46.3127746582031" lon="7.47931909561157"><ele></ele><time>2013-8-7T9:25:58Z</time></trkpt>
<trkpt lat="46.3127937316894" lon="7.47934103012085"><ele></ele><time>2013-8-7T9:26:1Z</time></trkpt>
<trkpt lat="46.3128128051758" lon="7.47936487197876"><ele></ele><time>2013-8-7T9:26:4Z</time></trkpt>
<trkpt lat="46.3128318786621" lon="7.47938871383667"><ele></ele><time>2013-8-7T9:26:7Z</time></trkpt>
<trkpt lat="46.3128509521484" lon="7.47941207885742"><ele></ele><time>2013-8-7T9:26:10Z</time></trkpt>
<trkpt lat="46.3128662109375" lon="7.47943687438965"><ele></ele><time>2013-8-7T9:26:13Z</time></trkpt>
<trkpt lat="46.3129272460938" lon="7.4795331954956"><ele></ele><time>2013-8-7T9:26:16Z</time></trkpt>
<trkpt lat="46.3129425048828" lon="7.47955560684204"><ele></ele><time>2013-8-7T9:26:19Z</time></trkpt>
<trkpt lat="46.3129577636719" lon="7.47957992553711"><ele></ele><time>2013-8-7T9:26:22Z</time></trkpt>
<trkpt lat="46.3129730224609" lon="7.47960710525513"><ele></ele><time>2013-8-7T9:26:25Z</time></trkpt>
<trkpt lat="46.3129920959473" lon="7.47963237762451"><ele></ele><time>2013-8-7T9:26:28Z</time></trkpt>
<trkpt lat="46.3131065368652" lon="7.47976636886597"><ele></ele><time>2013-8-7T9:26:31Z</time></trkpt>
<trkpt lat="46.3131217956543" lon="7.47978734970093"><ele></ele><time>2013-8-7T9:26:34Z</time></trkpt>
<trkpt lat="46.3131408691406" lon="7.47980785369873"><ele></ele><time>2013-8-7T9:26:37Z</time></trkpt>
<trkpt lat="46.313159942627" lon="7.47982835769653"><ele></ele><time>2013-8-7T9:26:40Z</time></trkpt>
<trkpt lat="46.3131790161133" lon="7.47985076904297"><ele></ele><time>2013-8-7T9:26:43Z</time></trkpt>
<trkpt lat="46.3132362365723" lon="7.4799165725708"><ele></ele><time>2013-8-7T9:26:46Z</time></trkpt>
<trkpt lat="46.3132781982422" lon="7.47995376586914"><ele></ele><time>2013-8-7T9:26:49Z</time></trkpt>
<trkpt lat="46.3132934570312" lon="7.47996950149536"><ele></ele><time>2013-8-7T9:26:52Z</time></trkpt>
<trkpt lat="46.3133125305176" lon="7.47998332977295"><ele></ele><time>2013-8-7T9:26:55Z</time></trkpt>
<trkpt lat="46.3133316040039" lon="7.48000335693359"><ele></ele><time>2013-8-7T9:26:58Z</time></trkpt>
<trkpt lat="46.3133506774902" lon="7.48002099990845"><ele></ele><time>2013-8-7T9:27:1Z</time></trkpt>
<trkpt lat="46.3133697509766" lon="7.48003530502319"><ele></ele><time>2013-8-7T9:27:4Z</time></trkpt>
<trkpt lat="46.3134689331055" lon="7.48008918762207"><ele></ele><time>2013-8-7T9:27:7Z</time></trkpt>
<trkpt lat="46.3134841918945" lon="7.4801025390625"><ele></ele><time>2013-8-7T9:27:10Z</time></trkpt>
<trkpt lat="46.3135032653809" lon="7.48011445999146"><ele></ele><time>2013-8-7T9:27:13Z</time></trkpt>
<trkpt lat="46.3135261535644" lon="7.48012685775757"><ele></ele><time>2013-8-7T9:27:16Z</time></trkpt>
<trkpt lat="46.3135452270508" lon="7.48014068603516"><ele></ele><time>2013-8-7T9:27:19Z</time></trkpt>
<trkpt lat="46.3135795593262" lon="7.48017168045044"><ele></ele><time>2013-8-7T9:27:22Z</time></trkpt>
<trkpt lat="46.3136367797852" lon="7.48022317886352"><ele></ele><time>2013-8-7T9:27:25Z</time></trkpt>
<trkpt lat="46.3136596679688" lon="7.48024749755859"><ele></ele><time>2013-8-7T9:27:28Z</time></trkpt>
<trkpt lat="46.3136825561523" lon="7.48026943206787"><ele></ele><time>2013-8-7T9:27:31Z</time></trkpt>
<trkpt lat="46.3137016296387" lon="7.48029041290283"><ele></ele><time>2013-8-7T9:27:34Z</time></trkpt>
<trkpt lat="46.3138084411621" lon="7.48042583465576"><ele></ele><time>2013-8-7T9:27:37Z</time></trkpt>
<trkpt lat="46.3138275146484" lon="7.48044490814209"><ele></ele><time>2013-8-7T9:27:40Z</time></trkpt>
<trkpt lat="46.3138427734375" lon="7.48046731948852"><ele></ele><time>2013-8-7T9:27:43Z</time></trkpt>
<trkpt lat="46.3138580322266" lon="7.4804892539978"><ele></ele><time>2013-8-7T9:27:46Z</time></trkpt>
<trkpt lat="46.3138771057129" lon="7.48050832748413"><ele></ele><time>2013-8-7T9:27:49Z</time></trkpt>
<trkpt lat="46.3139266967773" lon="7.48056507110596"><ele></ele><time>2013-8-7T9:27:52Z</time></trkpt>
<trkpt lat="46.3139610290527" lon="7.48060894012451"><ele></ele><time>2013-8-7T9:27:55Z</time></trkpt>
<trkpt lat="46.3139762878418" lon="7.48062944412232"><ele></ele><time>2013-8-7T9:27:58Z</time></trkpt>
<trkpt lat="46.3139915466309" lon="7.48065137863159"><ele></ele><time>2013-8-7T9:28:1Z</time></trkpt>
<trkpt lat="46.3140106201172" lon="7.48067665100098"><ele></ele><time>2013-8-7T9:28:4Z</time></trkpt>
<trkpt lat="46.3140258789062" lon="7.48070192337036"><ele></ele><time>2013-8-7T9:28:7Z</time></trkpt>
<trkpt lat="46.3140678405762" lon="7.48076581954956"><ele></ele><time>2013-8-7T9:28:10Z</time></trkpt>
<trkpt lat="46.3140983581543" lon="7.48081254959106"><ele></ele><time>2013-8-7T9:28:13Z</time></trkpt>
<trkpt lat="46.3141098022461" lon="7.48083829879761"><ele></ele><time>2013-8-7T9:28:16Z</time></trkpt>
<trkpt lat="46.3141250610352" lon="7.48086261749268"><ele></ele><time>2013-8-7T9:28:19Z</time></trkpt>
<trkpt lat="46.314136505127" lon="7.4808874130249"><ele></ele><time>2013-8-7T9:28:22Z</time></trkpt>
<trkpt lat="46.314151763916" lon="7.48091173171997"><ele></ele><time>2013-8-7T9:28:25Z</time></trkpt>
<trkpt lat="46.3142204284668" lon="7.48102855682373"><ele></ele><time>2013-8-7T9:28:28Z</time></trkpt>
<trkpt lat="46.3142471313477" lon="7.48106813430786"><ele></ele><time>2013-8-7T9:28:31Z</time></trkpt>
<trkpt lat="46.3142623901367" lon="7.48109149932861"><ele></ele><time>2013-8-7T9:28:34Z</time></trkpt>
<trkpt lat="46.3142738342285" lon="7.48111057281494"><ele></ele><time>2013-8-7T9:28:37Z</time></trkpt>
<trkpt lat="46.3142929077148" lon="7.48113059997559"><ele></ele><time>2013-8-7T9:28:40Z</time></trkpt>
<trkpt lat="46.3143043518066" lon="7.48114776611328"><ele></ele><time>2013-8-7T9:28:43Z</time></trkpt>
<trkpt lat="46.3143272399902" lon="7.48119735717774"><ele></ele><time>2013-8-7T9:28:46Z</time></trkpt>
<trkpt lat="46.3143768310547" lon="7.48125076293945"><ele></ele><time>2013-8-7T9:28:49Z</time></trkpt>
<trkpt lat="46.3143920898438" lon="7.48126935958862"><ele></ele><time>2013-8-7T9:28:52Z</time></trkpt>
<trkpt lat="46.3144111633301" lon="7.48128890991211"><ele></ele><time>2013-8-7T9:28:55Z</time></trkpt>
<trkpt lat="46.3144302368164" lon="7.48130559921265"><ele></ele><time>2013-8-7T9:28:58Z</time></trkpt>
<trkpt lat="46.3145484924316" lon="7.48144960403442"><ele></ele><time>2013-8-7T9:29:1Z</time></trkpt>
<trkpt lat="46.3145713806152" lon="7.48146533966064"><ele></ele><time>2013-8-7T9:29:4Z</time></trkpt>
<trkpt lat="46.3145904541016" lon="7.48148012161255"><ele></ele><time>2013-8-7T9:29:7Z</time></trkpt>
<trkpt lat="46.3146057128906" lon="7.48149728775024"><ele></ele><time>2013-8-7T9:29:10Z</time></trkpt>
<trkpt lat="46.314624786377" lon="7.48151397705078"><ele></ele><time>2013-8-7T9:29:13Z</time></trkpt>
<trkpt lat="46.3146438598633" lon="7.48153114318848"><ele></ele><time>2013-8-7T9:29:16Z</time></trkpt>
<trkpt lat="46.3146591186523" lon="7.48154973983765"><ele></ele><time>2013-8-7T9:29:19Z</time></trkpt>
<trkpt lat="46.3147239685059" lon="7.48162174224854"><ele></ele><time>2013-8-7T9:29:22Z</time></trkpt>
<trkpt lat="46.3147430419922" lon="7.48163747787476"><ele></ele><time>2013-8-7T9:29:25Z</time></trkpt>
<trkpt lat="46.3147621154785" lon="7.48165321350098"><ele></ele><time>2013-8-7T9:29:28Z</time></trkpt>
<trkpt lat="46.3147811889648" lon="7.48167133331299"><ele></ele><time>2013-8-7T9:29:31Z</time></trkpt>
<trkpt lat="46.3147964477539" lon="7.48168992996216"><ele></ele><time>2013-8-7T9:29:34Z</time></trkpt>
<trkpt lat="46.3148612976074" lon="7.4817624092102"><ele></ele><time>2013-8-7T9:29:37Z</time></trkpt>
<trkpt lat="46.3148765563965" lon="7.48177909851074"><ele></ele><time>2013-8-7T9:29:40Z</time></trkpt>
<trkpt lat="46.3148880004883" lon="7.48179721832275"><ele></ele><time>2013-8-7T9:29:43Z</time></trkpt>
<trkpt lat="46.3149070739746" lon="7.48181247711182"><ele></ele><time>2013-8-7T9:29:46Z</time></trkpt>
<trkpt lat="46.3149261474609" lon="7.48182439804077"><ele></ele><time>2013-8-7T9:29:49Z</time></trkpt>
<trkpt lat="46.314998626709" lon="7.48189163208008"><ele></ele><time>2013-8-7T9:29:52Z</time></trkpt>
<trkpt lat="46.3150520324707" lon="7.48194885253906"><ele></ele><time>2013-8-7T9:29:55Z</time></trkpt>
<trkpt lat="46.3150672912598" lon="7.48196887969971"><ele></ele><time>2013-8-7T9:29:58Z</time></trkpt>
<trkpt lat="46.3150863647461" lon="7.48198890686035"><ele></ele><time>2013-8-7T9:30:1Z</time></trkpt>
<trkpt lat="46.3151016235352" lon="7.48200798034668"><ele></ele><time>2013-8-7T9:30:4Z</time></trkpt>
<trkpt lat="46.3151206970215" lon="7.48202657699585"><ele></ele><time>2013-8-7T9:30:7Z</time></trkpt>
<trkpt lat="46.3152465820312" lon="7.48218202590942"><ele></ele><time>2013-8-7T9:30:10Z</time></trkpt>
<trkpt lat="46.315258026123" lon="7.48220205307007"><ele></ele><time>2013-8-7T9:30:13Z</time></trkpt>
<trkpt lat="46.3152694702148" lon="7.48222303390503"><ele></ele><time>2013-8-7T9:30:16Z</time></trkpt>
<trkpt lat="46.3152847290039" lon="7.4822416305542"><ele></ele><time>2013-8-7T9:30:19Z</time></trkpt>
<trkpt lat="46.3153190612793" lon="7.48229789733887"><ele></ele><time>2013-8-7T9:30:22Z</time></trkpt>
<trkpt lat="46.3153495788574" lon="7.48233890533447"><ele></ele><time>2013-8-7T9:30:25Z</time></trkpt>
<trkpt lat="46.3153648376465" lon="7.48236131668091"><ele></ele><time>2013-8-7T9:30:28Z</time></trkpt>
<trkpt lat="46.3153800964356" lon="7.48238372802734"><ele></ele><time>2013-8-7T9:30:31Z</time></trkpt>
<trkpt lat="46.3153953552246" lon="7.48240375518799"><ele></ele><time>2013-8-7T9:30:34Z</time></trkpt>
<trkpt lat="46.3154144287109" lon="7.48242616653442"><ele></ele><time>2013-8-7T9:30:37Z</time></trkpt>
<trkpt lat="46.3155059814453" lon="7.48255252838135"><ele></ele><time>2013-8-7T9:30:40Z</time></trkpt>
<trkpt lat="46.3155212402344" lon="7.48257160186768"><ele></ele><time>2013-8-7T9:30:43Z</time></trkpt>
<trkpt lat="46.3155326843262" lon="7.48259544372559"><ele></ele><time>2013-8-7T9:30:46Z</time></trkpt>
<trkpt lat="46.3155479431152" lon="7.4826169013977"><ele></ele><time>2013-8-7T9:30:49Z</time></trkpt>
<trkpt lat="46.315559387207" lon="7.48264026641846"><ele></ele><time>2013-8-7T9:30:52Z</time></trkpt>
<trkpt lat="46.3156547546387" lon="7.48278045654297"><ele></ele><time>2013-8-7T9:30:55Z</time></trkpt>
<trkpt lat="46.315673828125" lon="7.48280000686646"><ele></ele><time>2013-8-7T9:30:58Z</time></trkpt>
<trkpt lat="46.3156852722168" lon="7.48281955718994"><ele></ele><time>2013-8-7T9:31:1Z</time></trkpt>
<trkpt lat="46.3157005310059" lon="7.48283910751343"><ele></ele><time>2013-8-7T9:31:4Z</time></trkpt>
<trkpt lat="46.3157157897949" lon="7.4828610420227"><ele></ele><time>2013-8-7T9:31:7Z</time></trkpt>
<trkpt lat="46.315788269043" lon="7.48296499252319"><ele></ele><time>2013-8-7T9:31:10Z</time></trkpt>
<trkpt lat="46.315803527832" lon="7.48298358917236"><ele></ele><time>2013-8-7T9:31:13Z</time></trkpt>
<trkpt lat="46.3158187866211" lon="7.48300457000732"><ele></ele><time>2013-8-7T9:31:16Z</time></trkpt>
<trkpt lat="46.3158340454102" lon="7.48302316665649"><ele></ele><time>2013-8-7T9:31:19Z</time></trkpt>
<trkpt lat="46.3158493041992" lon="7.48304414749146"><ele></ele><time>2013-8-7T9:31:22Z</time></trkpt>
<trkpt lat="46.3158683776856" lon="7.48306512832642"><ele></ele><time>2013-8-7T9:31:25Z</time></trkpt>
<trkpt lat="46.3159103393555" lon="7.48313474655151"><ele></ele><time>2013-8-7T9:31:28Z</time></trkpt>
<trkpt lat="46.3159790039062" lon="7.48322248458862"><ele></ele><time>2013-8-7T9:31:31Z</time></trkpt>
<trkpt lat="46.3159942626953" lon="7.48324680328369"><ele></ele><time>2013-8-7T9:31:34Z</time></trkpt>
<trkpt lat="46.3160133361816" lon="7.48326873779297"><ele></ele><time>2013-8-7T9:31:37Z</time></trkpt>
<trkpt lat="46.3160285949707" lon="7.48329210281372"><ele></ele><time>2013-8-7T9:31:40Z</time></trkpt>
<trkpt lat="46.3160400390625" lon="7.48332023620606"><ele></ele><time>2013-8-7T9:31:43Z</time></trkpt>
<trkpt lat="46.3161201477051" lon="7.48343563079834"><ele></ele><time>2013-8-7T9:31:46Z</time></trkpt>
<trkpt lat="46.3161392211914" lon="7.48345947265625"><ele></ele><time>2013-8-7T9:31:49Z</time></trkpt>
<trkpt lat="46.3161506652832" lon="7.48348522186279"><ele></ele><time>2013-8-7T9:31:52Z</time></trkpt>
<trkpt lat="46.3161659240723" lon="7.48351001739502"><ele></ele><time>2013-8-7T9:31:55Z</time></trkpt>
<trkpt lat="46.3161811828613" lon="7.4835376739502"><ele></ele><time>2013-8-7T9:31:58Z</time></trkpt>
<trkpt lat="46.3161964416504" lon="7.48356103897095"><ele></ele><time>2013-8-7T9:32:1Z</time></trkpt>
<trkpt lat="46.3162803649902" lon="7.48367023468018"><ele></ele><time>2013-8-7T9:32:4Z</time></trkpt>
<trkpt lat="46.3162956237793" lon="7.48369693756104"><ele></ele><time>2013-8-7T9:32:7Z</time></trkpt>
<trkpt lat="46.3163146972656" lon="7.48372459411621"><ele></ele><time>2013-8-7T9:32:10Z</time></trkpt>
<trkpt lat="46.3163299560547" lon="7.4837474822998"><ele></ele><time>2013-8-7T9:32:13Z</time></trkpt>
<trkpt lat="46.316349029541" lon="7.48376655578613"><ele></ele><time>2013-8-7T9:32:16Z</time></trkpt>
<trkpt lat="46.3163833618164" lon="7.48381233215332"><ele></ele><time>2013-8-7T9:32:19Z</time></trkpt>
<trkpt lat="46.3164100646973" lon="7.48386001586914"><ele></ele><time>2013-8-7T9:32:22Z</time></trkpt>
<trkpt lat="46.3164253234863" lon="7.48388385772705"><ele></ele><time>2013-8-7T9:32:25Z</time></trkpt>
<trkpt lat="46.3164405822754" lon="7.4839129447937"><ele></ele><time>2013-8-7T9:32:28Z</time></trkpt>
<trkpt lat="46.3164520263672" lon="7.48394060134888"><ele></ele><time>2013-8-7T9:32:31Z</time></trkpt>
<trkpt lat="46.3164672851562" lon="7.48396062850952"><ele></ele><time>2013-8-7T9:32:34Z</time></trkpt>
<trkpt lat="46.3165397644043" lon="7.48413181304932"><ele></ele><time>2013-8-7T9:32:37Z</time></trkpt>
<trkpt lat="46.3165473937988" lon="7.48417234420776"><ele></ele><time>2013-8-7T9:32:40Z</time></trkpt>
<trkpt lat="46.3165512084961" lon="7.48420906066894"><ele></ele><time>2013-8-7T9:32:43Z</time></trkpt>
<trkpt lat="46.3165626525879" lon="7.48423957824707"><ele></ele><time>2013-8-7T9:32:46Z</time></trkpt>
<trkpt lat="46.3165702819824" lon="7.48427391052246"><ele></ele><time>2013-8-7T9:32:49Z</time></trkpt>
<trkpt lat="46.3165740966797" lon="7.48430871963501"><ele></ele><time>2013-8-7T9:32:52Z</time></trkpt>
<trkpt lat="46.3165817260742" lon="7.48437738418579"><ele></ele><time>2013-8-7T9:32:55Z</time></trkpt>
<trkpt lat="46.3165817260742" lon="7.48441076278686"><ele></ele><time>2013-8-7T9:32:58Z</time></trkpt>
<trkpt lat="46.3165817260742" lon="7.4844388961792"><ele></ele><time>2013-8-7T9:33:1Z</time></trkpt>
<trkpt lat="46.3165817260742" lon="7.48446893692017"><ele></ele><time>2013-8-7T9:33:4Z</time></trkpt>
<trkpt lat="46.3165817260742" lon="7.48449850082398"><ele></ele><time>2013-8-7T9:33:7Z</time></trkpt>
<trkpt lat="46.3165626525879" lon="7.48461818695068"><ele></ele><time>2013-8-7T9:33:10Z</time></trkpt>
<trkpt lat="46.3165588378906" lon="7.48464584350586"><ele></ele><time>2013-8-7T9:33:13Z</time></trkpt>
<trkpt lat="46.3165512084961" lon="7.48467111587524"><ele></ele><time>2013-8-7T9:33:16Z</time></trkpt>
<trkpt lat="46.3165435791016" lon="7.4846978187561"><ele></ele><time>2013-8-7T9:33:19Z</time></trkpt>
<trkpt lat="46.3165321350098" lon="7.48472309112549"><ele></ele><time>2013-8-7T9:33:22Z</time></trkpt>
<trkpt lat="46.3164825439453" lon="7.48485279083252"><ele></ele><time>2013-8-7T9:33:25Z</time></trkpt>
<trkpt lat="46.3164558410644" lon="7.48490381240845"><ele></ele><time>2013-8-7T9:33:28Z</time></trkpt>
<trkpt lat="46.3164443969727" lon="7.48492813110352"><ele></ele><time>2013-8-7T9:33:31Z</time></trkpt>
<trkpt lat="46.3164291381836" lon="7.48495531082153"><ele></ele><time>2013-8-7T9:33:34Z</time></trkpt>
<trkpt lat="46.3164176940918" lon="7.48498249053955"><ele></ele><time>2013-8-7T9:33:37Z</time></trkpt>
<trkpt lat="46.3164100646973" lon="7.48500776290894"><ele></ele><time>2013-8-7T9:33:40Z</time></trkpt>
<trkpt lat="46.3164024353027" lon="7.48503351211548"><ele></ele><time>2013-8-7T9:33:43Z</time></trkpt>
<trkpt lat="46.316349029541" lon="7.48516416549683"><ele></ele><time>2013-8-7T9:33:46Z</time></trkpt>
<trkpt lat="46.316333770752" lon="7.4851884841919"><ele></ele><time>2013-8-7T9:33:49Z</time></trkpt>
<trkpt lat="46.3163223266602" lon="7.48521184921265"><ele></ele><time>2013-8-7T9:33:52Z</time></trkpt>
<trkpt lat="46.3163108825684" lon="7.48523712158203"><ele></ele><time>2013-8-7T9:33:55Z</time></trkpt>
<trkpt lat="46.3162994384766" lon="7.48525810241699"><ele></ele><time>2013-8-7T9:33:58Z</time></trkpt>
<trkpt lat="46.3162498474121" lon="7.48538494110107"><ele></ele><time>2013-8-7T9:34:1Z</time></trkpt>
<trkpt lat="46.316234588623" lon="7.48540687561035"><ele></ele><time>2013-8-7T9:34:4Z</time></trkpt>
<trkpt lat="46.3162231445312" lon="7.48543643951416"><ele></ele><time>2013-8-7T9:34:7Z</time></trkpt>
<trkpt lat="46.3162117004394" lon="7.48546409606934"><ele></ele><time>2013-8-7T9:34:10Z</time></trkpt>
<trkpt lat="46.3162002563477" lon="7.48549127578735"><ele></ele><time>2013-8-7T9:34:13Z</time></trkpt>
<trkpt lat="46.3161888122559" lon="7.48551511764526"><ele></ele><time>2013-8-7T9:34:16Z</time></trkpt>
<trkpt lat="46.3161773681641" lon="7.48553895950317"><ele></ele><time>2013-8-7T9:34:19Z</time></trkpt>
<trkpt lat="46.3161315917969" lon="7.4856333732605"><ele></ele><time>2013-8-7T9:34:22Z</time></trkpt>
<trkpt lat="46.3161201477051" lon="7.48565530776978"><ele></ele><time>2013-8-7T9:34:25Z</time></trkpt>
<trkpt lat="46.3161087036133" lon="7.48567914962768"><ele></ele><time>2013-8-7T9:34:28Z</time></trkpt>
<trkpt lat="46.3160972595215" lon="7.4857063293457"><ele></ele><time>2013-8-7T9:34:31Z</time></trkpt>
<trkpt lat="46.3160858154297" lon="7.48573207855225"><ele></ele><time>2013-8-7T9:34:34Z</time></trkpt>
<trkpt lat="46.3160743713379" lon="7.48576021194458"><ele></ele><time>2013-8-7T9:34:37Z</time></trkpt>
<trkpt lat="46.3160629272461" lon="7.48578357696533"><ele></ele><time>2013-8-7T9:34:40Z</time></trkpt>
<trkpt lat="46.3160095214844" lon="7.48589849472046"><ele></ele><time>2013-8-7T9:34:43Z</time></trkpt>
<trkpt lat="46.3160018920898" lon="7.48592519760132"><ele></ele><time>2013-8-7T9:34:46Z</time></trkpt>
<trkpt lat="46.315990447998" lon="7.48595285415649"><ele></ele><time>2013-8-7T9:34:49Z</time></trkpt>
<trkpt lat="46.3159828186035" lon="7.4859881401062"><ele></ele><time>2013-8-7T9:34:52Z</time></trkpt>
<trkpt lat="46.3159713745117" lon="7.48601722717285"><ele></ele><time>2013-8-7T9:34:55Z</time></trkpt>
<trkpt lat="46.3159255981445" lon="7.48615550994873"><ele></ele><time>2013-8-7T9:34:58Z</time></trkpt>
<trkpt lat="46.3159217834473" lon="7.48618507385254"><ele></ele><time>2013-8-7T9:35:1Z</time></trkpt>
<trkpt lat="46.31591796875" lon="7.48621559143066"><ele></ele><time>2013-8-7T9:35:4Z</time></trkpt>
<trkpt lat="46.31591796875" lon="7.4862470626831"><ele></ele><time>2013-8-7T9:35:7Z</time></trkpt>
<trkpt lat="46.3159141540527" lon="7.48627519607544"><ele></ele><time>2013-8-7T9:35:10Z</time></trkpt>
<trkpt lat="46.3159141540527" lon="7.48630714416504"><ele></ele><time>2013-8-7T9:35:13Z</time></trkpt>
<trkpt lat="46.31591796875" lon="7.48636960983276"><ele></ele><time>2013-8-7T9:35:16Z</time></trkpt>
<trkpt lat="46.3159370422363" lon="7.48649168014526"><ele></ele><time>2013-8-7T9:35:19Z</time></trkpt>
<trkpt lat="46.3159484863281" lon="7.4865198135376"><ele></ele><time>2013-8-7T9:35:22Z</time></trkpt>
<trkpt lat="46.3159599304199" lon="7.48654651641846"><ele></ele><time>2013-8-7T9:35:25Z</time></trkpt>
<trkpt lat="46.3159713745117" lon="7.48657274246216"><ele></ele><time>2013-8-7T9:35:28Z</time></trkpt>
<trkpt lat="46.3160705566406" lon="7.48670816421509"><ele></ele><time>2013-8-7T9:35:31Z</time></trkpt>
<trkpt lat="46.3160858154297" lon="7.48673057556152"><ele></ele><time>2013-8-7T9:35:34Z</time></trkpt>
<trkpt lat="46.316104888916" lon="7.48675298690796"><ele></ele><time>2013-8-7T9:35:37Z</time></trkpt>
<trkpt lat="46.3161239624023" lon="7.48677158355713"><ele></ele><time>2013-8-7T9:35:40Z</time></trkpt>
<trkpt lat="46.3161430358887" lon="7.4867901802063"><ele></ele><time>2013-8-7T9:35:43Z</time></trkpt>
<trkpt lat="46.3162612915039" lon="7.48690795898438"><ele></ele><time>2013-8-7T9:35:46Z</time></trkpt>
<trkpt lat="46.3162803649902" lon="7.48692893981934"><ele></ele><time>2013-8-7T9:35:49Z</time></trkpt>
<trkpt lat="46.3162994384766" lon="7.48695135116577"><ele></ele><time>2013-8-7T9:35:52Z</time></trkpt>
<trkpt lat="46.3163223266602" lon="7.48696851730347"><ele></ele><time>2013-8-7T9:35:55Z</time></trkpt>
<trkpt lat="46.3163375854492" lon="7.4869909286499"><ele></ele><time>2013-8-7T9:35:58Z</time></trkpt>
<trkpt lat="46.3163528442383" lon="7.48701667785644"><ele></ele><time>2013-8-7T9:36:1Z</time></trkpt>
<trkpt lat="46.3163681030273" lon="7.4870433807373"><ele></ele><time>2013-8-7T9:36:4Z</time></trkpt>
<trkpt lat="46.3164176940918" lon="7.48714733123779"><ele></ele><time>2013-8-7T9:36:7Z</time></trkpt>
<trkpt lat="46.3164291381836" lon="7.48717498779297"><ele></ele><time>2013-8-7T9:36:10Z</time></trkpt>
<trkpt lat="46.3164405822754" lon="7.48719882965088"><ele></ele><time>2013-8-7T9:36:13Z</time></trkpt>
<trkpt lat="46.3164520263672" lon="7.48722410202026"><ele></ele><time>2013-8-7T9:36:16Z</time></trkpt>
<trkpt lat="46.3164596557617" lon="7.48725461959839"><ele></ele><time>2013-8-7T9:36:19Z</time></trkpt>
<trkpt lat="46.3164939880371" lon="7.48738050460815"><ele></ele><time>2013-8-7T9:36:22Z</time></trkpt>
<trkpt lat="46.316520690918" lon="7.48747825622559"><ele></ele><time>2013-8-7T9:36:25Z</time></trkpt>
<trkpt lat="46.3165283203125" lon="7.48750877380371"><ele></ele><time>2013-8-7T9:36:28Z</time></trkpt>
<trkpt lat="46.316535949707" lon="7.48753595352173"><ele></ele><time>2013-8-7T9:36:31Z</time></trkpt>
<trkpt lat="46.3165435791016" lon="7.4875659942627"><ele></ele><time>2013-8-7T9:36:34Z</time></trkpt>
<trkpt lat="46.3165550231934" lon="7.48759412765503"><ele></ele><time>2013-8-7T9:36:37Z</time></trkpt>
<trkpt lat="46.3166084289551" lon="7.48780298233032"><ele></ele><time>2013-8-7T9:36:40Z</time></trkpt>
<trkpt lat="46.3166160583496" lon="7.48783206939697"><ele></ele><time>2013-8-7T9:36:43Z</time></trkpt>
<trkpt lat="46.3166236877441" lon="7.48786163330078"><ele></ele><time>2013-8-7T9:36:46Z</time></trkpt>
<trkpt lat="46.3166313171387" lon="7.48789024353027"><ele></ele><time>2013-8-7T9:36:49Z</time></trkpt>
<trkpt lat="46.3166999816894" lon="7.48808717727661"><ele></ele><time>2013-8-7T9:36:52Z</time></trkpt>
<trkpt lat="46.3167114257812" lon="7.48811626434326"><ele></ele><time>2013-8-7T9:36:55Z</time></trkpt>
<trkpt lat="46.316722869873" lon="7.48814249038696"><ele></ele><time>2013-8-7T9:36:58Z</time></trkpt>
<trkpt lat="46.3167343139648" lon="7.4881706237793"><ele></ele><time>2013-8-7T9:37:1Z</time></trkpt>
<trkpt lat="46.3167457580566" lon="7.48819875717163"><ele></ele><time>2013-8-7T9:37:4Z</time></trkpt>
<trkpt lat="46.3167762756348" lon="7.48824977874756"><ele></ele><time>2013-8-7T9:37:7Z</time></trkpt>
<trkpt lat="46.3168067932129" lon="7.48829936981201"><ele></ele><time>2013-8-7T9:37:10Z</time></trkpt>
<trkpt lat="46.3168525695801" lon="7.48837757110596"><ele></ele><time>2013-8-7T9:37:13Z</time></trkpt>
<trkpt lat="46.3168678283691" lon="7.48840379714966"><ele></ele><time>2013-8-7T9:37:16Z</time></trkpt>
<trkpt lat="46.3168869018555" lon="7.48842906951904"><ele></ele><time>2013-8-7T9:37:19Z</time></trkpt>
<trkpt lat="46.3169059753418" lon="7.48845386505127"><ele></ele><time>2013-8-7T9:37:22Z</time></trkpt>
<trkpt lat="46.3169212341309" lon="7.4884786605835"><ele></ele><time>2013-8-7T9:37:25Z</time></trkpt>
<trkpt lat="46.3170509338379" lon="7.48859882354736"><ele></ele><time>2013-8-7T9:37:28Z</time></trkpt>
<trkpt lat="46.317066192627" lon="7.48861598968506"><ele></ele><time>2013-8-7T9:37:31Z</time></trkpt>
<trkpt lat="46.3170852661133" lon="7.4886302947998"><ele></ele><time>2013-8-7T9:37:34Z</time></trkpt>
<trkpt lat="46.3171005249023" lon="7.48864936828613"><ele></ele><time>2013-8-7T9:37:37Z</time></trkpt>
<trkpt lat="46.3171195983887" lon="7.48866605758667"><ele></ele><time>2013-8-7T9:37:40Z</time></trkpt>
<trkpt lat="46.317138671875" lon="7.48867988586426"><ele></ele><time>2013-8-7T9:37:43Z</time></trkpt>
<trkpt lat="46.3171768188477" lon="7.48870801925659"><ele></ele><time>2013-8-7T9:37:46Z</time></trkpt>
<trkpt lat="46.3172760009766" lon="7.48880910873413"><ele></ele><time>2013-8-7T9:37:49Z</time></trkpt>
<trkpt lat="46.317310333252" lon="7.48884582519531"><ele></ele><time>2013-8-7T9:37:52Z</time></trkpt>
<trkpt lat="46.3173294067383" lon="7.48886775970459"><ele></ele><time>2013-8-7T9:37:55Z</time></trkpt>
<trkpt lat="46.3173484802246" lon="7.48888826370239"><ele></ele><time>2013-8-7T9:37:58Z</time></trkpt>
<trkpt lat="46.3173637390137" lon="7.48890924453735"><ele></ele><time>2013-8-7T9:38:1Z</time></trkpt>
<trkpt lat="46.3173828125" lon="7.488929271698"><ele></ele><time>2013-8-7T9:38:4Z</time></trkpt>
<trkpt lat="46.3173980712891" lon="7.48895406723022"><ele></ele><time>2013-8-7T9:38:7Z</time></trkpt>
<trkpt lat="46.3174629211426" lon="7.48905420303345"><ele></ele><time>2013-8-7T9:38:10Z</time></trkpt>
<trkpt lat="46.3174743652344" lon="7.48908424377441"><ele></ele><time>2013-8-7T9:38:13Z</time></trkpt>
<trkpt lat="46.3174896240234" lon="7.48911285400391"><ele></ele><time>2013-8-7T9:38:16Z</time></trkpt>
<trkpt lat="46.317497253418" lon="7.4891414642334"><ele></ele><time>2013-8-7T9:38:19Z</time></trkpt>
<trkpt lat="46.3175086975098" lon="7.48916721343994"><ele></ele><time>2013-8-7T9:38:22Z</time></trkpt>
<trkpt lat="46.3175735473633" lon="7.48934364318848"><ele></ele><time>2013-8-7T9:38:25Z</time></trkpt>
<trkpt lat="46.3175811767578" lon="7.48937654495239"><ele></ele><time>2013-8-7T9:38:28Z</time></trkpt>
<trkpt lat="46.3175888061523" lon="7.48940563201904"><ele></ele><time>2013-8-7T9:38:31Z</time></trkpt>
<trkpt lat="46.3175964355469" lon="7.48943519592285"><ele></ele><time>2013-8-7T9:38:34Z</time></trkpt>
<trkpt lat="46.3176002502441" lon="7.4894642829895"><ele></ele><time>2013-8-7T9:38:37Z</time></trkpt>
<trkpt lat="46.3176460266113" lon="7.48961687088013"><ele></ele><time>2013-8-7T9:38:40Z</time></trkpt>
<trkpt lat="46.3176574707031" lon="7.48964500427246"><ele></ele><time>2013-8-7T9:38:43Z</time></trkpt>
<trkpt lat="46.3176689147949" lon="7.48967456817627"><ele></ele><time>2013-8-7T9:38:46Z</time></trkpt>
<trkpt lat="46.3176765441894" lon="7.48970603942871"><ele></ele><time>2013-8-7T9:38:49Z</time></trkpt>
<trkpt lat="46.317684173584" lon="7.48973369598389"><ele></ele><time>2013-8-7T9:38:52Z</time></trkpt>
<trkpt lat="46.3176956176758" lon="7.48976278305054"><ele></ele><time>2013-8-7T9:38:55Z</time></trkpt>
<trkpt lat="46.3177108764648" lon="7.48982334136963"><ele></ele><time>2013-8-7T9:38:58Z</time></trkpt>
<trkpt lat="46.317756652832" lon="7.48999547958374"><ele></ele><time>2013-8-7T9:39:1Z</time></trkpt>
<trkpt lat="46.3177642822266" lon="7.49002742767334"><ele></ele><time>2013-8-7T9:39:4Z</time></trkpt>
<trkpt lat="46.3177719116211" lon="7.49005889892578"><ele></ele><time>2013-8-7T9:39:7Z</time></trkpt>
<trkpt lat="46.3177795410156" lon="7.49008941650391"><ele></ele><time>2013-8-7T9:39:10Z</time></trkpt>
<trkpt lat="46.3177871704102" lon="7.49011659622192"><ele></ele><time>2013-8-7T9:39:13Z</time></trkpt>
<trkpt lat="46.3178215026856" lon="7.49023389816284"><ele></ele><time>2013-8-7T9:39:16Z</time></trkpt>
<trkpt lat="46.3178558349609" lon="7.49032211303711"><ele></ele><time>2013-8-7T9:39:19Z</time></trkpt>
<trkpt lat="46.3178634643555" lon="7.49034833908081"><ele></ele><time>2013-8-7T9:39:22Z</time></trkpt>
<trkpt lat="46.3178787231445" lon="7.49037456512451"><ele></ele><time>2013-8-7T9:39:25Z</time></trkpt>
<trkpt lat="46.3178863525391" lon="7.49040222167969"><ele></ele><time>2013-8-7T9:39:28Z</time></trkpt>
<trkpt lat="46.3178939819336" lon="7.49043226242065"><ele></ele><time>2013-8-7T9:39:31Z</time></trkpt>
<trkpt lat="46.3179512023926" lon="7.49061298370361"><ele></ele><time>2013-8-7T9:39:34Z</time></trkpt>
<trkpt lat="46.3179626464844" lon="7.49063968658447"><ele></ele><time>2013-8-7T9:39:37Z</time></trkpt>
<trkpt lat="46.3179664611816" lon="7.49066734313965"><ele></ele><time>2013-8-7T9:39:40Z</time></trkpt>
<trkpt lat="46.3179779052734" lon="7.49069595336914"><ele></ele><time>2013-8-7T9:39:43Z</time></trkpt>
<trkpt lat="46.317985534668" lon="7.49072504043579"><ele></ele><time>2013-8-7T9:39:46Z</time></trkpt>
<trkpt lat="46.3180313110352" lon="7.49087810516357"><ele></ele><time>2013-8-7T9:39:49Z</time></trkpt>
<trkpt lat="46.318042755127" lon="7.49090623855591"><ele></ele><time>2013-8-7T9:39:52Z</time></trkpt>
<trkpt lat="46.3180541992188" lon="7.49093437194824"><ele></ele><time>2013-8-7T9:39:55Z</time></trkpt>
<trkpt lat="46.3180618286133" lon="7.49096298217774"><ele></ele><time>2013-8-7T9:39:58Z</time></trkpt>
<trkpt lat="46.3180656433106" lon="7.49099063873291"><ele></ele><time>2013-8-7T9:40:1Z</time></trkpt>
<trkpt lat="46.3180999755859" lon="7.49111127853394"><ele></ele><time>2013-8-7T9:40:4Z</time></trkpt>
<trkpt lat="46.3181228637695" lon="7.49117136001587"><ele></ele><time>2013-8-7T9:40:7Z</time></trkpt>
<trkpt lat="46.3181343078613" lon="7.49120092391968"><ele></ele><time>2013-8-7T9:40:10Z</time></trkpt>
<trkpt lat="46.3181457519531" lon="7.49122858047485"><ele></ele><time>2013-8-7T9:40:13Z</time></trkpt>
<trkpt lat="46.3181571960449" lon="7.49125576019287"><ele></ele><time>2013-8-7T9:40:16Z</time></trkpt>
<trkpt lat="46.3181686401367" lon="7.49128150939941"><ele></ele><time>2013-8-7T9:40:19Z</time></trkpt>
<trkpt lat="46.3181953430176" lon="7.49133253097534"><ele></ele><time>2013-8-7T9:40:22Z</time></trkpt>
<trkpt lat="46.3182487487793" lon="7.49144220352173"><ele></ele><time>2013-8-7T9:40:25Z</time></trkpt>
<trkpt lat="46.3182640075684" lon="7.49146699905396"><ele></ele><time>2013-8-7T9:40:28Z</time></trkpt>
<trkpt lat="46.3182792663574" lon="7.49148941040039"><ele></ele><time>2013-8-7T9:40:31Z</time></trkpt>
<trkpt lat="46.3182907104492" lon="7.49151372909546"><ele></ele><time>2013-8-7T9:40:34Z</time></trkpt>
<trkpt lat="46.3183059692383" lon="7.49154043197632"><ele></ele><time>2013-8-7T9:40:37Z</time></trkpt>
<trkpt lat="46.318431854248" lon="7.49172925949097"><ele></ele><time>2013-8-7T9:40:40Z</time></trkpt>
<trkpt lat="46.3184852600098" lon="7.49180316925049"><ele></ele><time>2013-8-7T9:40:43Z</time></trkpt>
<trkpt lat="46.3185005187988" lon="7.49182748794556"><ele></ele><time>2013-8-7T9:40:46Z</time></trkpt>
<trkpt lat="46.3185195922852" lon="7.49184846878052"><ele></ele><time>2013-8-7T9:40:49Z</time></trkpt>
<trkpt lat="46.3185386657715" lon="7.491868019104"><ele></ele><time>2013-8-7T9:40:52Z</time></trkpt>
<trkpt lat="46.3185615539551" lon="7.4918909072876"><ele></ele><time>2013-8-7T9:40:55Z</time></trkpt>
<trkpt lat="46.3187026977539" lon="7.49203634262085"><ele></ele><time>2013-8-7T9:40:58Z</time></trkpt>
<trkpt lat="46.3187217712402" lon="7.4920597076416"><ele></ele><time>2013-8-7T9:41:1Z</time></trkpt>
<trkpt lat="46.3187408447266" lon="7.49208211898804"><ele></ele><time>2013-8-7T9:41:4Z</time></trkpt>
<trkpt lat="46.3187599182129" lon="7.49210596084595"><ele></ele><time>2013-8-7T9:41:7Z</time></trkpt>
<trkpt lat="46.3187828063965" lon="7.49212694168091"><ele></ele><time>2013-8-7T9:41:10Z</time></trkpt>
<trkpt lat="46.3188858032227" lon="7.4922342300415"><ele></ele><time>2013-8-7T9:41:13Z</time></trkpt>
<trkpt lat="46.3189468383789" lon="7.49229097366333"><ele></ele><time>2013-8-7T9:41:16Z</time></trkpt>
<trkpt lat="46.3189697265625" lon="7.49231195449829"><ele></ele><time>2013-8-7T9:41:19Z</time></trkpt>
<trkpt lat="46.3189888000488" lon="7.49233102798462"><ele></ele><time>2013-8-7T9:41:22Z</time></trkpt>
<trkpt lat="46.3190040588379" lon="7.49235391616821"><ele></ele><time>2013-8-7T9:41:25Z</time></trkpt>
<trkpt lat="46.3190269470215" lon="7.49237298965454"><ele></ele><time>2013-8-7T9:41:28Z</time></trkpt>
<trkpt lat="46.3192253112793" lon="7.49251890182495"><ele></ele><time>2013-8-7T9:41:31Z</time></trkpt>
<trkpt lat="46.3192481994629" lon="7.4925332069397"><ele></ele><time>2013-8-7T9:41:34Z</time></trkpt>
<trkpt lat="46.3192672729492" lon="7.49254989624024"><ele></ele><time>2013-8-7T9:41:37Z</time></trkpt>
<trkpt lat="46.3192901611328" lon="7.49256038665772"><ele></ele><time>2013-8-7T9:41:40Z</time></trkpt>
<trkpt lat="46.3193092346191" lon="7.49257469177246"><ele></ele><time>2013-8-7T9:41:43Z</time></trkpt>
<trkpt lat="46.3193511962891" lon="7.49260234832764"><ele></ele><time>2013-8-7T9:41:46Z</time></trkpt>
<trkpt lat="46.3194198608398" lon="7.49264287948608"><ele></ele><time>2013-8-7T9:41:49Z</time></trkpt>
<trkpt lat="46.3194465637207" lon="7.49265289306641"><ele></ele><time>2013-8-7T9:41:52Z</time></trkpt>
<trkpt lat="46.319465637207" lon="7.49266767501831"><ele></ele><time>2013-8-7T9:41:55Z</time></trkpt>
<trkpt lat="46.3194923400879" lon="7.49268102645874"><ele></ele><time>2013-8-7T9:41:58Z</time></trkpt>
<trkpt lat="46.3195152282715" lon="7.49268865585327"><ele></ele><time>2013-8-7T9:42:1Z</time></trkpt>
<trkpt lat="46.3196487426758" lon="7.4927453994751"><ele></ele><time>2013-8-7T9:42:4Z</time></trkpt>
<trkpt lat="46.3197250366211" lon="7.49277591705322"><ele></ele><time>2013-8-7T9:42:7Z</time></trkpt>
<trkpt lat="46.3197479248047" lon="7.49278688430786"><ele></ele><time>2013-8-7T9:42:10Z</time></trkpt>
<trkpt lat="46.3197708129883" lon="7.49279642105102"><ele></ele><time>2013-8-7T9:42:13Z</time></trkpt>
<trkpt lat="46.3197975158691" lon="7.49280261993408"><ele></ele><time>2013-8-7T9:42:16Z</time></trkpt>
<trkpt lat="46.3198204040527" lon="7.4928092956543"><ele></ele><time>2013-8-7T9:42:19Z</time></trkpt>
<trkpt lat="46.3198699951172" lon="7.49282121658325"><ele></ele><time>2013-8-7T9:42:22Z</time></trkpt>
<trkpt lat="46.3199615478516" lon="7.49285984039307"><ele></ele><time>2013-8-7T9:42:25Z</time></trkpt>
<trkpt lat="46.3199844360352" lon="7.49286794662476"><ele></ele><time>2013-8-7T9:42:28Z</time></trkpt>
<trkpt lat="46.3200073242188" lon="7.49288034439087"><ele></ele><time>2013-8-7T9:42:31Z</time></trkpt>
<trkpt lat="46.3200340270996" lon="7.49289178848267"><ele></ele><time>2013-8-7T9:42:34Z</time></trkpt>
<trkpt lat="46.3200569152832" lon="7.49289464950562"><ele></ele><time>2013-8-7T9:42:37Z</time></trkpt>
<trkpt lat="46.3202285766602" lon="7.49291515350342"><ele></ele><time>2013-8-7T9:42:40Z</time></trkpt>
<trkpt lat="46.3202819824219" lon="7.49293184280396"><ele></ele><time>2013-8-7T9:42:43Z</time></trkpt>
<trkpt lat="46.3203086853027" lon="7.49293422698975"><ele></ele><time>2013-8-7T9:42:46Z</time></trkpt>
<trkpt lat="46.3203353881836" lon="7.49293899536133"><ele></ele><time>2013-8-7T9:42:49Z</time></trkpt>
<trkpt lat="46.3203620910644" lon="7.49293518066406"><ele></ele><time>2013-8-7T9:42:52Z</time></trkpt>
<trkpt lat="46.320384979248" lon="7.4929347038269"><ele></ele><time>2013-8-7T9:42:55Z</time></trkpt>
<trkpt lat="46.3205413818359" lon="7.49296760559082"><ele></ele><time>2013-8-7T9:42:58Z</time></trkpt>
<trkpt lat="46.3205871582031" lon="7.49297285079956"><ele></ele><time>2013-8-7T9:43:1Z</time></trkpt>
<trkpt lat="46.3206100463867" lon="7.49297332763672"><ele></ele><time>2013-8-7T9:43:4Z</time></trkpt>
<trkpt lat="46.3206329345703" lon="7.49297046661377"><ele></ele><time>2013-8-7T9:43:7Z</time></trkpt>
<trkpt lat="46.3206520080566" lon="7.49297142028809"><ele></ele><time>2013-8-7T9:43:10Z</time></trkpt>
<trkpt lat="46.3206748962402" lon="7.49296998977661"><ele></ele><time>2013-8-7T9:43:13Z</time></trkpt>
<trkpt lat="46.3206977844238" lon="7.49296998977661"><ele></ele><time>2013-8-7T9:43:16Z</time></trkpt>
<trkpt lat="46.3207511901856" lon="7.49298000335693"><ele></ele><time>2013-8-7T9:43:19Z</time></trkpt>
<trkpt lat="46.3207664489746" lon="7.49298095703125"><ele></ele><time>2013-8-7T9:43:22Z</time></trkpt>
<trkpt lat="46.3207855224609" lon="7.49298667907715"><ele></ele><time>2013-8-7T9:43:25Z</time></trkpt>
<trkpt lat="46.32080078125" lon="7.49299001693726"><ele></ele><time>2013-8-7T9:43:28Z</time></trkpt>
<trkpt lat="46.3208198547363" lon="7.4929895401001"><ele></ele><time>2013-8-7T9:43:31Z</time></trkpt>
</trkseg></trk></gpx>